Date StartTime U_cm/s V_cm/s W_cm/s Ustd_cm/s Vstd_cm/s Wstd_cm/s Uvar_(cm/s)^2 Vvar_(cm/s)^2 Wvar_(cm/s)^2 KE_(m/s)^2 TurbulentKE_(m/s)^2 HorizWindSpeed_cm/s FrictionSpeec_cm/s DragCoef SpeedOfSound_m/s SonicTemperature_C Pressure_mb 
07/25/2013  00:00:00      -93.945      -14.741       -5.977       61.832       45.637       20.314     3823.188     2082.699      412.651        0.770        0.316       95.095       23.753        0.062      347.592       26.673      862.943
07/25/2013  00:01:00     -195.458      -28.929      -12.124       75.599       47.331       32.148     5715.190     2240.234     1033.475        2.409        0.449      197.587       34.017        0.030      347.502       26.514      862.951
07/25/2013  00:02:00     -163.066      -38.459      -12.152       62.499       50.650       28.257     3906.096     2565.415      798.458        1.774        0.363      167.540       29.254        0.030      347.501       26.513      862.954
07/25/2013  00:03:00     -183.748       17.955      -36.751       40.697       50.425       25.781     1656.217     2542.682      664.650        2.015        0.243      184.623       24.636        0.018      347.636       26.747      862.942
07/25/2013  00:04:00      -56.059        2.609        1.086       42.714       21.809       26.083     1824.464      475.641      680.336        0.306        0.149       56.119       27.791        0.245      347.529       26.565      862.939
07/25/2013  00:05:00      -68.935       -6.021        0.353       60.627       53.467       24.473     3675.642     2858.681      598.934        0.596        0.357       69.197       28.194        0.166      347.519       26.545      862.952
07/25/2013  00:06:00     -171.266       61.302      -32.768       51.431       60.807       27.634     2645.111     3697.435      763.645        2.063        0.355      181.907       18.248        0.010      347.642       26.759      862.954
07/25/2013  00:07:00      -64.494       20.157       -6.533       50.113       43.045       24.967     2511.350     1852.861      623.367        0.480        0.249       67.571       20.374        0.091      347.550       26.600      862.960
07/25/2013  00:08:00      -72.482       38.701      -16.407       36.692       75.271       28.145     1346.327     5665.693      792.135        0.741        0.390       82.167       19.522        0.056      347.604       26.693      862.959
07/25/2013  00:09:00      -69.051       60.368       -1.604       44.057       90.579       27.966     1940.981     8204.505      782.107        0.967        0.546       91.719       22.989        0.063      347.540       26.582      862.938
07/25/2013  00:10:00      -14.780      -19.508        5.149       44.050       24.617       23.689     1940.381      606.017      561.174        0.187        0.155       24.475       17.793        0.528      347.485       26.490      862.927
07/25/2013  00:11:00     -101.938      -42.842       -5.980       50.503       49.508       35.587     2550.506     2451.050     1266.404        0.926        0.313      110.575       34.623        0.098      347.532       26.569      862.920
07/25/2013  00:12:00     -215.333      -37.970       -5.830       69.516       47.748       36.054     4832.444     2279.855     1299.869        2.813        0.421      218.655       35.335        0.026      347.588       26.663      862.917
07/25/2013  00:13:00     -128.939      -16.961       -4.378       47.427       40.436       20.499     2249.337     1635.098      420.218        1.062        0.215      130.049       21.311        0.027      347.420       26.376      862.911
07/25/2013  00:14:00      -93.467      -17.196       -6.980       37.734       31.316       23.591     1423.849      980.697      556.514        0.602        0.148       95.036       14.335        0.023      347.501       26.516      862.909
07/25/2013  00:15:00     -112.219       48.582      -11.395       64.333       92.883       31.714     4138.700     8627.177     1005.786        1.442        0.689      122.284       35.613        0.085      347.546       26.591      862.913
07/25/2013  00:16:00      -99.457       32.557       -9.808       54.890       73.423       32.182     3012.871     5390.966     1035.660        1.024        0.472      104.650       24.008        0.053      347.469       26.459      862.929
07/25/2013  00:17:00      -64.922       47.451       -6.995       65.069       40.313       28.304     4233.943     1625.158      801.115        0.659        0.333       80.415       34.327        0.182      347.428       26.389      862.941
07/25/2013  00:18:00      -60.267       48.361       -1.812       44.189       43.718       28.958     1952.706     1911.299      838.570        0.534        0.235       77.272       25.896        0.112      347.401       26.344      862.946
07/25/2013  00:19:00      -54.588       77.729      -10.528       39.207       54.607       26.617     1537.166     2981.873      708.480        0.718        0.261       94.982       25.032        0.069      347.358       26.268      862.950
07/25/2013  00:20:00      -39.295      106.288        5.003       44.001       68.866       36.728     1936.093     4742.574     1348.911        1.045        0.401      113.319       32.729        0.083      347.455       26.435      862.943
07/25/2013  00:21:00      -79.940      -24.998       -7.854       28.291       40.763       20.728      800.379     1661.596      429.662        0.498        0.145       83.757       18.994        0.051      347.343       26.243      862.933
07/25/2013  00:22:00      -42.569       -4.101        3.259       49.163       39.173       18.341     2416.959     1534.498      336.405        0.306        0.214       42.767       25.685        0.361      347.286       26.146      862.932
07/25/2013  00:23:00      -95.308       41.209      -21.579       37.961       54.282       21.907     1441.038     2946.516      479.902        0.806        0.243      103.836       28.725        0.077      347.551       26.602      862.935
07/25/2013  00:24:00      -58.020       41.007       -5.866       33.058       36.562       21.686     1092.849     1336.795      470.295        0.399        0.145       71.048       25.122        0.125      347.512       26.535      862.930
07/25/2013  00:25:00      -65.149       64.920      -16.788       24.928       25.867       13.494      621.428      669.079      182.097        0.511        0.074       91.973       12.849        0.020      347.387       26.320      862.933
07/25/2013  00:26:00     -114.346       88.521      -25.255       28.010       36.597       20.446      784.555     1339.322      418.053        1.204        0.127      144.607       12.497        0.007      347.393       26.328      862.942
07/25/2013  00:27:00     -108.244      151.145      -27.247       36.443       35.115       23.140     1328.076     1233.033      535.440        1.920        0.155      185.907       18.667        0.010      347.385       26.315      862.948
07/25/2013  00:28:00      -60.992      122.082      -18.591       27.970       31.272       21.826      782.344      977.951      476.380        1.060        0.112      136.470       20.881        0.023      347.404       26.347      862.940
07/25/2013  00:29:00      -64.650      106.854      -21.475       35.475       57.549       19.382     1258.485     3311.895      375.653        1.050        0.247      124.890       22.159        0.031      347.354       26.261      862.947
07/25/2013  00:30:00      -47.198       48.720       -9.834       21.178       28.185       16.611      448.515      794.394      275.937        0.311        0.076       67.833        8.438        0.015      347.202       26.001      862.945
07/25/2013  00:31:00      -70.731       74.161      -15.039       26.903       33.759       11.320      723.761     1139.677      128.147        0.636        0.100      102.483        8.960        0.008      347.274       26.124      862.942
07/25/2013  00:32:00     -104.451      125.201      -26.683       27.594       27.610       15.365      761.439      762.308      236.088        1.453        0.088      163.050       11.658        0.005      347.348       26.252      862.934
07/25/2013  00:33:00     -117.886      120.083      -21.782       37.153       41.978       19.482     1380.371     1762.167      379.534        1.616        0.176      168.277       16.358        0.009      347.451       26.427      862.936
07/25/2013  00:34:00     -104.801       69.541      -13.526       39.423       35.562       19.727     1554.148     1264.642      389.149        0.960        0.160      125.775       16.103        0.016      347.563       26.624      862.933
07/25/2013  00:35:00      -63.674       70.176       -8.846       21.554       26.132       17.764      464.580      682.894      315.558        0.526        0.073       94.758       17.116        0.033      347.483       26.485      862.937
07/25/2013  00:36:00      -40.113       81.068      -11.399       45.592       37.583       24.603     2078.670     1412.494      605.317        0.620        0.205       90.450       20.687        0.052      347.535       26.575      862.928
07/25/2013  00:37:00     -113.254       43.365      -21.382       23.582       53.492       25.845      556.127     2861.404      667.972        0.962        0.204      121.273       17.993        0.022      347.248       26.078      862.927
07/25/2013  00:38:00     -104.364      -20.372       -3.010       27.077       33.023       17.141      733.152     1090.527      293.801        0.672        0.106      106.334        9.893        0.009      347.161       25.928      862.937
07/25/2013  00:39:00      -79.107       19.514       -7.140       24.062       26.765       13.955      578.969      716.378      194.746        0.409        0.075       81.478        9.981        0.015      347.217       26.026      862.943
07/25/2013  00:40:00      -96.589      -10.739      -14.337       19.552       22.730       16.427      382.296      516.668      269.845        0.541        0.058       97.184       12.304        0.016      347.198       25.993      862.953
07/25/2013  00:41:00      -87.472       -8.465       -5.234       21.223       26.278       18.447      450.426      690.539      340.287        0.462        0.074       87.881       12.755        0.021      347.272       26.120      862.943
07/25/2013  00:42:00     -132.593       49.895      -20.508       55.222       51.227       29.969     3049.518     2624.232      898.149        1.353        0.329      141.670       32.329        0.052      347.289       26.150      862.947
07/25/2013  00:43:00     -199.630       60.036      -26.454       77.229       78.134       43.892     5964.295     6104.943     1926.478        2.907        0.700      208.462       46.656        0.050      347.514       26.536      862.944
07/25/2013  00:44:00     -153.928      -72.430        8.192       72.608       64.963       37.747     5271.935     4220.171     1424.829        1.996        0.546      170.117       37.009        0.047      347.268       26.113      862.944
07/25/2013  00:45:00     -114.252      -23.699        8.564       41.364       55.670       29.986     1711.010     3099.182      899.133        0.970        0.285      116.684       24.956        0.046      347.133       25.883      862.953
07/25/2013  00:46:00     -157.063      -56.657       -4.551       44.741       39.605       24.563     2001.736     1568.539      603.361        1.604        0.209      166.969       25.828        0.024      347.122       25.863      862.951
07/25/2013  00:47:00     -155.326      -31.136      -18.970       41.898       44.011       25.354     1755.461     1936.998      642.807        1.489        0.217      158.416       22.853        0.021      347.120       25.860      862.955
07/25/2013  00:48:00     -167.561        6.983      -25.961       45.963       47.678       25.542     2112.566     2273.180      652.403        1.692        0.252      167.707       20.700        0.015      347.022       25.689      862.945
07/25/2013  00:49:00     -109.454       18.715      -13.300       53.834       58.678       21.934     2898.070     3443.092      481.090        0.966        0.341      111.043       22.016        0.039      347.013       25.675      862.947
07/25/2013  00:50:00     -116.053      144.050      -31.706       39.880       48.449       23.944     1590.400     2347.263      573.338        1.987        0.226      184.983       22.189        0.014      347.189       25.978      862.958
07/25/2013  00:51:00      -84.184      123.671      -17.515       32.824       43.747       23.149     1077.424     1913.762      535.895        1.311        0.176      149.605       23.362        0.024      347.286       26.146      862.938
07/25/2013  00:52:00     -132.375       13.706      -16.410       65.110       40.692       19.097     4239.356     1655.802      364.683        1.212        0.313      133.082       23.449        0.031      346.932       25.535      862.939
07/25/2013  00:53:00     -130.565       -3.652      -15.800       52.445       34.950       24.031     2750.477     1221.535      577.476        1.093        0.227      130.616       26.385        0.041      346.794       25.298      862.950
07/25/2013  00:54:00     -118.070       73.480       -7.678       80.566       95.960       32.345     6490.821     9208.335     1046.215        1.807        0.837      139.067       29.070        0.044      347.134       25.883      862.946
07/25/2013  00:55:00      -71.614      178.689       -5.178       46.216       63.743       31.416     2135.930     4063.159      986.984        2.213        0.359      192.506       21.260        0.012      347.346       26.246      862.943
07/25/2013  00:56:00     -140.479       26.039       -9.807       89.109      109.870       31.861     7940.347    12071.333     1015.153        2.076        1.051      142.872       28.680        0.040      347.197       25.990      862.932
07/25/2013  00:57:00     -173.963      -93.978       -5.614       55.721       49.396       32.112     3104.816     2439.930     1031.164        2.285        0.329      197.724       16.080        0.007      346.783       25.278      862.951
07/25/2013  00:58:00     -125.892      -18.900       -7.311       74.594       47.788       39.985     5564.217     2283.701     1598.824        1.285        0.472      127.303       40.343        0.100      346.987       25.631      862.943
07/25/2013  00:59:00     -181.043      -54.576      -13.549       45.713       55.758       27.932     2089.661     3108.926      780.183        2.096        0.299      189.090       26.912        0.020      347.018       25.681      862.951
07/25/2013  01:00:00     -157.451      -16.324      -18.322       60.727       37.927       31.504     3687.812     1438.457      992.490        1.575        0.306      158.295       27.505        0.030      347.036       25.713      862.974
07/25/2013  01:01:00     -195.642      -19.913      -14.106       75.986       30.171       29.278     5773.857      910.307      857.203        2.320        0.377      196.652       27.084        0.019      347.029       25.698      862.987
07/25/2013  01:02:00     -137.696      -74.784       -5.322       55.364       50.902       32.052     3065.117     2591.035     1027.351        1.563        0.334      156.693       29.683        0.036      347.185       25.971      863.002
07/25/2013  01:03:00     -127.718      -56.956       -4.630       50.234       36.470       23.302     2523.472     1330.046      542.999        1.199        0.220      139.842       21.419        0.023      347.076       25.783      863.018
07/25/2013  01:04:00      -82.523      -37.653       -2.856       48.085       37.656       28.426     2312.151     1418.009      808.017        0.639        0.227       90.707       23.120        0.065      347.101       25.828      863.036
07/25/2013  01:05:00      -49.712      -23.847        4.394       46.966       39.490       27.410     2205.838     1559.460      751.318        0.379        0.226       55.135       24.578        0.199      346.945       25.556      863.063
07/25/2013  01:06:00      -83.636       -5.355       -3.303       49.678       35.847       21.158     2467.906     1285.018      447.646        0.562        0.210       83.807       23.313        0.077      346.767       25.250      863.080
07/25/2013  01:07:00     -107.015      -18.481       -2.605       50.424       30.133       24.038     2542.600      907.969      577.832        0.791        0.201      108.599       27.365        0.063      346.691       25.121      863.077
07/25/2013  01:08:00      -81.748        6.650       -3.720       35.297       24.506       15.048     1245.874      600.567      226.443        0.441        0.104       82.018       15.530        0.036      346.667       25.078      863.071
07/25/2013  01:09:00     -121.611       15.774      -12.893       27.141       21.719       13.555      736.638      471.703      183.740        0.830        0.070      122.630        4.729        0.001      346.694       25.127      863.090
07/25/2013  01:10:00     -118.302      -15.863      -16.653       20.326       30.556       18.861      413.143      933.644      355.729        0.811        0.085      119.361       15.026        0.016      346.659       25.067      863.106
07/25/2013  01:11:00     -161.118       42.427      -10.499       31.380       21.712       11.643      984.721      471.425      135.555        1.473        0.080      166.610       10.834        0.004      346.655       25.058      863.105
07/25/2013  01:12:00     -116.038       38.198       -6.838       28.675       19.102       16.581      822.234      364.878      274.926        0.822        0.073      122.163       12.427        0.010      346.543       24.866      863.100
07/25/2013  01:13:00      -64.822       38.209      -13.014       28.598       33.992       16.418      817.872     1155.425      269.558        0.404        0.112       75.245       13.739        0.033      346.413       24.644      863.091
07/25/2013  01:14:00      -28.873       -6.249        1.421       19.787       20.600       15.073      391.526      424.353      227.202        0.096        0.052       29.542       12.704        0.185      346.521       24.829      863.067
07/25/2013  01:15:00      -17.951       -8.990        3.609       43.048       37.846       15.154     1853.090     1432.299      229.655        0.196        0.176       20.076       14.213        0.501      346.722       25.175      863.048
07/25/2013  01:16:00     -138.846      -69.589      -10.302       16.813       21.073       13.887      282.671      444.090      192.845        1.257        0.046      155.309        9.418        0.004      346.478       24.755      863.053
07/25/2013  01:17:00     -109.113      -13.699      -10.057       32.704       24.642       18.684     1069.563      607.218      349.099        0.711        0.101      109.970       13.678        0.015      346.413       24.642      863.063
07/25/2013  01:18:00     -140.963      -12.773       -2.295       42.149       38.019       21.296     1776.560     1445.467      453.520        1.186        0.184      141.541       21.125        0.022      346.247       24.355      863.077
07/25/2013  01:19:00      -69.672      -24.814       -2.316       28.275       20.093       20.126      799.469      403.718      405.050        0.354        0.080       73.959       14.041        0.036      346.234       24.336      863.074
07/25/2013  01:20:00      -88.417      -32.940       -9.949       26.485       13.506       15.268      701.432      182.404      233.121        0.506        0.056       94.354        9.027        0.009      346.226       24.320      863.078
07/25/2013  01:21:00      -86.720      -43.152       -6.896       38.104       23.362       16.974     1451.909      545.761      288.117        0.586        0.114       96.863       17.462        0.032      346.214       24.301      863.082
07/25/2013  01:22:00      -45.803       -0.224       -3.057       18.978       16.066       11.772      360.163      258.125      138.570        0.143        0.038       45.803       10.759        0.055      346.197       24.272      863.094
07/25/2013  01:23:00      -48.921       -4.336       -5.567       11.714       13.168       10.865      137.218      173.409      118.059        0.144        0.021       49.113        7.262        0.022      346.336       24.509      863.103
07/25/2013  01:24:00      -68.007        9.698       -5.684       49.276       24.184        8.676     2428.156      584.855       75.265        0.392        0.154       68.695       15.472        0.051      346.292       24.435      863.117
07/25/2013  01:25:00     -147.319        7.780       -4.218       58.931       53.217       23.449     3472.826     2832.019      549.844        1.432        0.343      147.525       20.561        0.019      346.024       23.974      863.140
07/25/2013  01:26:00      -98.869      -62.762      -12.207       39.523       32.511       18.842     1562.072     1056.977      355.005        0.842        0.149      117.107        9.364        0.006      346.056       24.030      863.125
07/25/2013  01:27:00      -31.538      -42.996        7.983       38.085       17.534       18.640     1450.440      307.444      347.436        0.251        0.105       53.322       18.648        0.122      346.077       24.064      863.131
07/25/2013  01:28:00      -32.811      -60.634       -3.796       25.923       17.261       12.889      672.015      297.932      166.125        0.295        0.057       68.942       10.281        0.022      346.175       24.231      863.126
07/25/2013  01:29:00      -34.831      -39.698        6.426       25.387       20.431       17.452      644.512      417.438      304.576        0.210        0.068       52.813       17.245        0.107      346.189       24.257      863.120
07/25/2013  01:30:00      -76.752      -61.734        2.634       44.735       32.987       19.756     2001.221     1088.122      390.299        0.659        0.174       98.498       13.902        0.020      346.163       24.212      863.122
07/25/2013  01:31:00      -94.543      -48.855        3.487       42.183       32.629       23.644     1779.422     1064.648      559.052        0.737        0.170      106.420       23.258        0.048      346.124       24.146      863.139
07/25/2013  01:32:00      -80.505      -37.799        4.639       42.948       31.137       20.716     1844.508      969.487      429.149        0.559        0.162       88.937       23.463        0.070      346.063       24.041      863.156
07/25/2013  01:33:00     -162.514      -30.986        1.051       31.769       26.230       20.931     1009.276      688.036      438.117        1.475        0.107      165.442       12.119        0.005      346.109       24.120      863.144
07/25/2013  01:34:00     -107.542      -49.323       -4.159       26.134       29.658       16.189      682.964      879.572      262.087        0.792        0.091      118.314        3.526        0.001      346.092       24.091      863.127
07/25/2013  01:35:00      -76.073      -38.279        8.965       38.814       31.740       18.292     1506.563     1007.430      334.592        0.509        0.142       85.161       15.357        0.033      346.018       23.964      863.128
07/25/2013  01:36:00     -126.577      -35.849       -3.592       45.856       26.721       21.653     2102.747      714.007      468.864        1.030        0.164      131.555       24.994        0.036      346.005       23.941      863.142
07/25/2013  01:37:00     -112.363      -57.543       -2.348       33.448       26.192       20.411     1118.737      686.021      416.609        0.908        0.111      126.240       19.633        0.024      345.987       23.911      863.156
07/25/2013  01:38:00     -148.966      -85.061        4.970       53.185       28.846       23.108     2828.669      832.106      533.986        1.682        0.210      171.541       26.461        0.024      345.939       23.829      863.161
07/25/2013  01:39:00      -97.081      -54.100        0.711       52.596       35.686       25.639     2766.356     1273.510      657.381        0.852        0.235      111.137       28.609        0.066      345.970       23.880      863.161
07/25/2013  01:40:00     -136.606      -28.813       -2.029       38.685       30.100       19.692     1496.494      905.995      387.770        1.114        0.140      139.611       17.029        0.015      345.970       23.883      863.167
07/25/2013  01:41:00      -96.292      -29.261        3.124       51.351       40.658       25.837     2636.922     1653.101      667.566        0.755        0.248      100.639       29.147        0.084      345.926       23.807      863.173
07/25/2013  01:42:00      -69.652      -40.254       -3.747       37.029       30.739       18.591     1371.151      944.913      345.623        0.457        0.133       80.448       18.040        0.050      345.948       23.844      863.170
07/25/2013  01:43:00      -84.581       -7.848       -3.272       27.765       19.423       15.191      770.878      377.238      230.775        0.430        0.069       84.945       13.501        0.025      345.930       23.814      863.167
07/25/2013  01:44:00     -101.411      -14.319      -11.266       38.096       33.737       19.678     1451.308     1138.194      387.214        0.680        0.149      102.417       21.312        0.043      345.951       23.849      863.163
07/25/2013  01:45:00     -144.666      -10.680      -15.057       20.062       25.790       19.355      402.491      665.109      374.619        1.136        0.072      145.059       11.599        0.006      345.999       23.930      863.175
07/25/2013  01:46:00     -147.352      -13.138      -15.213       15.921       23.710       14.618      253.477      562.156      213.675        1.157        0.051      147.936        4.495        0.001      345.945       23.838      863.179
07/25/2013  01:47:00     -119.137      -71.510       -0.789       30.302       25.187       21.581      918.206      634.389      465.761        1.066        0.101      138.950       18.839        0.018      346.007       23.945      863.190
07/25/2013  01:48:00      -97.963      -74.743       -4.925       30.957       23.549       18.123      958.325      554.575      328.461        0.852        0.092      123.220       14.917        0.015      346.030       23.984      863.191
07/25/2013  01:49:00      -85.115      -56.967       -2.770       32.043       20.874       11.927     1026.781      435.708      142.246        0.605        0.080      102.419       12.537        0.015      346.084       24.076      863.181
07/25/2013  01:50:00      -66.289      -41.338       -1.334       27.095       23.759       17.000      734.125      564.512      289.014        0.385        0.079       78.122       16.907        0.047      346.135       24.165      863.172
07/25/2013  01:51:00      -71.881      -45.890       -4.028       22.072       21.342       14.141      487.151      455.493      199.963        0.422        0.057       85.281       12.835        0.023      346.243       24.350      863.170
07/25/2013  01:52:00      -77.698      -18.127       -3.834       24.423       23.160       11.864      596.461      536.365      140.747        0.383        0.064       79.784       10.246        0.016      346.068       24.050      863.170
07/25/2013  01:53:00     -117.886       -6.004       -9.078       32.210       19.600       11.033     1037.466      384.142      121.727        0.778        0.077      118.039       12.680        0.012      345.927       23.808      863.176
07/25/2013  01:54:00     -118.469       19.457      -10.161       30.549       23.611       16.131      933.254      557.478      260.222        0.813        0.088      120.056       13.090        0.012      345.901       23.764      863.194
07/25/2013  01:55:00      -80.637       12.879       -1.890       21.745       21.057       17.453      472.851      443.384      304.611        0.395        0.061       81.659       10.462        0.016      345.914       23.786      863.208
07/25/2013  01:56:00      -79.514       15.236        4.111       25.478       24.728       17.310      649.115      611.463      299.653        0.407        0.078       80.961       11.973        0.022      346.051       24.018      863.213
07/25/2013  01:57:00      -72.247      -15.735       -8.380       15.084       25.725       10.291      227.528      661.778      105.909        0.327        0.050       73.940        6.168        0.007      346.027       23.979      863.215
07/25/2013  01:58:00      -77.889      -17.287       -1.152       14.106       22.326        7.964      198.992      498.456       63.429        0.356        0.038       79.784        7.341        0.008      346.019       23.965      863.226
07/25/2013  01:59:00      -45.484        4.980       -3.363       15.228        8.833        7.652      231.879       78.021       58.557        0.124        0.018       45.756        4.846        0.011      346.045       24.011      863.221
07/25/2013  02:00:00      -66.195      -10.460       -5.115       16.525       18.407        7.124      273.070      338.827       50.751        0.259        0.033       67.017        5.965        0.008      345.998       23.931      863.220
07/25/2013  02:01:00      -94.117        2.070      -11.456       13.804       13.919       10.544      190.546      193.735      111.181        0.474        0.025       94.140        7.622        0.007      345.966       23.875      863.221
07/25/2013  02:02:00      -86.852       16.770       -6.575       21.836       14.319        9.373      476.822      205.030       87.855        0.432        0.038       88.456        6.488        0.005      345.924       23.801      863.225
07/25/2013  02:03:00      -83.167       15.850      -11.285       27.842       19.020       14.340      775.167      361.758      205.634        0.432        0.067       84.664       13.573        0.026      345.921       23.798      863.232
07/25/2013  02:04:00      -84.292       25.588      -10.127       25.534       17.856       15.594      652.005      318.833      243.169        0.454        0.061       88.090       14.200        0.026      346.020       23.968      863.219
07/25/2013  02:05:00      -85.393        8.555      -10.809       26.976       23.625       15.442      727.679      558.134      238.469        0.450        0.076       85.821       12.144        0.020      345.922       23.799      863.211
07/25/2013  02:06:00      -82.789      -21.173      -12.251       30.739       16.246       17.132      944.875      263.933      293.514        0.448        0.075       85.453       19.645        0.053      345.768       23.534      863.204
07/25/2013  02:07:00      -93.692      -28.923       -5.665       26.241       23.678       13.614      688.610      560.633      185.353        0.554        0.072       98.055       10.134        0.011      345.654       23.337      863.203
07/25/2013  02:08:00      -84.316        6.875       -6.246       49.611       29.635       21.651     2461.226      878.257      468.744        0.550        0.190       84.596       24.946        0.087      345.685       23.392      863.191
07/25/2013  02:09:00     -136.702       19.453      -19.231       36.093       23.998       21.435     1302.679      575.925      459.466        1.089        0.117      138.079       19.972        0.021      345.718       23.446      863.181
07/25/2013  02:10:00     -124.958       28.745      -18.214       36.410       30.537       21.155     1325.677      932.498      447.514        0.974        0.135      128.222       22.255        0.030      345.739       23.486      863.171
07/25/2013  02:11:00     -122.832       30.603      -13.311       43.375       30.589       21.343     1881.405      935.662      455.538        0.974        0.164      126.587       15.359        0.015      345.605       23.253      863.155
07/25/2013  02:12:00     -137.547        7.138       -8.626       46.709       33.442       23.950     2181.752     1118.372      573.611        1.146        0.194      137.732       24.606        0.032      345.492       23.061      863.145
07/25/2013  02:13:00     -134.445      -21.002      -11.464       36.159       34.968       25.699     1307.441     1222.743      660.444        1.092        0.160      136.076       20.709        0.023      345.472       23.027      863.140
07/25/2013  02:14:00     -130.644      -31.706      -13.908       35.833       34.947       19.946     1283.987     1221.263      397.859        1.058        0.145      134.436       14.197        0.011      345.390       22.886      863.139
07/25/2013  02:15:00     -103.273       29.705      -11.741       32.952       30.169       16.837     1085.860      910.194      283.485        0.698        0.114      107.460       12.860        0.014      345.393       22.891      863.142
07/25/2013  02:16:00      -95.409        8.611       -8.702       34.511       24.878       17.444     1191.043      618.917      304.284        0.568        0.106       95.797       17.871        0.035      345.397       22.897      863.135
07/25/2013  02:17:00      -69.957       25.159      -11.792       21.446       25.545       16.718      459.914      652.530      279.496        0.353        0.070       74.344       15.294        0.042      345.454       22.996      863.137
07/25/2013  02:18:00      -94.588       25.139      -13.719       32.001       22.873       12.839     1024.061      523.193      164.850        0.574        0.086       97.872       10.157        0.011      345.422       22.941      863.150
07/25/2013  02:19:00     -153.947       13.208      -12.917       45.681       35.138       24.797     2086.708     1234.678      614.909        1.399        0.197      154.512       22.261        0.021      345.318       22.762      863.159
07/25/2013  02:20:00     -138.202       41.935      -11.087       35.092       21.599       19.527     1231.423      466.509      381.307        1.153        0.104      144.425       14.756        0.010      345.206       22.573      863.174
07/25/2013  02:21:00     -121.633       20.990      -17.379       39.423       26.567       19.625     1554.150      705.820      385.159        0.909        0.132      123.430       14.774        0.014      345.255       22.655      863.184
07/25/2013  02:22:00     -109.390        2.715      -10.905       54.490       34.685       17.251     2969.136     1203.058      297.593        0.828        0.223      109.424       20.977        0.037      345.241       22.631      863.191
07/25/2013  02:23:00      -39.649        0.255       -8.292       27.484       23.160       15.602      755.375      536.371      243.434        0.159        0.077       39.650        9.853        0.062      345.225       22.602      863.185
07/25/2013  02:24:00      -59.230        8.695       -6.172       25.945       25.311       20.410      673.141      640.649      416.565        0.268        0.087       59.865       12.862        0.046      345.276       22.690      863.189
07/25/2013  02:25:00     -103.101       20.546      -11.255       22.913       18.504       15.111      525.027      342.395      228.339        0.614        0.055      105.129       10.920        0.011      345.258       22.659      863.196
07/25/2013  02:26:00     -100.049       -9.634      -15.091       30.654       23.752       17.186      939.639      564.169      295.375        0.606        0.090      100.512       16.630        0.027      345.269       22.677      863.194
07/25/2013  02:27:00      -92.386      -26.683      -18.883       35.369       29.183       16.251     1250.992      851.666      264.081        0.598        0.118       96.162       15.449        0.026      345.180       22.526      863.195
07/25/2013  02:28:00      -96.218      -41.510       -1.848       52.240       37.852       17.661     2728.966     1432.762      311.894        0.773        0.224      104.790       17.372        0.027      345.112       22.411      863.200
07/25/2013  02:29:00      -85.920      -13.137       -2.474       41.565       31.519       18.983     1727.647      993.422      360.354        0.532        0.154       86.918       16.607        0.037      345.148       22.471      863.199
07/25/2013  02:30:00      -88.409      -16.243       -1.076       37.960       25.038       18.945     1440.971      626.886      358.907        0.525        0.121       89.889       18.389        0.042      345.104       22.397      863.205
07/25/2013  02:31:00     -111.458      -35.387       -6.102       24.396       16.145       13.941      595.174      260.653      194.359        0.738        0.053      116.941        9.861        0.007      345.135       22.448      863.198
07/25/2013  02:32:00     -122.685      -46.830      -10.076       25.435       19.105       15.465      646.915      365.000      239.155        0.930        0.063      131.319        6.647        0.003      345.168       22.507      863.197
07/25/2013  02:33:00     -106.306      -60.055       -9.850       29.515       16.834       16.663      871.117      283.397      277.663        0.822        0.072      122.096        9.983        0.007      345.141       22.459      863.202
07/25/2013  02:34:00     -122.441      -33.060       -9.898       20.258       23.073       16.336      410.405      532.364      266.867        0.870        0.060      126.826        9.739        0.006      345.181       22.526      863.201
07/25/2013  02:35:00     -107.451      -28.342       -8.539       31.954       23.967       17.903     1021.037      574.434      320.509        0.717        0.096      111.126       19.601        0.031      345.163       22.496      863.191
07/25/2013  02:36:00     -126.508       -6.012       -7.974       39.995       25.020       21.536     1599.639      626.009      463.814        0.940        0.134      126.651       21.183        0.028      345.085       22.365      863.198
07/25/2013  02:37:00     -121.674       -9.440       -7.484       45.366       23.898       22.090     2058.048      571.104      487.955        0.903        0.156      122.039       24.415        0.040      345.012       22.240      863.201
07/25/2013  02:38:00     -111.278        5.923       -3.585       50.088       31.494       24.434     2508.808      991.880      597.040        0.826        0.205      111.435       24.183        0.047      344.967       22.161      863.199
07/25/2013  02:39:00     -175.545       35.800      -11.807       25.845       23.511       17.836      667.948      552.746      318.131        1.689        0.077      179.158       10.598        0.003      345.056       22.315      863.216
07/25/2013  02:40:00     -107.653      -16.415       -8.647       44.781       39.756       16.787     2005.314     1580.540      281.793        0.790        0.193      108.897       14.992        0.019      345.007       22.229      863.227
07/25/2013  02:41:00     -137.642        3.186      -10.410       34.320       27.954       23.372     1177.870      781.452      546.253        1.078        0.125      137.679       21.130        0.024      344.928       22.096      863.236
07/25/2013  02:42:00     -142.154       12.543       -8.990       43.632       36.784       21.149     1903.737     1353.045      447.292        1.207        0.185      142.706       22.173        0.024      344.976       22.176      863.244
07/25/2013  02:43:00     -108.417       -7.880       -5.756       45.354       26.126       19.921     2057.027      682.582      396.849        0.749        0.157      108.703       19.944        0.034      344.924       22.088      863.239
07/25/2013  02:44:00     -128.898      -13.926       -4.670       32.231       24.404       19.472     1038.831      595.567      379.158        0.942        0.101      129.648       17.256        0.018      344.954       22.141      863.243
07/25/2013  02:45:00     -123.722      -59.827      -12.968       19.453       18.032       13.540      378.401      325.150      183.342        0.997        0.044      137.428        9.935        0.005      344.958       22.147      863.245
07/25/2013  02:46:00      -91.528      -46.675       -0.088       31.892       22.958       16.927     1017.122      527.072      286.522        0.619        0.092      102.742       18.485        0.032      344.946       22.127      863.245
07/25/2013  02:47:00      -89.872      -42.006       -2.943       19.113       17.541       13.595      365.319      307.703      184.827        0.535        0.043       99.204       10.567        0.011      345.000       22.216      863.229
07/25/2013  02:48:00     -104.152      -55.523       -4.255       21.250       20.978       18.099      451.563      440.062      327.561        0.758        0.061      118.027       15.158        0.016      344.994       22.210      863.233
07/25/2013  02:49:00     -106.662      -41.194       -1.279       29.572       29.358       17.281      874.484      861.905      298.644        0.755        0.102      114.340       14.464        0.016      344.978       22.181      863.238
07/25/2013  02:50:00     -137.836      -32.124      -11.385       23.783       33.006       17.220      565.633     1089.380      296.531        1.106        0.098      141.530       14.783        0.011      344.958       22.149      863.243
07/25/2013  02:51:00     -107.223       -1.994       -8.736       22.293       13.728       13.065      496.997      188.455      170.684        0.622        0.043      107.242       11.796        0.012      344.915       22.072      863.234
07/25/2013  02:52:00      -74.239        1.891       -9.693       18.234       17.293       12.536      332.474      299.034      157.146        0.320        0.039       74.263        4.170        0.003      344.898       22.045      863.238
07/25/2013  02:53:00      -70.261      -18.863       -6.571       21.051       18.840       10.774      443.156      354.961      116.076        0.312        0.046       72.749        8.202        0.013      344.987       22.197      863.235
07/25/2013  02:54:00      -90.639      -60.009       -4.406       19.247       25.093       12.206      370.432      629.661      148.992        0.649        0.057      108.704        5.621        0.003      345.026       22.264      863.241
07/25/2013  02:55:00      -81.668      -44.565       -2.975       48.903       30.269       22.246     2391.478      916.223      494.889        0.623        0.190       93.037       28.719        0.095      344.962       22.153      863.249
07/25/2013  02:56:00      -95.226       -4.676        0.076       39.375       25.902       22.833     1550.410      670.900      521.342        0.592        0.137       95.341       17.330        0.033      344.833       21.931      863.247
07/25/2013  02:57:00     -113.751      -11.775       -4.452       42.481       35.987       21.955     1804.612     1295.079      482.010        0.834        0.179      114.359       19.807        0.030      344.851       21.962      863.240
07/25/2013  02:58:00     -120.731      -45.572       -0.348       34.085       28.704       19.578     1161.799      823.913      383.313        0.951        0.118      129.046       19.502        0.023      344.840       21.946      863.241
07/25/2013  02:59:00      -83.693      -34.296        4.779       33.238       26.035       19.356     1104.795      677.809      374.645        0.518        0.108       90.447       17.036        0.035      344.791       21.861      863.258
07/25/2013  03:00:00      -52.418      -34.010        1.262       39.829       24.589       19.840     1586.314      604.616      393.643        0.324        0.129       62.484       19.166        0.094      344.841       21.947      863.258
07/25/2013  03:01:00      -74.926      -63.406       -1.152       45.213       34.100       21.921     2044.220     1162.776      480.551        0.666        0.184       98.154       22.830        0.054      344.852       21.964      863.252
07/25/2013  03:02:00      -70.828      -45.558        1.586       28.397       24.718       20.183      806.397      610.976      407.340        0.446        0.091       84.215       17.442        0.043      344.825       21.919      863.259
07/25/2013  03:03:00      -94.587      -23.452      -14.797       25.844       21.832       10.761      667.931      476.648      115.802        0.549        0.063       97.451       10.698        0.012      344.865       21.987      863.258
07/25/2013  03:04:00      -87.468      -41.028       -1.845       28.977       23.170       16.506      839.667      536.849      272.444        0.549        0.082       96.612       12.035        0.016      344.872       21.999      863.259
07/25/2013  03:05:00      -66.952      -52.749        3.195       35.688       32.322       19.571     1273.625     1044.736      383.029        0.499        0.135       85.235       17.801        0.044      344.895       22.038      863.261
07/25/2013  03:06:00      -60.210      -54.075        6.348       42.722       30.906       25.143     1825.176      955.165      632.187        0.500        0.171       80.928       26.406        0.106      344.982       22.188      863.269
07/25/2013  03:07:00      -87.111      -84.104       -6.674       48.069       30.820       29.326     2310.610      949.868      860.017        0.941        0.206      121.086       30.553        0.064      345.046       22.297      863.256
07/25/2013  03:08:00      -86.898      -61.887       -9.053       29.594       33.508       18.606      875.813     1122.755      346.201        0.690        0.117      106.683       10.506        0.010      345.144       22.465      863.235
07/25/2013  03:09:00      -69.615      -55.350        2.889       46.339       32.061       24.554     2147.266     1027.937      602.890        0.585        0.189       88.938       17.061        0.037      345.141       22.458      863.222
07/25/2013  03:10:00      -59.841      -44.337        7.579       60.345       32.082       21.146     3641.535     1029.226      447.163        0.536        0.256       74.476       25.277        0.115      345.139       22.454      863.217
07/25/2013  03:11:00     -103.160      -62.133       -0.408       37.667       33.232       19.245     1418.835     1104.339      370.385        0.870        0.145      120.427       19.137        0.025      345.096       22.384      863.201
07/25/2013  03:12:00     -122.096      -41.422       -2.584       35.173       25.044       21.134     1237.147      627.214      446.655        0.947        0.116      128.931       19.843        0.024      345.057       22.316      863.187
07/25/2013  03:13:00     -119.643      -19.454       -6.731       29.664       26.160       16.856      879.960      684.354      284.134        0.829        0.092      121.214       13.600        0.013      344.971       22.169      863.178
07/25/2013  03:14:00     -108.059      -19.805        3.006       34.153       25.947       19.244     1166.425      673.260      370.314        0.714        0.110      109.859       15.191        0.019      344.951       22.135      863.192
07/25/2013  03:15:00     -129.512      -29.962      -12.089       26.554       22.442       17.981      705.130      503.659      323.307        0.967        0.077      132.933       12.908        0.009      344.936       22.109      863.191
07/25/2013  03:16:00      -86.682      -17.093        2.464       34.662       23.858       16.178     1201.471      569.223      261.732        0.492        0.102       88.351       15.970        0.033      344.892       22.033      863.208
07/25/2013  03:17:00      -81.020      -34.984       -0.012       34.072       27.441       16.344     1160.921      753.011      267.132        0.498        0.109       88.251       15.648        0.031      344.886       22.023      863.225
07/25/2013  03:18:00     -104.170       -9.826       -1.131       28.254       20.881       20.520      798.273      436.030      421.089        0.630        0.083      104.632       18.235        0.030      344.838       21.941      863.254
07/25/2013  03:19:00     -128.089       -1.895       -5.076       40.981       23.391       19.714     1679.464      547.154      388.647        0.953        0.131      128.103       20.208        0.025      344.888       22.027      863.264
07/25/2013  03:20:00     -117.198      -28.517       -0.488       41.162       23.857       16.210     1694.339      569.169      262.757        0.854        0.126      120.618       18.038        0.022      344.981       22.188      863.267
07/25/2013  03:21:00      -96.471      -31.482       -2.204       46.847       28.498       21.137     2194.613      812.136      446.789        0.688        0.173      101.478       23.784        0.055      344.937       22.112      863.268
07/25/2013  03:22:00     -110.347      -44.359       -0.986       43.500       28.400       18.126     1892.231      806.564      328.543        0.859        0.151      118.929       20.892        0.031      344.953       22.136      863.256
07/25/2013  03:23:00     -120.832      -54.507       -2.158       30.611       28.236       19.587      937.047      797.298      383.641        0.985        0.106      132.557       18.782        0.020      344.919       22.079      863.255
07/25/2013  03:24:00      -84.626      -47.352        5.766       49.155       23.829       22.475     2416.179      567.806      505.135        0.646        0.174       96.973       26.336        0.074      344.974       22.175      863.251
07/25/2013  03:25:00      -87.767      -61.687       -0.649       30.898       35.005       20.443      954.664     1225.315      417.929        0.705        0.130      107.277       16.574        0.024      344.966       22.160      863.237
07/25/2013  03:26:00      -85.530      -52.863       -1.259       29.793       31.280       18.335      887.603      978.439      336.188        0.616        0.110      100.548       18.994        0.036      344.890       22.029      863.238
07/25/2013  03:27:00      -96.294      -27.370       -4.618       31.340       19.146       18.541      982.212      366.579      343.752        0.587        0.085      100.108       20.612        0.042      344.824       21.915      863.233
07/25/2013  03:28:00      -67.164      -13.619       -1.746       41.333       24.517       19.098     1708.441      601.104      364.739        0.369        0.134       68.531       22.300        0.106      344.700       21.705      863.234
07/25/2013  03:29:00      -68.471      -22.795       -3.470       24.953       21.729       15.858      622.634      472.156      251.491        0.328        0.067       72.166       13.613        0.036      344.742       21.776      863.237
07/25/2013  03:30:00      -85.366      -38.532       -1.620       24.809       19.398       15.142      615.470      376.287      229.291        0.500        0.061       93.659       13.902        0.022      344.782       21.844      863.238
07/25/2013  03:31:00      -77.596      -41.156       -9.555       24.697       27.142       16.655      609.955      736.667      277.382        0.471        0.081       87.835       13.785        0.025      344.785       21.849      863.233
07/25/2013  03:32:00     -113.918      -42.009       -4.441       33.373       24.705       17.852     1113.762      610.359      318.688        0.840        0.102      121.417       13.154        0.012      344.707       21.716      863.242
07/25/2013  03:33:00      -95.924      -54.497        0.509       28.309       20.611       12.048      801.418      424.806      145.164        0.677        0.069      110.324       10.792        0.010      344.725       21.747      863.247
07/25/2013  03:34:00      -84.589      -40.535       -0.515       27.666       25.360       15.676      765.405      643.127      245.745        0.523        0.083       93.800       10.103        0.012      344.850       21.961      863.240
07/25/2013  03:35:00      -27.825      -29.666       10.231       37.473       18.385       15.112     1404.195      337.998      228.371        0.186        0.099       40.673       17.599        0.187      344.860       21.978      863.236
07/25/2013  03:36:00      -27.694      -31.412        1.985       25.726       16.202       14.876      661.831      262.517      221.281        0.145        0.057       41.876        6.701        0.026      344.899       22.046      863.235
07/25/2013  03:37:00      -37.679      -36.887       -1.350       31.284       18.429       17.007      978.710      339.644      289.246        0.219        0.080       52.729       11.535        0.048      344.918       22.078      863.249
07/25/2013  03:38:00      -36.462      -61.940        8.878       37.105       26.622       22.276     1376.783      708.756      496.231        0.391        0.129       71.875       23.023        0.103      344.885       22.022      863.262
07/25/2013  03:39:00      -25.365      -51.311       12.913       40.608       29.115       25.793     1649.034      847.689      665.282        0.330        0.158       57.238       22.765        0.158      344.862       21.982      863.263
07/25/2013  03:40:00      -48.637      -78.107        8.334       43.932       30.045       24.757     1930.047      902.699      612.891        0.599        0.172       92.013       25.301        0.076      344.825       21.918      863.247
07/25/2013  03:41:00      -73.991      -56.677        4.842       45.154       30.391       24.136     2038.867      923.615      582.542        0.613        0.177       93.203       20.417        0.048      344.729       21.754      863.240
07/25/2013  03:42:00      -97.577      -48.241       -0.716       36.288       32.608       18.758     1316.805     1063.305      351.848        0.729        0.137      108.851       16.820        0.024      344.722       21.742      863.245
07/25/2013  03:43:00     -118.951      -19.593       -2.181       36.080       27.529       19.370     1301.748      757.871      375.194        0.849        0.122      120.554       17.978        0.022      344.631       21.587      863.253
07/25/2013  03:44:00     -110.525      -29.714        5.281       37.677       32.294       19.458     1419.577     1042.889      378.608        0.798        0.142      114.450       20.445        0.032      344.616       21.561      863.254
07/25/2013  03:45:00     -109.249      -28.441        5.393       49.194       35.357       20.118     2420.081     1250.096      404.724        0.842        0.204      112.890       19.301        0.029      344.678       21.667      863.253
07/25/2013  03:46:00      -92.161      -30.891        4.845       46.718       32.254       20.572     2182.617     1040.339      423.208        0.656        0.182       97.200       23.840        0.060      344.583       21.506      863.256
07/25/2013  03:47:00     -136.145      -65.333       -4.740       27.096       28.502       18.151      734.199      812.384      329.467        1.235        0.094      151.009       17.451        0.013      344.638       21.598      863.271
07/25/2013  03:48:00     -137.835      -70.871       -2.992       25.539       27.573       19.912      652.261      760.293      396.484        1.292        0.090      154.988       14.539        0.009      344.616       21.562      863.273
07/25/2013  03:49:00     -128.436      -66.147        2.529       42.033       34.267       24.768     1766.771     1174.201      613.445        1.222        0.178      144.469       23.479        0.026      344.603       21.540      863.281
07/25/2013  03:50:00     -109.080      -75.650        3.169       44.680       27.867       21.918     1996.318      776.562      480.407        1.044        0.163      132.746       21.342        0.026      344.611       21.551      863.287
07/25/2013  03:51:00     -117.226      -60.577        1.380       33.421       24.678       18.216     1116.988      609.009      331.825        0.974        0.103      131.953       17.663        0.018      344.627       21.579      863.290
07/25/2013  03:52:00      -84.346      -65.900       -2.617       41.205       28.682       16.823     1697.883      822.668      283.009        0.713        0.140      107.038       17.472        0.027      344.657       21.632      863.299
07/25/2013  03:53:00      -92.318      -63.192        7.417       36.697       28.994       21.223     1346.673      840.639      450.397        0.760        0.132      111.874       19.616        0.031      344.743       21.779      863.314
07/25/2013  03:54:00      -67.783      -48.188        3.241       49.230       23.677       20.707     2423.585      560.593      428.791        0.517        0.171       83.166       25.894        0.097      344.776       21.836      863.324
07/25/2013  03:55:00      -61.874      -57.650        6.779       41.932       26.260       21.593     1758.311      689.602      466.265        0.506        0.146       84.569       23.588        0.078      344.788       21.855      863.329
07/25/2013  03:56:00      -56.753      -39.599        5.990       40.900       24.526       18.407     1672.788      601.541      338.805        0.372        0.131       69.203       22.340        0.104      344.769       21.823      863.331
07/25/2013  03:57:00      -59.646      -45.200        4.518       34.966       25.406       20.290     1222.633      645.452      411.702        0.395        0.114       74.838       19.937        0.071      344.727       21.751      863.335
07/25/2013  03:58:00     -101.483      -26.699       -2.492       12.979       27.166       12.113      168.458      737.994      146.721        0.604        0.053      104.937        9.102        0.008      344.672       21.657      863.343
07/25/2013  03:59:00      -79.063      -15.167       -1.238       22.574       21.144       14.490      509.589      447.083      209.962        0.382        0.058       80.505        7.417        0.008      344.543       21.436      863.356
07/25/2013  04:00:00      -68.885      -25.850       -0.408       25.228       23.619       14.426      636.443      557.861      208.109        0.341        0.070       73.576       12.738        0.030      344.522       21.401      863.366
07/25/2013  04:01:00      -67.700      -15.893        1.947       27.195       20.753       11.443      739.579      430.700      130.935        0.307        0.065       69.540        7.677        0.012      344.471       21.314      863.372
07/25/2013  04:02:00      -96.231      -11.872       -0.363       32.606       22.998       14.769     1063.150      528.903      218.115        0.561        0.091       96.961       13.803        0.020      344.440       21.260      863.375
07/25/2013  04:03:00     -132.903       -8.700      -10.291       19.488       16.505       11.018      379.786      272.403      121.396        0.931        0.039      133.188        7.975        0.004      344.487       21.341      863.380
07/25/2013  04:04:00     -132.695        7.087      -10.426       25.451       22.637       15.923      647.741      512.421      253.551        0.959        0.071      132.885       14.969        0.013      344.495       21.354      863.400
07/25/2013  04:05:00      -89.128       -9.320       -1.075       51.376       23.555       17.241     2639.473      554.819      297.248        0.576        0.175       89.614       24.104        0.072      344.509       21.378      863.404
07/25/2013  04:06:00      -95.731      -23.136       -2.639       22.469       17.814       13.096      504.845      317.331      171.499        0.535        0.050       98.487       11.176        0.013      344.574       21.489      863.407
07/25/2013  04:07:00      -61.889       -6.794        3.486       33.012       26.736       20.023     1089.809      714.817      400.915        0.305        0.110       62.261       16.602        0.071      344.483       21.334      863.412
07/25/2013  04:08:00      -72.769      -33.239       -5.108       27.568       21.497       16.238      760.002      462.106      263.684        0.396        0.074       80.001       15.095        0.036      344.465       21.303      863.417
07/25/2013  04:09:00     -110.254      -23.935      -11.399       19.181       17.797       13.189      367.924      316.735      173.938        0.686        0.043      112.822       12.093        0.011      344.400       21.191      863.421
07/25/2013  04:10:00      -84.578      -10.412       -6.198       27.097       18.467       15.094      734.233      341.037      227.834        0.430        0.065       85.217       10.532        0.015      344.304       21.029      863.423
07/25/2013  04:11:00     -100.910      -23.797       -7.385       14.157       10.853       10.271      200.415      117.786      105.486        0.561        0.021      103.678        8.532        0.007      344.350       21.106      863.432
07/25/2013  04:12:00     -109.400       -4.668      -10.637       23.594       17.397       13.910      556.685      302.665      193.489        0.658        0.053      109.499       10.368        0.009      344.301       21.023      863.438
07/25/2013  04:13:00     -107.917       -9.268       -5.777       36.164       19.900       18.819     1307.808      396.006      354.148        0.691        0.103      108.314       19.970        0.034      344.255       20.943      863.430
07/25/2013  04:14:00     -119.158        3.642      -10.346       20.214       12.469       12.620      408.620      155.483      159.263        0.752        0.036      119.213       12.165        0.010      344.244       20.925      863.431
07/25/2013  04:15:00      -85.263      -32.957       -8.363       16.382       17.338       10.514      268.386      300.613      110.542        0.455        0.034       91.411        7.430        0.007      344.241       20.920      863.442
07/25/2013  04:16:00      -64.763      -38.470      -10.249       12.535       19.474        8.731      157.133      379.243       76.222        0.320        0.031       75.327        5.642        0.006      344.264       20.960      863.459
07/25/2013  04:17:00      -71.942      -24.653       -6.542       10.618       14.556        9.962      112.734      211.886       99.245        0.312        0.021       76.049        5.149        0.005      344.220       20.884      863.468
07/25/2013  04:18:00     -100.986      -35.874       -6.275       18.756       16.383       11.225      351.799      268.402      125.998        0.614        0.037      107.169       10.182        0.009      344.250       20.934      863.471
07/25/2013  04:19:00      -94.656      -42.600       -9.546       11.937       19.933        9.136      142.503      397.320       83.465        0.574        0.031      103.800        6.330        0.004      344.300       21.023      863.468
07/25/2013  04:20:00      -86.494      -45.954       -2.281       21.005       19.683       13.547      441.203      387.429      183.529        0.530        0.051       97.944       10.166        0.011      344.302       21.023      863.472
07/25/2013  04:21:00      -86.912      -37.441       -1.032       36.982       23.929       20.881     1367.645      572.621      436.011        0.567        0.119       94.634       19.970        0.045      344.293       21.008      863.483
07/25/2013  04:22:00      -73.002      -20.928        2.884       33.287       23.024       16.407     1108.018      530.108      269.182        0.384        0.095       75.942       17.941        0.056      344.252       20.937      863.484
07/25/2013  04:23:00     -108.732      -50.222       -4.029       28.724       23.989       12.867      825.052      575.479      165.558        0.796        0.078      119.770       12.561        0.011      344.283       20.993      863.477
07/25/2013  04:24:00     -103.002      -47.857        1.128       44.413       28.155       19.545     1972.496      792.725      382.023        0.802        0.157      113.577       20.073        0.031      344.205       20.859      863.473
07/25/2013  04:25:00      -99.607      -57.129       -2.142       40.478       28.179       20.742     1638.461      794.068      430.210        0.803        0.143      114.827       20.346        0.031      344.127       20.725      863.479
07/25/2013  04:26:00     -101.322      -52.111       -3.088       33.038       22.713       19.028     1091.504      515.880      362.050        0.748        0.098      113.937       17.315        0.023      344.111       20.699      863.490
07/25/2013  04:27:00     -127.509      -37.262      -11.546       20.022       19.466       15.171      400.881      378.941      230.148        0.939        0.050      132.842       13.464        0.010      344.011       20.527      863.492
07/25/2013  04:28:00     -102.429      -44.071      -13.375       16.571       16.094       11.760      274.589      259.005      138.308        0.664        0.034      111.508        6.590        0.003      344.039       20.576      863.490
07/25/2013  04:29:00      -87.127      -35.790       -6.762       23.705       26.127       12.944      561.923      682.625      167.546        0.516        0.071       94.192        9.533        0.010      344.029       20.557      863.499
07/25/2013  04:30:00      -88.174      -21.805      -14.394       12.083       11.241        9.220      145.989      126.357       85.004        0.441        0.018       90.830        3.710        0.002      343.983       20.479      863.520
07/25/2013  04:31:00      -40.016      -40.334        1.692       21.873       16.183       15.965      478.437      261.899      254.872        0.211        0.050       56.817        9.375        0.027      344.048       20.590      863.531
07/25/2013  04:32:00      -44.814      -23.935        2.536       22.674       31.748       17.287      514.089     1007.918      298.839        0.220        0.091       50.805       10.166        0.040      344.056       20.606      863.542
07/25/2013  04:33:00      -61.490      -11.199       -2.537       20.483       16.349       15.880      419.550      267.293      252.180        0.243        0.047       62.501       13.503        0.047      344.045       20.587      863.536
07/25/2013  04:34:00      -70.598      -18.290      -13.476       22.019       15.515       10.990      484.827      240.730      120.783        0.317        0.042       72.928        6.955        0.009      344.054       20.600      863.547
07/25/2013  04:35:00      -63.821       -5.947      -15.666       25.020       22.259       17.901      626.019      495.484      320.444        0.290        0.072       64.098       11.479        0.032      344.039       20.575      863.548
07/25/2013  04:36:00      -59.097       25.972      -16.431       33.700       35.673       17.201     1135.701     1272.569      295.859        0.357        0.135       64.552       18.445        0.082      344.180       20.815      863.553
07/25/2013  04:37:00      -55.590       11.900       -9.162       25.399       20.573       13.800      645.088      423.266      190.453        0.229        0.063       56.850       11.294        0.039      344.175       20.807      863.552
07/25/2013  04:38:00      -45.705       -8.184       -6.766       22.857       18.459       15.341      522.432      340.742      235.356        0.165        0.055       46.432       12.269        0.070      344.170       20.798      863.558
07/25/2013  04:39:00      -31.981      -19.812      -10.291       30.106       12.879       13.813      906.398      165.860      190.793        0.139        0.063       37.620       11.300        0.090      344.240       20.917      863.558
07/25/2013  04:40:00      -53.757      -35.950       -7.486       32.584       19.116       19.126     1061.712      365.428      365.800        0.302        0.090       64.670        9.562        0.022      344.177       20.812      863.542
07/25/2013  04:41:00      -32.035      -29.595        3.714       25.030       19.994       17.828      626.523      399.746      317.845        0.163        0.067       43.613       14.861        0.116      344.112       20.700      863.545
07/25/2013  04:42:00      -80.712      -31.058      -12.127       20.709       13.179        9.615      428.859      173.692       92.449        0.416        0.035       86.482        7.246        0.007      344.018       20.539      863.549
07/25/2013  04:43:00      -84.532      -42.736      -12.887       14.981       13.972        8.773      224.418      195.205       76.966        0.482        0.025       94.721        4.461        0.002      344.017       20.537      863.550
07/25/2013  04:44:00      -79.771      -47.907       -6.646       13.388       14.425        8.544      179.234      208.090       72.994        0.458        0.023       93.050        7.695        0.007      344.008       20.522      863.549
07/25/2013  04:45:00      -80.172      -42.020       -5.956       32.353       13.447       12.701     1046.738      180.832      161.304        0.481        0.069       90.517       15.098        0.028      343.994       20.498      863.544
07/25/2013  04:46:00      -84.596      -44.881       -6.556       16.102       15.384        8.540      259.268      236.678       72.932        0.489        0.028       95.764        8.431        0.008      344.020       20.543      863.537
07/25/2013  04:47:00      -84.992      -32.741       -3.578       14.713       13.345        9.146      216.470      178.085       83.653        0.439        0.024       91.080        4.716        0.003      344.141       20.748      863.535
07/25/2013  04:48:00      -79.631      -24.711       -3.326       10.655       10.105        8.129      113.521      102.116       66.089        0.362        0.014       83.377        5.278        0.004      344.148       20.762      863.516
07/25/2013  04:49:00      -87.682      -32.066       -8.194       11.141       12.386        9.175      124.132      153.414       84.186        0.457        0.018       93.362        6.662        0.005      344.218       20.882      863.495
07/25/2013  04:50:00     -104.436      -21.717       -7.698       14.989       12.296       10.880      224.680      151.198      118.381        0.597        0.025      106.670        7.496        0.005      344.233       20.907      863.483
07/25/2013  04:51:00      -99.841       -7.896       -2.216       20.905       17.716       17.736      437.024      313.849      314.579        0.555        0.053      100.153       15.072        0.023      344.130       20.729      863.489
07/25/2013  04:52:00      -76.750      -23.413       -3.684       16.849       10.105       12.397      283.897      102.112      153.693        0.350        0.027       80.241        8.372        0.011      344.125       20.721      863.490
07/25/2013  04:53:00      -49.761      -24.068       -3.054        9.780        7.675        7.144       95.657       58.901       51.043        0.164        0.010       55.276        4.682        0.007      344.236       20.912      863.489
07/25/2013  04:54:00      -43.402      -18.044       -3.100        6.162        5.645        4.538       37.970       31.871       20.589        0.115        0.005       47.004        1.304        0.001      344.313       21.042      863.488
07/25/2013  04:55:00      -54.910      -21.842       -8.441       17.425       12.617        9.058      303.621      159.183       82.040        0.205        0.027       59.095        2.208        0.001      344.376       21.149      863.496
07/25/2013  04:56:00     -102.016      -19.270      -14.809       15.348       10.232        8.553      235.576      104.699       73.153        0.571        0.021      103.820        4.946        0.002      344.222       20.887      863.506
07/25/2013  04:57:00      -90.978      -25.604      -12.942       11.556        9.248        8.226      133.533       85.533       67.668        0.469        0.014       94.512        3.932        0.002      344.218       20.884      863.515
07/25/2013  04:58:00      -73.768      -20.087      -10.609       18.729       11.530        9.639      350.781      132.940       92.916        0.327        0.029       76.454       10.599        0.019      344.112       20.700      863.522
07/25/2013  04:59:00      -85.494      -14.086      -10.573       13.466       12.038        8.653      181.323      144.911       74.877        0.401        0.020       86.647        3.984        0.002      344.122       20.719      863.531
07/25/2013  05:00:00      -62.863      -20.450       -2.390       27.411       17.718       14.501      751.351      313.920      210.281        0.283        0.064       66.106       17.269        0.068      343.976       20.470      863.543
07/25/2013  05:01:00      -78.794      -45.438        3.566       26.413       16.673       14.543      697.630      278.002      211.494        0.474        0.059       90.957       13.971        0.024      344.048       20.590      863.557
07/25/2013  05:02:00      -93.428      -43.947       -2.853       32.056       21.835       13.293     1027.581      476.755      176.695        0.617        0.084      103.248        8.977        0.008      344.004       20.516      863.565
07/25/2013  05:03:00      -61.606      -44.628        4.493       39.852       34.293       18.906     1588.188     1176.029      357.450        0.446        0.156       76.072       20.236        0.071      343.983       20.479      863.569
07/25/2013  05:04:00      -42.767      -42.744        3.286       36.405       21.488       19.380     1325.320      461.735      375.567        0.291        0.108       60.466       19.685        0.106      344.012       20.530      863.580
07/25/2013  05:05:00      -71.554      -71.138        1.276       40.992       24.552       19.511     1680.345      602.782      380.668        0.642        0.133      100.899       19.602        0.038      344.013       20.532      863.591
07/25/2013  05:06:00      -99.173      -64.924        1.794       40.895       27.946       20.741     1672.368      780.987      430.194        0.847        0.144      118.534       17.066        0.021      344.110       20.696      863.598
07/25/2013  05:07:00      -39.537      -41.774        7.781       46.122       34.213       22.895     2127.195     1170.534      524.186        0.359        0.191       57.517       25.309        0.194      344.189       20.832      863.599
07/25/2013  05:08:00      -56.351      -40.016        4.092       39.638       28.296       18.338     1571.199      800.661      336.283        0.375        0.135       69.114       17.164        0.062      344.206       20.860      863.600
07/25/2013  05:09:00      -79.660      -74.360       -1.603       35.957       31.274       18.019     1292.933      978.055      324.696        0.724        0.130      108.973       17.007        0.024      344.190       20.830      863.609
07/25/2013  05:10:00       -8.481      -21.695       18.370       35.936       29.351       23.192     1291.392      861.488      537.876        0.178        0.135       23.294       15.679        0.453      344.154       20.772      863.615
07/25/2013  05:11:00      -39.539      -39.855        2.055       33.253       20.327       17.417     1105.758      413.167      303.341        0.249        0.091       56.140       19.278        0.118      344.205       20.857      863.627
07/25/2013  05:12:00      -58.372      -30.408        6.986       32.912       23.568       19.309     1083.209      555.445      372.824        0.320        0.101       65.818       14.139        0.046      344.176       20.808      863.636
07/25/2013  05:13:00      -55.638      -36.157        3.694       38.119       24.789       20.572     1453.070      614.496      423.207        0.345        0.125       66.355       18.239        0.076      344.171       20.801      863.642
07/25/2013  05:14:00      -81.622      -53.560        0.984       31.815       28.537       19.827     1012.217      814.359      393.104        0.588        0.111       97.626       13.838        0.020      344.183       20.821      863.656
07/25/2013  05:15:00      -66.063      -46.549       -1.311       34.589       27.322       16.663     1196.408      746.515      277.657        0.438        0.111       80.816       17.265        0.046      344.131       20.732      863.675
07/25/2013  05:16:00      -71.245      -47.605        2.458       26.578       20.969       16.360      706.390      439.715      267.637        0.438        0.071       85.686       13.991        0.027      344.217       20.878      863.678
07/25/2013  05:17:00      -46.225      -40.545        5.886       35.701       20.510       19.840     1274.578      420.658      393.630        0.295        0.104       61.487       19.431        0.100      344.216       20.878      863.682
07/25/2013  05:18:00      -84.403      -20.163       -0.175       19.771       13.838       10.401      390.896      191.488      108.185        0.411        0.035       86.778        8.683        0.010      344.178       20.811      863.686
07/25/2013  05:19:00      -67.610       -9.746       -0.650       30.509       19.306       14.458      930.786      372.731      209.032        0.309        0.076       68.309       10.728        0.025      344.068       20.623      863.698
07/25/2013  05:20:00      -74.005      -18.896       -2.308       34.449       21.525       16.089     1186.708      463.305      258.850        0.387        0.095       76.379       14.991        0.039      343.932       20.391      863.698
07/25/2013  05:21:00      -96.431      -12.932       -1.244       46.365       22.931       20.663     2149.727      525.831      426.979        0.628        0.155       97.294       21.262        0.048      343.891       20.323      863.701
07/25/2013  05:22:00     -112.130      -33.194        0.180       33.420       30.289       18.675     1116.903      917.424      348.768        0.803        0.119      116.940       20.219        0.030      343.823       20.206      863.705
07/25/2013  05:23:00     -106.506      -18.223       -7.887       29.101       20.126       16.555      846.897      405.048      274.065        0.663        0.076      108.054       13.746        0.016      343.828       20.213      863.707
07/25/2013  05:24:00      -80.762      -13.124       -4.636       33.212       31.540       17.453     1103.023      994.801      304.596        0.456        0.120       81.822       16.738        0.042      343.784       20.139      863.725
07/25/2013  05:25:00      -78.200       -0.556       -2.079       29.904       25.070       16.272      894.225      628.498      264.778        0.395        0.089       78.202       15.662        0.040      343.799       20.165      863.735
07/25/2013  05:26:00      -96.291      -13.986      -12.858       31.533       22.254       15.344      994.308      495.223      235.429        0.568        0.086       97.301       12.916        0.018      343.781       20.134      863.742
07/25/2013  05:27:00      -84.949        9.776       -4.206       43.234       20.250       17.268     1869.208      410.076      298.169        0.495        0.129       85.510       18.726        0.048      343.799       20.165      863.747
07/25/2013  05:28:00     -129.455       26.088       -9.047       48.819       30.289       23.675     2383.342      917.415      560.501        1.069        0.193      132.058       25.272        0.037      343.852       20.255      863.746
07/25/2013  05:29:00     -137.943       43.678       -7.881       44.051       27.228       20.518     1940.468      741.375      420.992        1.205        0.155      144.693       19.685        0.019      343.833       20.223      863.759
07/25/2013  05:30:00     -104.880       39.089       -9.301       44.924       29.511       21.153     2018.122      870.904      447.447        0.797        0.167      111.927       12.555        0.013      343.778       20.128      863.770
07/25/2013  05:31:00      -49.727       12.930       -5.647       29.863       29.714       18.365      891.774      882.917      337.257        0.239        0.106       51.381       12.371        0.058      343.729       20.045      863.771
07/25/2013  05:32:00      -57.350       10.498      -10.149       33.029       21.525       16.280     1090.891      463.345      265.040        0.266        0.091       58.303        8.679        0.022      343.792       20.153      863.766
07/25/2013  05:33:00     -120.299       30.001       -8.979       34.591       27.996       17.441     1196.519      783.784      304.193        0.887        0.114      123.983        6.944        0.003      343.835       20.226      863.774
07/25/2013  05:34:00     -138.658       26.532      -14.241       33.737       24.142       18.737     1138.197      582.831      351.086        1.110        0.104      141.174       10.743        0.006      343.802       20.171      863.784
07/25/2013  05:35:00     -102.735      -23.911       -2.898       46.427       24.063       21.211     2155.490      579.050      449.897        0.716        0.159      105.481       23.090        0.048      343.752       20.086      863.787
07/25/2013  05:36:00      -99.762       -9.648       -4.265       28.588       32.266       19.864      817.301     1041.085      394.579        0.616        0.113      100.227       17.430        0.030      343.727       20.041      863.790
07/25/2013  05:37:00     -106.949      -17.041       -7.749       35.807       19.295       14.452     1282.176      372.278      208.870        0.683        0.093      108.299       13.113        0.015      343.668       19.940      863.801
07/25/2013  05:38:00      -64.911       -4.476       -5.974       53.975       33.728       19.664     2913.248     1137.608      386.666        0.435        0.222       65.066       21.963        0.114      343.615       19.851      863.817
07/25/2013  05:39:00      -94.743      -47.738       -5.319       38.224       26.655       24.977     1461.061      710.484      623.874        0.704        0.140      106.090       24.911        0.055      343.636       19.886      863.826
07/25/2013  05:40:00     -108.033      -38.903       -5.794       29.486       26.256       13.919      869.404      689.393      193.733        0.748        0.088      114.824       10.648        0.009      343.626       19.870      863.836
07/25/2013  05:41:00     -133.864      -52.765      -15.350       21.050       17.405       15.963      443.087      302.941      254.820        1.097        0.050      143.888       10.191        0.005      343.688       19.976      863.847
07/25/2013  05:42:00     -105.951      -43.084       -4.982       22.172       25.547       21.673      491.590      652.670      469.713        0.736        0.081      114.376       14.916        0.017      343.657       19.921      863.860
07/25/2013  05:43:00      -70.004       -9.650        0.323       28.560       21.607       12.589      815.688      466.848      158.489        0.322        0.072       70.666       11.698        0.027      343.655       19.919      863.859
07/25/2013  05:44:00      -57.637       -0.518       -2.207       34.303       27.051       17.804     1176.719      731.744      316.977        0.278        0.111       57.639       13.285        0.053      343.615       19.848      863.867
07/25/2013  05:45:00      -38.215        2.778       -1.095       34.720       19.332       17.979     1205.501      373.716      323.233        0.169        0.095       38.316       18.619        0.236      343.637       19.889      863.873
07/25/2013  05:46:00     -112.365       -3.557       -9.089       30.836       36.572       21.012      950.854     1337.503      441.500        0.772        0.136      112.421       15.752        0.020      343.670       19.945      863.888
07/25/2013  05:47:00     -123.930       -4.824      -12.449       23.444       22.855       17.656      549.636      522.339      311.736        0.846        0.069      124.023       15.874        0.016      343.591       19.809      863.917
07/25/2013  05:48:00     -111.634      -11.130       -7.191       31.057       40.742       21.810      964.527     1659.898      475.660        0.787        0.155      112.187       15.670        0.020      343.604       19.832      863.926
07/25/2013  05:49:00     -145.066       10.885      -10.532       28.113       30.373       26.002      790.358      922.535      676.084        1.183        0.119      145.474       19.850        0.019      343.590       19.809      863.930
07/25/2013  05:50:00     -144.983       18.599      -13.690       28.826       26.491       17.409      830.912      701.785      303.063        1.169        0.092      146.171       10.919        0.006      343.580       19.791      863.929
07/25/2013  05:51:00     -136.778      -23.912       -9.302       17.200       31.586       16.002      295.829      997.688      256.080        1.046        0.077      138.852       12.076        0.008      343.566       19.770      863.930
07/25/2013  05:52:00      -92.562       -7.526       -5.477       49.413       35.907       22.531     2441.663     1289.284      507.634        0.645        0.212       92.868       23.715        0.065      343.574       19.781      863.938
07/25/2013  05:53:00     -128.265       35.983       -8.811       53.837       28.416       25.408     2898.453      807.481      645.591        1.109        0.218      133.216       21.485        0.026      343.679       19.960      863.944
07/25/2013  05:54:00     -122.584        9.214      -13.913       63.484       48.725       22.520     4030.243     2374.081      507.150        1.111        0.346      122.930       23.978        0.038      343.598       19.821      863.949
07/25/2013  05:55:00     -116.762        1.468       -7.043       44.249       41.238       22.412     1957.943     1700.578      502.294        0.892        0.208      116.771       18.681        0.026      343.585       19.802      863.956
07/25/2013  05:56:00     -173.286       46.431      -14.979       32.510       25.404       18.659     1056.877      645.341      348.168        1.723        0.103      179.398       11.566        0.004      343.622       19.863      863.965
07/25/2013  05:57:00     -140.464        5.379      -17.116       37.805       39.673       21.652     1429.223     1573.950      468.805        1.176        0.174      140.567       15.793        0.013      343.573       19.779      863.981
07/25/2013  05:58:00     -143.971       26.594       -3.920       57.300       38.855       25.911     3283.323     1509.733      671.395        1.346        0.273      146.406       25.164        0.030      343.560       19.758      864.002
07/25/2013  05:59:00      -88.836       17.536       -0.602       52.550       33.530       24.061     2761.527     1124.282      578.927        0.633        0.223       90.550       21.536        0.057      343.547       19.735      864.014
07/25/2013  06:00:00      -90.242       14.660       -3.669       33.720       25.215       19.785     1137.041      635.774      391.460        0.527        0.108       91.425       13.787        0.023      343.563       19.761      864.021
07/25/2013  06:01:00      -61.704       -1.648       -5.076       28.878       26.541       17.113      833.921      704.412      292.851        0.283        0.092       61.726       16.069        0.068      343.588       19.805      864.021
07/25/2013  06:02:00      -66.761       -3.739       -9.511       44.271       23.373       18.236     1959.878      546.282      332.556        0.370        0.142       66.866       11.804        0.031      343.600       19.825      864.024
07/25/2013  06:03:00     -110.229      -11.829       -3.547       43.685       33.077       23.822     1908.365     1094.076      567.485        0.794        0.178      110.862       21.743        0.038      343.551       19.742      864.048
07/25/2013  06:04:00     -108.064       11.472      -11.559       44.792       29.843       20.260     2006.300      890.613      410.485        0.762        0.165      108.672       18.091        0.028      343.553       19.746      864.064
07/25/2013  06:05:00      -93.368       -4.289       -9.093       34.482       33.094       17.626     1188.980     1095.225      310.688        0.571        0.130       93.467       11.417        0.015      343.571       19.777      864.068
07/25/2013  06:06:00     -109.492        1.598       -6.994       48.928       30.189       23.244     2393.927      911.402      540.264        0.794        0.192      109.503       26.543        0.059      343.599       19.824      864.078
07/25/2013  06:07:00      -53.325       -9.818        3.777       41.043       28.686       22.160     1684.530      822.873      491.074        0.298        0.150       54.222       21.343        0.155      343.564       19.763      864.097
07/25/2013  06:08:00      -53.487       -9.197        6.460       36.535       40.485       24.248     1334.774     1639.026      587.975        0.327        0.178       54.272       13.301        0.060      343.590       19.808      864.120
07/25/2013  06:09:00     -101.921      -47.559        0.983       29.963       32.972       17.256      897.785     1087.166      297.777        0.747        0.114      112.472       14.636        0.017      343.573       19.780      864.136
07/25/2013  06:10:00     -119.823      -43.055       -4.710       33.773       21.527       19.390     1140.590      463.423      375.991        0.911        0.099      127.323       16.229        0.016      343.641       19.897      864.152
07/25/2013  06:11:00     -118.054      -54.692       -5.675       34.502       18.455       19.231     1190.402      340.579      369.846        0.943        0.095      130.107       19.944        0.023      343.667       19.940      864.160
07/25/2013  06:12:00     -112.866      -29.341       -3.556       24.447       25.034       14.749      597.632      626.714      217.521        0.753        0.072      116.617        8.325        0.005      343.667       19.938      864.162
07/25/2013  06:13:00      -62.610      -40.768       -3.697       55.037       22.622       19.893     3029.046      511.749      395.725        0.477        0.197       74.712       22.120        0.088      343.705       20.005      864.179
07/25/2013  06:14:00      -91.163      -39.955       -1.484       54.832       28.016       19.867     3006.538      784.890      394.686        0.705        0.209       99.534       23.912        0.058      343.730       20.048      864.188
07/25/2013  06:15:00     -100.590      -66.230        0.673       40.722       31.026       23.248     1658.283      962.613      540.475        0.883        0.158      120.436       22.218        0.034      343.718       20.025      864.193
07/25/2013  06:16:00      -52.601      -51.533        8.866       51.406       33.613       19.771     2642.619     1129.819      390.874        0.483        0.208       73.638       22.030        0.090      343.767       20.110      864.198
07/25/2013  06:17:00      -67.032      -63.923        0.824       59.684       41.327       27.515     3562.139     1707.906      757.092        0.730        0.301       92.625       22.689        0.060      343.763       20.103      864.202
07/25/2013  06:18:00      -98.159      -82.939        2.811       65.792       34.998       34.207     4328.604     1224.884     1170.106        1.162        0.336      128.507       37.619        0.086      343.702       19.998      864.202
07/25/2013  06:19:00     -118.289      -92.408        0.035       51.133       36.236       26.834     2614.592     1313.076      720.081        1.359        0.232      150.105       26.169        0.030      343.723       20.033      864.204
07/25/2013  06:20:00     -125.973      -75.294       -4.799       51.353       32.362       22.541     2637.120     1047.331      508.106        1.288        0.210      146.760       19.003        0.017      343.753       20.085      864.212
07/25/2013  06:21:00     -128.811      -74.051       -4.381       39.620       32.081       23.461     1569.752     1029.206      550.419        1.262        0.157      148.579       20.273        0.019      343.744       20.072      864.218
07/25/2013  06:22:00     -181.747      -35.723       -4.710       47.773       39.685       26.469     2282.248     1574.879      700.593        1.944        0.228      185.224       25.057        0.018      343.766       20.108      864.234
07/25/2013  06:23:00     -146.096      -38.626       -8.324       53.191       30.237       28.835     2829.321      914.301      831.473        1.374        0.229      151.116       31.546        0.044      343.693       19.982      864.243
07/25/2013  06:24:00     -129.289      -52.440       -0.670       31.828       34.136       26.669     1013.052     1165.287      711.254        1.118        0.144      139.519       20.546        0.022      343.686       19.972      864.252
07/25/2013  06:25:00     -147.592      -52.679       -4.690       22.217       20.129       16.344      493.609      405.190      267.126        1.287        0.058      156.711       12.902        0.007      343.752       20.083      864.260
07/25/2013  06:26:00     -125.157      -57.033       -5.313       35.080       25.721       19.933     1230.583      661.591      397.328        1.062        0.114      137.539       15.191        0.012      343.746       20.072      864.262
07/25/2013  06:27:00      -79.951      -53.540       -1.325       43.793       26.879       19.860     1917.842      722.490      394.409        0.615        0.152       96.222       12.944        0.018      343.744       20.071      864.261
07/25/2013  06:28:00     -132.587      -49.835       -8.054       23.402       20.175       15.047      547.650      407.041      226.406        1.065        0.059      141.644       10.500        0.005      343.770       20.116      864.260
07/25/2013  06:29:00     -122.978      -70.673       -7.075       21.214       26.901       15.902      450.038      723.652      252.870        1.080        0.071      141.839       11.467        0.007      343.807       20.177      864.266
07/25/2013  06:30:00     -107.972      -49.873       -2.431       33.282       30.794       26.306     1107.676      948.274      692.004        0.845        0.137      118.934       24.002        0.041      343.810       20.185      864.268
07/25/2013  06:31:00     -113.093      -60.598        0.666       43.551       24.033       20.522     1896.698      577.574      421.136        0.968        0.145      128.304       21.746        0.029      343.826       20.212      864.271
07/25/2013  06:32:00     -102.817      -48.728        1.787       41.039       33.038       16.023     1684.178     1091.504      256.736        0.799        0.152      113.780       15.742        0.019      343.875       20.292      864.270
07/25/2013  06:33:00     -104.541      -59.803       -1.853       27.058       26.123       19.932      732.111      682.414      397.283        0.816        0.091      120.438       17.435        0.021      343.895       20.328      864.280
07/25/2013  06:34:00     -104.534      -48.619        0.513       31.569       26.690       21.881      996.622      712.350      478.796        0.774        0.109      115.287       17.726        0.024      343.934       20.396      864.298
07/25/2013  06:35:00      -47.632      -52.223        3.404       40.799       40.302       29.702     1664.576     1624.232      882.235        0.459        0.209       70.683       21.630        0.094      344.044       20.583      864.324
07/25/2013  06:36:00      -61.790      -64.731        5.838       63.257       48.147       31.134     4001.421     2318.119      969.322        0.766        0.364       89.488       33.887        0.143      344.019       20.542      864.334
07/25/2013  06:37:00      -88.731      -84.040       -3.991       49.413       45.592       26.515     2441.650     2078.616      703.062        1.009        0.261      122.212       26.457        0.047      343.984       20.480      864.359
07/25/2013  06:38:00      -83.675     -110.672       -8.406       53.099       40.486       30.065     2819.555     1639.081      903.901        1.234        0.268      138.744       31.754        0.052      343.951       20.425      864.379
07/25/2013  06:39:00      -83.139      -76.651        1.550       42.936       45.647       29.039     1843.516     2083.681      843.236        0.878        0.239      113.081       23.522        0.043      343.940       20.406      864.398
07/25/2013  06:40:00     -116.721     -130.015       -9.145       61.419       46.796       29.358     3772.259     2189.841      861.907        1.872        0.341      174.722       29.534        0.029      343.950       20.422      864.412
07/25/2013  06:41:00     -122.501     -121.730       -9.859       40.741       48.016       27.864     1659.860     2305.523      776.375        1.733        0.237      172.698       23.308        0.018      343.942       20.409      864.428
07/25/2013  06:42:00     -140.150     -112.453      -10.231       58.930       51.467       35.612     3472.790     2648.899     1268.221        1.989        0.369      179.687       35.510        0.039      343.921       20.370      864.443
07/25/2013  06:43:00     -151.694     -102.232       -4.581       66.580       45.344       36.768     4432.937     2056.079     1351.856        2.066        0.392      182.927       30.506        0.028      343.964       20.444      864.450
07/25/2013  06:44:00     -107.230      -79.065       -6.788       53.993       45.490       34.198     2915.207     2069.297     1169.491        1.197        0.308      133.227       32.902        0.061      344.024       20.551      864.457
07/25/2013  06:45:00     -131.222      -97.677      -11.816       38.887       50.985       22.849     1512.195     2599.504      522.070        1.577        0.232      163.585       12.367        0.006      344.062       20.616      864.474
07/25/2013  06:46:00     -112.489      -78.234       -8.257       40.285       40.656       22.966     1622.871     1652.894      527.430        1.132        0.190      137.019       23.816        0.030      344.041       20.580      864.479
07/25/2013  06:47:00      -97.218      -55.288       -3.112       37.264       31.966       23.168     1388.575     1021.808      536.763        0.773        0.147      111.840       22.322        0.040      344.054       20.602      864.482
07/25/2013  06:48:00      -72.461      -46.025       -6.945       28.497       27.858       16.696      812.073      776.067      278.757        0.464        0.093       85.842       10.744        0.016      344.070       20.629      864.490
07/25/2013  06:49:00      -44.925      -14.489        6.019       39.144       21.121       18.341     1532.279      446.086      336.388        0.229        0.116       47.203       17.871        0.143      344.165       20.791      864.480
07/25/2013  06:50:00      -77.152      -43.299        0.511       41.945       30.500       15.382     1759.414      930.242      236.613        0.538        0.146       88.472        9.648        0.012      344.154       20.772      864.478
07/25/2013  06:51:00      -90.293      -49.358        2.149       31.376       25.455       18.290      984.428      647.957      334.539        0.628        0.098      102.904       14.822        0.021      344.156       20.776      864.479
07/25/2013  06:52:00      -51.897      -72.581        9.015       57.353       38.507       24.767     3289.320     1482.756      613.391        0.671        0.269       89.226       31.383        0.124      344.190       20.833      864.472
07/25/2013  06:53:00      -75.155      -77.309        3.947       49.497       40.132       34.046     2449.905     1610.605     1159.150        0.843        0.261      107.820       34.649        0.103      344.155       20.775      864.474
07/25/2013  06:54:00      -54.767      -62.591        7.480       49.846       38.530       27.874     2484.643     1484.532      776.983        0.586        0.237       83.169       32.904        0.157      344.233       20.906      864.472
07/25/2013  06:55:00      -60.488      -71.900       -0.904       34.386       27.227       18.576     1182.384      741.320      345.085        0.555        0.113       93.960       17.604        0.035      344.252       20.938      864.471
07/25/2013  06:56:00      -68.694     -101.000       -1.739       29.599       29.538       19.560      876.090      872.476      382.582        0.853        0.107      122.147       17.899        0.021      344.168       20.796      864.473
07/25/2013  06:57:00      -65.450      -82.557       -0.250       47.592       46.013       25.360     2264.978     2117.238      643.141        0.806        0.251      105.353       31.688        0.090      344.191       20.832      864.474
07/25/2013  06:58:00      -54.955      -50.035        0.501       25.653       32.429       20.618      658.074     1051.647      425.091        0.383        0.107       74.321       16.674        0.050      344.184       20.822      864.475
07/25/2013  06:59:00      -55.436      -38.078       -0.278       29.297       21.865       14.975      858.298      478.064      224.247        0.304        0.078       67.253       16.867        0.063      344.248       20.933      864.485
07/25/2013  07:00:00      -33.364      -26.054        0.666       29.349       15.990       12.459      861.338      255.670      155.234        0.153        0.064       42.332       15.106        0.127      344.446       21.269      864.487
07/25/2013  07:01:00      -10.694      -66.423        6.878       14.542       12.773       12.566      211.475      163.162      157.901        0.255        0.027       67.279        7.297        0.012      344.225       20.892      864.513
07/25/2013  07:02:00      -17.748      -32.176       -0.026       13.065       13.803       12.351      170.704      190.534      152.556        0.093        0.026       36.747        8.910        0.059      344.346       21.101      864.531
07/25/2013  07:03:00      -30.918      -38.288       -0.975       10.479       14.055       11.355      109.800      197.553      128.931        0.143        0.022       49.213        8.004        0.026      344.434       21.249      864.557
07/25/2013  07:04:00      -30.723        8.374       -1.101       14.287       12.398       14.026      204.127      153.711      196.734        0.078        0.028       31.844       12.223        0.147      344.434       21.249      864.567
07/25/2013  07:05:00      -35.993        9.028       -5.714       10.495        9.337       12.408      110.138       87.172      153.961        0.088        0.018       37.108        6.427        0.030      344.428       21.238      864.569
07/25/2013  07:06:00      -73.884      -36.464       -6.585       23.615       35.701       17.701      557.646     1274.592      313.341        0.449        0.107       82.393       14.286        0.030      344.363       21.128      864.563
07/25/2013  07:07:00      -71.814      -69.417       -7.017       24.642       22.313       17.029      607.210      497.863      290.002        0.571        0.070       99.880       17.399        0.030      344.375       21.149      864.548
07/25/2013  07:08:00      -61.300      -42.348       -4.065       27.494       26.434       18.288      755.905      698.747      334.449        0.368        0.089       74.506       15.687        0.044      344.337       21.084      864.540
07/25/2013  07:09:00      -39.565      -29.558       -6.124       15.980       18.332        9.950      255.363      336.051       99.004        0.158        0.035       49.387        7.661        0.024      344.398       21.188      864.539
07/25/2013  07:10:00      -32.779      -24.532       -3.181       12.818       15.175       11.960      164.306      230.269      143.038        0.111        0.027       40.942        4.486        0.012      344.448       21.272      864.537
07/25/2013  07:11:00      -18.006      -30.552       -6.379       14.961       11.962        8.422      223.819      143.100       70.936        0.087        0.022       35.463        7.624        0.046      344.472       21.317      864.543
07/25/2013  07:12:00      -25.311      -45.244        4.659       26.441       21.876       15.089      699.137      478.563      227.690        0.206        0.070       51.843       10.481        0.041      344.534       21.422      864.550
07/25/2013  07:13:00      -40.620      -71.907        9.463       30.712       35.564       18.405      943.211     1264.805      338.729        0.473        0.127       82.587       19.153        0.054      344.543       21.435      864.567
07/25/2013  07:14:00      -69.929      -82.746       -4.576       31.967       28.824       20.496     1021.900      830.847      420.069        0.701        0.114      108.337       16.856        0.024      344.523       21.403      864.585
07/25/2013  07:15:00      -55.003      -67.302       -4.593       21.827       28.945       17.095      476.426      837.840      292.249        0.459        0.080       86.919       17.760        0.042      344.549       21.446      864.593
07/25/2013  07:16:00      -40.546      -84.305        3.108       22.086       25.159       16.237      487.803      632.994      263.634        0.507        0.069       93.548       14.464        0.024      344.520       21.398      864.616
07/25/2013  07:17:00      -67.206      -99.329       -4.329       18.343       16.001       12.067      336.468      256.044      145.609        0.757        0.037      119.929       10.326        0.007      344.483       21.337      864.627
07/25/2013  07:18:00      -53.580      -90.841        0.277       27.605       24.451       18.912      762.045      597.863      357.673        0.642        0.086      105.465       13.959        0.018      344.549       21.446      864.638
07/25/2013  07:19:00      -34.274      -63.563        9.814       36.718       45.067       24.743     1348.236     2031.070      612.210        0.465        0.200       72.215       27.744        0.148      344.709       21.719      864.643
07/25/2013  07:20:00      -42.055      -62.616        9.449       31.416       45.729       20.087      986.944     2091.124      403.475        0.463        0.174       75.428       25.273        0.112      344.747       21.785      864.652
07/25/2013  07:21:00      -87.076      -64.435        2.934       43.403       29.649       26.656     1883.858      879.089      710.546        0.761        0.174      108.324       26.227        0.059      344.609       21.549      864.656
07/25/2013  07:22:00      -49.579      -62.522       -7.961       21.329       17.493       10.888      454.935      306.019      118.551        0.365        0.044       79.794        7.411        0.009      344.625       21.577      864.664
07/25/2013  07:23:00      -77.567      -67.573       -0.259       37.073       38.666       25.243     1374.396     1495.097      637.207        0.704        0.175      102.873       22.916        0.050      344.725       21.746      864.667
07/25/2013  07:24:00      -66.021      -61.733       -0.280       31.245       21.243       15.178      976.246      451.267      230.376        0.491        0.083       90.387        4.002        0.002      344.687       21.682      864.674
07/25/2013  07:25:00      -22.361      -67.946        3.638       31.380       29.319       18.094      984.713      859.594      327.390        0.365        0.109       71.531       16.421        0.053      344.746       21.782      864.681
07/25/2013  07:26:00      -37.100      -51.366       -1.410       34.385       38.320       16.980     1182.310     1468.436      288.309        0.348        0.147       63.363       16.433        0.067      344.790       21.859      864.680
07/25/2013  07:27:00      -32.931      -74.293        4.514       24.225       36.992       17.670      586.832     1368.420      312.212        0.445        0.113       81.264       16.756        0.043      344.820       21.911      864.690
07/25/2013  07:28:00      -42.298     -109.156       -2.618       19.745       25.610       13.340      389.872      655.877      177.967        0.747        0.061      117.065        8.786        0.006      344.777       21.836      864.695
07/25/2013  07:29:00      -41.707      -95.944       -2.244       13.668       12.674        8.720      186.818      160.618       76.032        0.569        0.021      104.617        3.851        0.001      344.761       21.807      864.690
07/25/2013  07:30:00      -38.194      -78.146       -3.607       20.191       17.813       16.296      407.692      317.302      265.552        0.428        0.050       86.980        9.050        0.011      344.813       21.897      864.693
07/25/2013  07:31:00      -28.910      -37.682       -1.185       30.288       33.448       17.216      917.368     1118.761      296.389        0.229        0.117       47.494       18.456        0.151      344.977       22.180      864.689
07/25/2013  07:32:00      -44.451      -87.698        1.169       21.540       24.585       20.111      463.965      604.418      404.465        0.557        0.074       98.320       15.476        0.025      344.845       21.954      864.692
07/25/2013  07:33:00      -50.461      -55.273       -5.002       25.505       31.432        8.212      650.496      987.979       67.430        0.367        0.085       74.843       10.696        0.020      344.841       21.948      864.696
07/25/2013  07:34:00      -63.870      -37.075       -0.536       26.552       27.590       13.384      705.016      761.223      179.133        0.355        0.082       73.850       12.919        0.031      344.906       22.057      864.697
07/25/2013  07:35:00      -44.937      -24.222        2.980       25.401       26.051       14.321      645.198      678.647      205.077        0.207        0.076       51.049       12.233        0.057      345.064       22.327      864.702
07/25/2013  07:36:00      -47.778      -31.961        0.437       21.960       21.515       14.998      482.243      462.897      224.931        0.224        0.059       57.482       11.431        0.040      344.905       22.055      864.703
07/25/2013  07:37:00      -77.541      -41.452       -5.080       21.555       19.389       13.437      464.639      375.932      180.552        0.439        0.051       87.926       11.568        0.017      344.921       22.083      864.699
07/25/2013  07:38:00      -20.366      -19.506      -10.030       19.625       12.827        9.813      385.122      164.532       96.291        0.077        0.032       28.200        6.276        0.050      345.023       22.256      864.707
07/25/2013  07:39:00      -27.886      -14.539        4.066       23.480       18.657       13.713      551.325      348.080      188.035        0.105        0.054       31.448       12.352        0.154      345.195       22.555      864.709
07/25/2013  07:40:00      -17.382       -5.029       15.950       16.587       17.614       18.272      275.137      310.268      333.855        0.075        0.046       18.095       17.197        0.903      345.752       23.510      864.719
07/25/2013  07:41:00      -33.086       24.417       10.328       31.514       23.825       21.282      993.130      567.644      452.909        0.191        0.101       41.120       18.148        0.195      345.434       22.961      864.712
07/25/2013  07:42:00      -26.521        1.089        5.206       22.802       15.260       20.098      519.936      232.881      403.943        0.094        0.058       26.543        5.489        0.043      345.364       22.842      864.720
07/25/2013  07:43:00      -29.323       15.670       18.849       18.248       19.668       15.279      332.998      386.818      233.442        0.121        0.048       33.247        7.951        0.057      345.323       22.771      864.719
07/25/2013  07:44:00      -40.276       12.271        0.286       13.493       12.338       15.478      182.058      152.217      239.573        0.117        0.029       42.104        7.226        0.029      345.188       22.542      864.723
07/25/2013  07:45:00      -19.754       -5.871       -2.619        8.223        6.649        7.607       67.618       44.213       57.873        0.030        0.008       20.608        4.367        0.045      345.262       22.667      864.731
07/25/2013  07:46:00      -37.031      -11.854       -3.883       12.150       12.329        9.808      147.619      152.010       96.201        0.096        0.020       38.882        6.366        0.027      345.262       22.666      864.741
07/25/2013  07:47:00      -18.518       -5.149        1.912       16.823       12.531       17.687      283.003      157.030      312.846        0.056        0.038       19.220       12.083        0.395      345.504       23.081      864.738
07/25/2013  07:48:00      -24.515      -10.601        4.349       16.014       10.829       10.908      256.440      117.265      118.979        0.061        0.025       26.709        8.895        0.111      345.513       23.098      864.748
07/25/2013  07:49:00      -39.127      -71.016        0.473       16.998       21.882       13.784      288.946      478.822      190.008        0.377        0.048       81.081        9.596        0.014      345.199       22.560      864.755
07/25/2013  07:50:00      -30.896      -11.208        3.984       21.117       16.962       14.778      445.932      287.708      218.402        0.102        0.048       32.866       12.697        0.149      345.438       22.967      864.756
07/25/2013  07:51:00      -55.027      -15.544        0.268       16.165       17.275       15.126      261.295      298.440      228.782        0.203        0.039       57.181       12.363        0.047      345.317       22.760      864.768
07/25/2013  07:52:00      -37.113        3.876       12.489       34.369       20.360       23.607     1181.206      414.533      557.272        0.185        0.108       37.315       11.386        0.093      345.628       23.295      864.771
07/25/2013  07:53:00      -78.219      -28.544       -5.503       20.315       21.826       14.955      412.692      476.374      223.639        0.404        0.056       83.264       13.939        0.028      345.288       22.710      864.766
07/25/2013  07:54:00      -35.949        6.291       19.388       28.509       17.742       21.556      812.779      314.771      464.666        0.165        0.080       36.496       21.801        0.357      345.976       23.892      864.768
07/25/2013  07:55:00      -35.567        0.858       -6.150       22.254       13.582       10.819      495.243      184.463      117.055        0.105        0.040       35.577        9.871        0.077      345.441       22.975      864.766
07/25/2013  07:56:00      -28.746        6.220        5.766       13.314       13.909       13.631      177.263      193.459      185.794        0.073        0.028       29.411        8.799        0.089      345.646       23.325      864.761
07/25/2013  07:57:00      -40.601        5.677       -2.654        8.636        6.146       11.692       74.587       37.776      136.698        0.097        0.012       40.996        4.193        0.010      345.421       22.940      864.767
07/25/2013  07:58:00      -33.995       12.075        4.958        7.860       12.244        6.713       61.781      149.915       45.068        0.079        0.013       36.076        3.880        0.012      345.493       23.061      864.770
07/25/2013  07:59:00      -20.692       12.741       14.438       21.217       26.151       20.324      450.158      683.864      413.084        0.117        0.077       24.300       14.699        0.366      345.865       23.703      864.767
07/25/2013  08:00:00      -12.023       -4.755      -11.632       20.174       26.518       13.592      407.001      703.224      184.736        0.080        0.065       12.929        4.130        0.102      345.764       23.528      864.763
07/25/2013  08:01:00      -39.393       15.170       -3.071       12.815       10.662       13.425      164.230      113.673      180.223        0.112        0.023       42.212        6.796        0.026      345.485       23.050      864.768
07/25/2013  08:02:00      -33.927       13.097       14.019       14.081       16.596       13.474      198.273      275.438      181.550        0.109        0.033       36.367        7.749        0.045      345.670       23.367      864.762
07/25/2013  08:03:00      -23.858       17.320       -5.381       11.758        9.733       13.594      138.261       94.730      184.793        0.066        0.021       29.482        9.228        0.098      345.690       23.401      864.769
07/25/2013  08:04:00      -22.709        7.634        4.984        9.878        6.539        7.327       97.566       42.758       53.680        0.040        0.010       23.957        5.493        0.053      345.633       23.303      864.784
07/25/2013  08:05:00      -32.935        7.457        3.791       11.207       12.085       12.660      125.600      146.041      160.264        0.079        0.022       33.768        9.819        0.085      345.741       23.489      864.787
07/25/2013  08:06:00      -24.274        3.392        1.281       14.331       15.104       12.469      205.366      228.118      155.476        0.060        0.029       24.510        7.009        0.082      345.786       23.566      864.796
07/25/2013  08:07:00      -12.447       -5.030       26.062       13.109       21.782       16.379      171.837      474.460      268.265        0.089        0.046       13.425       15.167        1.276      346.288       24.428      864.808
07/25/2013  08:08:00       -1.299      -12.033       31.845       15.779       21.788       15.622      248.964      474.734      244.034        0.106        0.048       12.103       10.279        0.721      346.577       24.926      864.818
07/25/2013  08:09:00      -41.027       12.457       10.787       18.083        9.491       12.196      326.980       90.070      148.744        0.126        0.028       42.876        6.504        0.023      345.793       23.579      864.829
07/25/2013  08:10:00      -28.640       -5.953        4.148       14.464       12.384       12.905      209.203      153.366      166.547        0.070        0.026       29.252        8.636        0.087      345.929       23.810      864.840
07/25/2013  08:11:00      -35.059        5.354        4.308       15.451       11.868       13.145      238.737      140.853      172.782        0.091        0.028       35.466        8.803        0.062      345.857       23.689      864.847
07/25/2013  08:12:00      -35.429       15.426        0.686       23.662       12.197       25.487      559.869      148.755      649.592        0.143        0.068       38.642       17.810        0.212      346.124       24.147      864.840
07/25/2013  08:13:00      -17.328        1.975        1.229       21.241       22.066       18.221      451.170      486.893      332.008        0.079        0.064       17.441       14.636        0.704      346.185       24.251      864.836
07/25/2013  08:14:00      -43.184       -0.318        0.701       22.414       21.944       16.986      502.397      481.556      288.510        0.157        0.064       43.186       16.280        0.142      345.904       23.768      864.836
07/25/2013  08:15:00      -33.808       -9.300        2.882       20.809       19.907       13.060      432.996      396.297      170.565        0.112        0.050       35.064        9.658        0.076      346.043       24.007      864.838
07/25/2013  08:16:00       -7.922       -2.552       21.703       21.066       28.865       18.519      443.764      833.178      342.942        0.108        0.081        8.323        8.327        1.001      346.427       24.666      864.846
07/25/2013  08:17:00       38.041       -5.498       23.551       43.325       45.254       32.347     1877.032     2047.906     1046.348        0.350        0.249       38.436       30.828        0.643      346.364       24.560      864.845
07/25/2013  08:18:00       -0.960       34.161       55.529       39.979       43.409       33.991     1598.321     1884.328     1155.417        0.444        0.232       34.174       35.416        1.074      346.356       24.546      864.861
07/25/2013  08:19:00       38.772      -27.265       16.966       44.629       41.397       34.397     1991.780     1713.685     1183.138        0.371        0.244       47.399       35.373        0.557      346.542       24.866      864.864
07/25/2013  08:20:00      -41.841       -4.924       20.064       34.496       26.061       23.268     1189.958      679.196      541.393        0.229        0.121       42.130       26.905        0.408      346.419       24.653      864.872
07/25/2013  08:21:00      -18.090        1.095       -1.753       42.213       36.320       24.798     1781.949     1319.108      614.917        0.202        0.186       18.123       14.602        0.649      346.283       24.420      864.879
07/25/2013  08:22:00      -48.375        5.766       -0.225       34.792       41.176       17.274     1210.495     1695.481      298.400        0.279        0.160       48.718       10.780        0.049      346.116       24.131      864.883
07/25/2013  08:23:00      -46.774      -79.473        3.704       23.665       23.523       20.055      560.032      553.332      402.199        0.502        0.076       92.216       12.071        0.017      346.097       24.101      864.890
07/25/2013  08:24:00      -61.730      -13.060      -15.044       35.334       36.399       29.145     1248.457     1324.912      849.406        0.381        0.171       63.097        9.063        0.021      346.203       24.281      864.878
07/25/2013  08:25:00      -41.799      -15.136        8.024       29.625       23.304       15.978      877.656      543.063      255.283        0.186        0.084       44.455       14.269        0.103      346.340       24.518      864.866
07/25/2013  08:26:00      -60.679        7.134        1.318       23.925       25.019       20.945      572.418      625.951      438.686        0.269        0.082       61.096       13.628        0.050      346.258       24.378      864.859
07/25/2013  08:27:00      -29.665       13.781       11.127       29.614       24.142       19.915      876.998      582.850      396.616        0.152        0.093       32.709       17.092        0.273      346.524       24.834      864.853
07/25/2013  08:28:00      -30.712       11.557       27.471       19.351       22.971       21.127      374.470      527.658      446.333        0.159        0.067       32.815       13.215        0.162      346.796       25.304      864.847
07/25/2013  08:29:00      -37.094       12.584       18.773       19.536       18.166       20.705      381.667      330.010      428.678        0.151        0.057       39.170       13.529        0.119      346.533       24.850      864.846
07/25/2013  08:30:00      -18.834       -8.346       33.537       21.369       29.695       18.365      456.616      881.798      337.278        0.161        0.084       20.600       12.697        0.380      347.279       26.135      864.847
07/25/2013  08:31:00        1.504      -11.486       56.357       34.359       39.274       20.589     1180.546     1542.456      423.920        0.323        0.157       11.584       14.818        1.636      347.272       26.122      864.843
07/25/2013  08:32:00       -3.148       13.012       50.928       21.601       53.475       22.010      466.582     2859.553      484.449        0.329        0.191       13.388       12.757        0.908      347.183       25.968      864.851
07/25/2013  08:33:00       34.123      -10.353       27.982       37.449       36.031       41.362     1402.461     1298.208     1710.849        0.323        0.221       35.659       22.950        0.414      347.030       25.704      864.858
07/25/2013  08:34:00       11.603      -26.657        9.181       40.019       33.794       33.147     1601.520     1142.042     1098.699        0.239        0.192       29.072       25.432        0.765      346.522       24.829      864.863
07/25/2013  08:35:00      -12.782      -10.152       18.560       20.152       20.983       23.033      406.112      440.269      530.532        0.099        0.069       16.323       14.633        0.804      347.223       26.037      864.866
07/25/2013  08:36:00      -25.786      -18.293       14.847       20.702       24.631       17.761      428.576      606.669      315.455        0.129        0.068       31.616       17.476        0.306      346.866       25.423      864.870
07/25/2013  08:37:00      -36.967      -43.844       -4.559       19.441       30.651       14.934      377.941      939.473      223.036        0.242        0.077       57.349       10.786        0.035      346.468       24.737      864.869
07/25/2013  08:38:00      -16.920      -14.693       13.711       43.560       23.246       20.309     1897.440      540.354      412.447        0.177        0.143       22.409       22.770        1.032      346.989       25.634      864.879
07/25/2013  08:39:00      -60.903      -37.608       -6.814       32.015       34.787       19.464     1024.964     1210.168      378.864        0.389        0.131       71.579       20.998        0.086      346.503       24.796      864.886
07/25/2013  08:40:00      -57.688      -15.131        2.205       29.367       24.284       19.511      862.438      589.717      380.686        0.270        0.092       59.639       12.805        0.046      346.513       24.816      864.895
07/25/2013  08:41:00      -38.627        0.313        1.647       22.281       13.594       16.646      496.452      184.798      277.093        0.123        0.048       38.628       15.259        0.156      346.656       25.061      864.896
07/25/2013  08:42:00       -7.497       33.503       26.150       22.252       24.585       23.978      495.152      604.404      574.934        0.177        0.084       34.332       16.625        0.234      347.469       26.462      864.899
07/25/2013  08:43:00      -13.511      -17.076        8.648       22.172       17.976       19.381      491.610      323.147      375.641        0.087        0.060       21.775       12.929        0.353      346.965       25.593      864.897
07/25/2013  08:44:00      -25.082      -14.133        0.876       15.412       18.802       11.209      237.531      353.505      125.632        0.077        0.036       28.790        9.180        0.102      346.668       25.084      864.894
07/25/2013  08:45:00       -0.687      -53.355        6.615       40.260       70.830       29.704     1620.889     5016.865      882.347        0.520        0.376       53.360       33.320        0.390      347.070       25.774      864.895
07/25/2013  08:46:00      -44.429      -29.337       -3.964       39.895       32.303       25.355     1591.573     1043.468      642.898        0.306        0.164       53.241       21.244        0.159      346.966       25.596      864.886
07/25/2013  08:47:00      -34.531      -10.570        3.930       52.199       31.162       29.796     2724.743      971.082      887.790        0.295        0.229       36.113       25.073        0.482      346.924       25.523      864.880
07/25/2013  08:48:00       23.255       -8.230       11.087       47.203       32.774       36.185     2228.148     1074.111     1309.361        0.267        0.231       24.668       20.034        0.660      347.206       26.007      864.867
07/25/2013  08:49:00       19.950        9.709       39.546       44.169       43.956       27.890     1950.893     1932.113      777.879        0.336        0.233       22.187       21.582        0.946      347.443       26.417      864.852
07/25/2013  08:50:00      -32.635      -21.082       -4.481       20.410       17.190       10.661      416.552      295.511      113.647        0.118        0.041       38.852        4.989        0.016      346.817       25.340      864.858
07/25/2013  08:51:00      -46.324        0.428       12.280       32.658       31.405       24.722     1066.551      986.282      611.160        0.248        0.133       46.326       16.097        0.121      347.009       25.669      864.854
07/25/2013  08:52:00      -21.958       29.776        7.703       28.190       21.362       23.113      794.656      456.355      534.190        0.161        0.089       36.997       17.305        0.219      347.201       25.999      864.837
07/25/2013  08:53:00      -33.672       -2.373       -3.644       25.448       25.853       19.207      647.599      668.388      368.915        0.142        0.084       33.755       13.401        0.158      346.997       25.647      864.842
07/25/2013  08:54:00      -32.541      -22.868        4.289       25.787       31.431       19.913      664.979      987.917      396.528        0.182        0.102       39.772       18.314        0.212      347.158       25.924      864.848
07/25/2013  08:55:00      -33.018      -10.040        6.229       28.401       23.448       17.006      806.590      549.806      289.193        0.144        0.082       34.511       13.374        0.150      347.111       25.844      864.846
07/25/2013  08:56:00      -31.331        3.970        8.516       17.435       33.000       16.897      303.968     1089.015      285.504        0.137        0.084       31.581        9.265        0.086      347.146       25.905      864.847
07/25/2013  08:57:00        1.307      -82.423       14.352       40.561       43.195       31.724     1645.156     1865.779     1006.419        0.576        0.226       82.433       28.587        0.120      346.992       25.640      864.852
07/25/2013  08:58:00       13.695      -16.318       30.301       38.834       48.442       32.291     1508.099     2346.637     1042.679        0.313        0.245       21.304       28.532        1.794      347.469       26.462      864.841
07/25/2013  08:59:00      -17.632       31.565       54.430       26.220       36.611       26.079      687.502     1340.383      680.090        0.349        0.135       36.156       24.624        0.464      347.479       26.480      864.838
07/25/2013  09:00:00       -7.973       -7.075        8.546       23.669       18.466       20.085      560.230      340.997      403.388        0.075        0.065       10.660        9.599        0.811      347.388       26.321      864.830
07/25/2013  09:01:00       29.303        0.163       13.017       30.731       43.579       21.156      944.377     1899.106      447.559        0.216        0.165       29.303        8.018        0.075      347.288       26.149      864.820
07/25/2013  09:02:00      -59.579      -32.281       14.662       32.129       37.863       27.104     1032.286     1433.585      734.608        0.400        0.160       67.762       22.387        0.109      347.011       25.673      864.835
07/25/2013  09:03:00      -45.620      -39.782       12.184       40.760       46.366       26.707     1661.387     2149.849      713.252        0.417        0.226       60.529       29.775        0.242      347.150       25.911      864.829
07/25/2013  09:04:00      -54.835       -8.628        2.512       40.682       35.880       28.332     1655.045     1287.350      802.706        0.342        0.187       55.509       26.110        0.221      347.247       26.078      864.827
07/25/2013  09:05:00      -29.486       -2.094        6.765       34.913       19.772       27.793     1218.893      390.925      772.435        0.165        0.119       29.560       19.150        0.420      347.437       26.406      864.831
07/25/2013  09:06:00      -26.226       -8.857        4.618       28.512       31.228       27.289      812.936      975.161      744.710        0.166        0.127       27.682       12.239        0.195      347.566       26.630      864.827
07/25/2013  09:07:00      -21.989      -19.454       -0.167       29.055       42.370       31.711      844.205     1795.255     1005.605        0.225        0.182       29.359       19.757        0.453      347.364       26.280      864.821
07/25/2013  09:08:00      -45.594      -70.984       10.906       27.925       28.181       30.045      779.817      794.181      902.699        0.486        0.124       84.365       10.615        0.016      346.952       25.569      864.813
07/25/2013  09:09:00      -20.342      -11.479        4.522       27.302       27.243       25.079      745.410      742.195      628.967        0.134        0.106       23.357       20.059        0.738      347.665       26.799      864.827
07/25/2013  09:10:00      -38.267       21.456        3.797       29.680       17.010       18.061      880.881      289.335      326.183        0.172        0.075       43.871        9.394        0.046      347.348       26.252      864.820
07/25/2013  09:11:00      -41.576        7.673      -10.592       34.120       25.962       21.302     1164.200      674.040      453.793        0.210        0.115       42.279       12.639        0.089      347.228       26.045      864.811
07/25/2013  09:12:00      -24.539      -36.545        8.945       30.238       49.593       22.457      914.352     2459.514      504.305        0.295        0.194       44.019       15.344        0.121      347.246       26.078      864.818
07/25/2013  09:13:00      -17.480        9.307       28.218       33.494       22.939       24.859     1121.844      526.219      617.960        0.173        0.113       19.804       20.560        1.078      347.937       27.270      864.811
07/25/2013  09:14:00      -56.764      -10.952        5.024       48.653       33.441       20.869     2367.090     1118.303      435.521        0.364        0.196       57.811       20.474        0.125      347.338       26.236      864.821
07/25/2013  09:15:00      -35.321       15.800        0.723       34.315       19.903       24.045     1177.530      396.136      578.175        0.182        0.108       38.694       25.192        0.424      347.210       26.015      864.828
07/25/2013  09:16:00       -3.597      -13.751       -0.121       23.118       27.481       17.855      534.442      755.185      318.804        0.090        0.080       14.213       10.997        0.599      347.486       26.490      864.829
07/25/2013  09:17:00      -12.438       -4.006        0.835       36.463       18.969       23.816     1329.516      359.813      567.224        0.121        0.113       13.067       18.150        1.929      347.633       26.745      864.841
07/25/2013  09:18:00      -74.322       23.139        7.950       55.300       22.539       19.915     3058.125      508.025      396.589        0.504        0.198       77.841       25.963        0.111      347.471       26.465      864.838
07/25/2013  09:19:00      -73.702      -15.104       -3.299       23.757       22.292       15.191      564.398      496.927      230.755        0.348        0.065       75.234        6.805        0.008      347.005       25.661      864.838
07/25/2013  09:20:00     -123.657      -71.027      -10.219       40.133       31.422       20.607     1610.694      987.332      424.653        1.173        0.151      142.604       10.629        0.006      346.965       25.591      864.840
07/25/2013  09:21:00      -67.355      -14.885       -2.055       34.433       33.224       25.657     1185.612     1103.831      658.294        0.385        0.147       68.980       28.690        0.173      347.165       25.936      864.836
07/25/2013  09:22:00      -74.323      -62.892       -3.922       35.969       30.002       18.282     1293.772      900.129      334.227        0.601        0.126       97.362       13.850        0.020      347.049       25.737      864.837
07/25/2013  09:23:00      -85.900      -51.585      -13.243       25.089       20.056       13.067      629.482      402.254      170.745        0.571        0.060      100.199        9.473        0.009      347.035       25.712      864.832
07/25/2013  09:24:00      -50.647       14.324       -0.796       13.725       21.285       13.739      188.381      453.032      188.771        0.180        0.042       52.633        7.721        0.022      347.124       25.867      864.825
07/25/2013  09:25:00      -76.508      -27.408        0.023       31.948       23.293       13.399     1020.651      542.560      179.531        0.417        0.087       81.270       10.473        0.017      347.143       25.899      864.825
07/25/2013  09:26:00      -21.609      -10.974        2.722       20.275       17.596       17.027      411.060      309.620      289.925        0.080        0.051       24.236        9.788        0.163      347.472       26.467      864.822
07/25/2013  09:27:00       28.452      -16.705       28.421       44.619       67.696       46.649     1990.896     4582.691     2176.132        0.532        0.437       32.993       51.375        2.425      347.892       27.193      864.818
07/25/2013  09:28:00       25.865       -2.832       54.192       41.773       70.348       33.612     1744.948     4948.830     1129.768        0.572        0.391       26.020       25.008        0.924      347.920       27.240      864.811
07/25/2013  09:29:00       59.137      -84.131      -14.770       56.039       86.870       51.343     3140.351     7546.322     2636.151        1.206        0.666      102.836       44.869        0.190      347.653       26.777      864.801
07/25/2013  09:30:00       54.611      -88.792      -10.521       48.801       75.273       51.421     2381.537     5666.038     2644.069        1.083        0.535      104.242       42.258        0.164      347.610       26.706      864.808
07/25/2013  09:31:00       21.281      -81.869       -0.871       33.160       41.433       28.874     1099.612     1716.720      833.684        0.540        0.183       84.589       29.430        0.121      347.461       26.448      864.802
07/25/2013  09:32:00       31.612      -84.896       16.905       46.349       61.767       40.413     2148.232     3815.121     1633.230        0.804        0.380       90.590       41.427        0.209      347.772       26.984      864.793
07/25/2013  09:33:00       14.980     -108.624        3.398       32.630       48.836       34.105     1064.749     2384.922     1163.139        0.832        0.231      109.653       27.200        0.062      347.723       26.900      864.786
07/25/2013  09:34:00       47.332     -156.450      -12.360       53.884       46.615       38.228     2903.442     2172.914     1461.383        1.670        0.327      163.453       28.961        0.031      347.458       26.441      864.776
07/25/2013  09:35:00       19.716      -95.115        9.515       58.186       55.977       58.544     3385.633     3133.376     3427.375        0.973        0.497       97.137       40.128        0.171      347.825       27.076      864.765
07/25/2013  09:36:00       24.909     -116.739      -10.994       54.569       56.205       41.450     2977.724     3159.040     1718.118        1.111        0.393      119.367       25.075        0.044      347.770       26.980      864.759
07/25/2013  09:37:00       69.379       -5.303       18.818       55.204       33.962       44.574     3047.527     1153.388     1986.829        0.569        0.309       69.581       40.663        0.342      347.835       27.092      864.766
07/25/2013  09:38:00       25.143      -18.184       21.318       44.345       40.562       44.601     1966.487     1645.245     1989.262        0.351        0.280       31.029       31.037        1.000      348.073       27.505      864.743
07/25/2013  09:39:00        3.859       -8.984       25.303       22.744       48.119       31.228      517.299     2315.406      975.178        0.227        0.190        9.777       17.297        3.130      348.146       27.628      864.743
07/25/2013  09:40:00        5.171       -0.600       48.424       21.938       28.546       17.470      481.275      814.854      305.184        0.199        0.080        5.205       12.559        5.821      348.738       28.652      864.728
07/25/2013  09:41:00       26.491      -32.985       19.953       27.946       41.072       30.403      781.001     1686.890      924.351        0.279        0.170       42.306       18.947        0.201      347.691       26.844      864.724
07/25/2013  09:42:00       14.868      -25.132       -2.731       23.637       21.703       22.829      558.692      471.017      521.143        0.121        0.078       29.200        9.186        0.099      347.742       26.931      864.712
07/25/2013  09:43:00       -5.282      -11.059       10.266       10.225       15.070       22.015      104.542      227.101      484.654        0.054        0.041       12.255       13.630        1.237      348.488       28.221      864.702
07/25/2013  09:44:00        1.867      -25.388        6.740       17.293       21.399       21.840      299.036      457.897      476.966        0.096        0.062       25.456        9.925        0.152      348.181       27.691      864.697
07/25/2013  09:45:00       -8.650        4.153        5.673       28.275       18.825       27.365      799.470      354.389      748.863        0.101        0.095        9.595       21.514        5.027      348.575       28.372      864.687
07/25/2013  09:46:00        6.726       19.255       34.621       23.256       35.814       25.483      540.858     1282.674      649.402        0.204        0.124       20.396       16.098        0.623      348.964       29.044      864.696
07/25/2013  09:47:00      -39.010       -7.984       18.215       35.333       20.793       22.433     1248.398      432.350      503.260        0.205        0.109       39.819       23.532        0.349      348.495       28.235      864.691
07/25/2013  09:48:00      -23.770      -18.339       12.534       23.999       21.886       18.744      575.971      479.000      351.340        0.123        0.070       30.022       15.050        0.251      348.012       27.398      864.706
07/25/2013  09:49:00      -38.696       12.262        5.726       19.988       14.035       14.422      399.514      196.970      208.008        0.124        0.040       40.592       10.669        0.069      347.853       27.125      864.701
07/25/2013  09:50:00      -41.015        3.163        4.112       29.809       22.945       14.908      888.566      526.461      222.261        0.167        0.082       41.137        7.203        0.031      347.934       27.264      864.700
07/25/2013  09:51:00      -77.484      -26.798       -1.093       27.503       22.488       17.941      756.409      505.731      321.863        0.415        0.079       81.987       15.584        0.036      347.737       26.922      864.702
07/25/2013  09:52:00      -34.938      -35.736       -5.766       25.413       24.501       15.157      645.829      600.290      229.747        0.200        0.074       49.977       13.536        0.073      347.848       27.115      864.699
07/25/2013  09:53:00       -2.287      -27.313       11.008       24.349       23.354       18.887      592.895      545.388      356.701        0.118        0.075       27.408        5.658        0.043      348.270       27.846      864.693
07/25/2013  09:54:00       -1.792      -37.623        6.907       23.431       24.718       32.870      549.016      610.997     1080.448        0.185        0.112       37.666        7.446        0.039      348.209       27.738      864.688
07/25/2013  09:55:00      -38.511      -39.934      -20.754       28.015       32.767       20.148      784.832     1073.697      405.939        0.289        0.113       55.478       10.718        0.037      347.892       27.189      864.690
07/25/2013  09:56:00      -11.615       16.964       16.583       15.425       21.519       21.088      237.934      463.076      444.716        0.092        0.057       20.559        8.744        0.181      348.988       29.087      864.692
07/25/2013  09:57:00       -4.710       17.189       50.042       22.036       31.348       18.111      485.575      982.716      328.007        0.231        0.090       17.822       16.511        0.858      349.218       29.484      864.692
07/25/2013  09:58:00       60.292       49.113       46.241       48.521       36.775       23.506     2354.270     1352.387      552.527        0.622        0.213       77.764       11.318        0.021      348.401       28.069      864.694
07/25/2013  09:59:00        6.130      -26.613       26.949       20.399       26.754       25.173      416.132      715.802      633.701        0.162        0.088       27.310       15.400        0.318      348.804       28.769      864.692
07/25/2013  10:00:00       -3.076       -7.146       32.302       29.106       34.713       26.782      847.182     1205.003      717.256        0.194        0.138        7.780       20.050        6.642      348.811       28.779      864.695
07/25/2013  10:01:00       56.737       40.357       30.555       62.779       61.604       40.310     3941.239     3795.018     1624.908        0.757        0.468       69.626       39.526        0.322      348.452       28.160      864.688
07/25/2013  10:02:00       44.006       33.639       48.843       26.789       29.479       38.550      717.627      869.019     1486.073        0.426        0.154       55.391       12.555        0.051      348.512       28.262      864.696
07/25/2013  10:03:00       75.165       67.403       35.696       59.099       47.050       44.385     3492.693     2213.686     1969.989        0.957        0.384      100.960       34.524        0.117      348.405       28.078      864.690
07/25/2013  10:04:00      102.287       75.310       23.463       43.732       43.284       37.964     1912.495     1873.535     1441.282        1.096        0.261      127.021       23.288        0.034      348.178       27.684      864.696
07/25/2013  10:05:00       96.764       89.497       13.470       33.389       39.115       33.967     1114.795     1529.989     1153.726        1.068        0.190      131.806       18.331        0.019      348.165       27.664      864.700
07/25/2013  10:06:00      127.577       76.759       16.523       34.557       36.627       35.085     1194.178     1341.525     1230.979        1.310        0.188      148.888       22.829        0.024      347.927       27.250      864.693
07/25/2013  10:07:00      117.113       84.096        9.635       29.797       18.228       23.265      887.837      332.250      541.256        1.132        0.088      144.179       14.876        0.011      347.954       27.297      864.694
07/25/2013  10:08:00       86.152       68.403       28.069       28.959       22.255       20.936      838.643      495.287      438.319        0.733        0.089      110.006       13.924        0.016      348.011       27.395      864.693
07/25/2013  10:09:00      108.996       75.598       21.456       35.489       28.556       28.775     1259.435      815.453      827.997        1.048        0.145      132.647       16.622        0.016      348.185       27.697      864.684
07/25/2013  10:10:00       73.219       54.025       17.499       39.167       23.408       20.808     1534.036      547.931      432.983        0.555        0.126       90.993        9.944        0.012      348.099       27.548      864.685
07/25/2013  10:11:00       85.846       54.026       32.299       33.806       33.319       42.851     1142.879     1110.160     1836.203        0.771        0.204      101.432       21.669        0.046      348.352       27.986      864.671
07/25/2013  10:12:00       37.999        4.914       19.964       25.893       36.116       22.381      670.440     1304.363      500.895        0.217        0.124       38.315       13.468        0.124      348.544       28.317      864.665
07/25/2013  10:13:00       32.011       14.728       18.688       27.546       33.717       33.142      758.798     1136.854     1098.399        0.229        0.150       35.236       15.370        0.190      349.103       29.285      864.654
07/25/2013  10:14:00       46.571       35.967       50.008       31.793       32.733       19.902     1010.783     1071.468      396.105        0.422        0.124       58.842        8.481        0.021      349.246       29.533      864.658
07/25/2013  10:15:00       11.832       30.753       33.258       28.605       37.915       26.478      818.265     1437.563      701.067        0.257        0.148       32.950       11.771        0.128      349.144       29.358      864.648
07/25/2013  10:16:00       17.131       12.667       27.186       20.066       27.873       20.999      402.658      776.897      440.970        0.141        0.081       21.305       11.283        0.280      349.111       29.301      864.658
07/25/2013  10:17:00        6.578       35.771       43.651       27.241       26.888       24.713      742.078      722.974      610.708        0.265        0.104       36.371       22.275        0.375      349.116       29.309      864.647
07/25/2013  10:18:00       11.987       33.562       25.423       25.284       23.483       30.533      639.293      551.467      932.279        0.202        0.106       35.639       16.112        0.204      349.126       29.327      864.656
07/25/2013  10:19:00       25.744       22.416       22.526       27.196       24.124       30.468      739.631      581.959      928.312        0.196        0.112       34.135       21.909        0.412      349.133       29.339      864.655
07/25/2013  10:20:00       73.522       56.516       25.429       66.216       39.583       34.195     4384.493     1566.835     1169.265        0.818        0.356       92.734       31.266        0.114      348.748       28.671      864.658
07/25/2013  10:21:00      107.330       88.173       18.199       74.890       51.141       45.316     5608.446     2615.374     2053.501        1.495        0.514      138.904       34.127        0.060      348.735       28.648      864.647
07/25/2013  10:22:00       56.057      100.468       -6.776       47.537       55.440       44.445     2259.803     3073.640     1975.368        1.029        0.365      115.049       23.547        0.042      348.877       28.894      864.642
07/25/2013  10:23:00       62.407       68.367       75.144       45.046       54.921       27.726     2029.171     3016.324      768.738        1.001        0.291       92.567       19.468        0.044      348.877       28.894      864.639
07/25/2013  10:24:00       68.242       65.614       38.216       46.070       39.319       26.744     2122.447     1546.017      715.247        0.740        0.219       94.669       21.913        0.054      348.416       28.097      864.651
07/25/2013  10:25:00       49.233       43.467       20.065       32.284       27.023       34.024     1042.272      730.220     1157.600        0.382        0.147       65.676       18.738        0.081      348.740       28.656      864.647
07/25/2013  10:26:00       38.786       53.998       -5.031       20.915       28.912       25.019      437.417      835.896      625.947        0.317        0.095       66.484       10.646        0.026      348.537       28.305      864.646
07/25/2013  10:27:00      -14.867       28.617       -1.899       27.297       27.011       28.073      745.148      729.606      788.097        0.165        0.113       32.248       20.117        0.389      348.826       28.807      864.640
07/25/2013  10:28:00       13.766        6.563       25.875       20.921       26.253       20.540      437.693      689.204      421.908        0.123        0.077       15.250       11.542        0.573      349.550       30.061      864.643
07/25/2013  10:29:00       11.035       30.906       -1.540       20.618       20.437       27.691      425.119      417.678      766.800        0.134        0.080       32.817       11.958        0.133      348.979       29.070      864.629
07/25/2013  10:30:00       45.409       21.291       37.276       44.457       29.651       25.280     1976.441      879.163      639.083        0.370        0.175       50.152       17.146        0.117      349.194       29.444      864.623
07/25/2013  10:31:00      100.032       64.014       30.517       60.200       45.347       39.076     3624.044     2056.366     1526.950        1.112        0.360      118.761       27.306        0.053      348.977       29.068      864.617
07/25/2013  10:32:00      145.623       60.975       27.818       65.222       48.510       41.807     4253.845     2353.223     1747.824        1.702        0.418      157.874       28.817        0.033      348.806       28.769      864.621
07/25/2013  10:33:00       45.540       76.138       -6.667       40.715       56.061       40.114     1657.690     3142.859     1609.103        0.716        0.320       88.719       18.357        0.043      348.969       29.053      864.611
07/25/2013  10:34:00       23.864       17.998       10.385       34.905       27.581       18.809     1218.379      760.705      353.783        0.167        0.117       29.890       10.764        0.130      349.417       29.831      864.608
07/25/2013  10:35:00      -18.086        1.400       22.988       38.534       29.763       22.209     1484.897      885.831      493.231        0.186        0.143       18.140       15.650        0.744      349.818       30.528      864.600
07/25/2013  10:36:00      -10.289       -9.244       21.092       22.218       50.380       21.014      493.649     2538.194      441.571        0.205        0.174       13.832       23.343        2.848      349.137       29.345      864.594
07/25/2013  10:37:00       23.830       -6.959       26.392       32.717       41.002       24.313     1070.373     1681.182      591.098        0.233        0.167       24.825       14.747        0.353      349.042       29.180      864.593
07/25/2013  10:38:00        9.417       -7.672       15.883       31.042       39.558       28.703      963.579     1564.804      823.886        0.188        0.168       12.146       18.068        2.213      349.432       29.858      864.581
07/25/2013  10:39:00        5.868        6.254       25.002       34.945       22.445       20.611     1221.126      503.759      424.801        0.142        0.107        8.576       12.830        2.238      350.194       31.179      864.572
07/25/2013  10:40:00       93.847       68.974       22.233       61.633       40.401       41.552     3798.663     1632.226     1726.600        1.061        0.358      116.468       19.172        0.027      349.352       29.716      864.562
07/25/2013  10:41:00       50.405       58.258       -8.839       45.591       39.195       30.869     2078.531     1536.286      952.872        0.529        0.228       77.036       12.297        0.025      349.124       29.323      864.563
07/25/2013  10:42:00       19.314       23.233       26.405       24.730       26.095       26.229      611.580      680.942      687.952        0.179        0.099       30.213       20.830        0.475      349.548       30.058      864.556
07/25/2013  10:43:00       77.241       84.219        2.608       40.626       48.242       47.378     1650.491     2327.293     2244.635        0.964        0.311      114.277       32.729        0.082      349.177       29.414      864.567
07/25/2013  10:44:00      -38.098       32.338       -1.544       65.071       36.701       22.546     4234.257     1346.986      508.314        0.429        0.304       49.972       15.299        0.094      349.066       29.220      864.560
07/25/2013  10:45:00      -83.426      -38.990        7.804       52.440       43.311       33.639     2749.934     1875.854     1131.577        0.715        0.288       92.088       37.018        0.162      349.251       29.543      864.554
07/25/2013  10:46:00      -11.376      -28.016       20.373       20.450       54.806       34.517      418.195     3003.689     1191.410        0.297        0.231       30.237       38.162        1.593      349.379       29.764      864.546
07/25/2013  10:47:00       36.238       47.709       52.873       45.511       41.467       50.793     2071.296     1719.535     2579.972        0.638        0.319       59.911       19.155        0.102      349.498       29.970      864.559
07/25/2013  10:48:00        4.836       63.311       60.194       52.504       50.389       51.848     2756.621     2539.086     2688.202        0.782        0.399       63.495       21.832        0.118      349.252       29.544      864.544
07/25/2013  10:49:00       36.218       96.861        5.581       49.937       68.220       46.476     2493.735     4653.931     2160.060        1.001        0.465      103.411       36.739        0.126      349.505       29.983      864.545
07/25/2013  10:50:00      107.855       80.013        8.435       62.495       56.422       43.602     3905.681     3183.487     1901.172        1.355        0.450      134.293       28.571        0.045      349.262       29.561      864.534
07/25/2013  10:51:00       59.239       30.412       16.126       56.393       37.737       38.405     3180.168     1424.058     1474.981        0.539        0.304       66.589       33.207        0.249      349.614       30.172      864.538
07/25/2013  10:52:00      122.672       78.602       28.395       44.506       52.091       33.696     1980.813     2713.442     1135.389        1.393        0.291      145.694        9.976        0.005      349.117       29.310      864.533
07/25/2013  10:53:00       86.967       68.556       20.988       45.932       18.514       25.791     2109.793      342.779      665.157        0.791        0.156      110.739       14.492        0.017      348.927       28.980      864.534
07/25/2013  10:54:00        6.121       40.395       11.021       22.438       23.010       20.895      503.442      529.457      436.596        0.163        0.073       40.856       10.078        0.061      349.432       29.855      864.521
07/25/2013  10:55:00       -4.427       83.711       12.066       29.487       56.522       29.480      869.476     3194.793      869.088        0.605        0.247       83.828       34.633        0.171      349.799       30.493      864.526
07/25/2013  10:56:00      -18.364      137.276        1.664       38.019       53.587       33.896     1445.454     2871.535     1148.960        1.232        0.273      138.498       33.095        0.057      349.607       30.160      864.516
07/25/2013  10:57:00      -13.204       89.195        2.280       19.282       52.907       35.996      371.786     2799.130     1295.712        0.630        0.223       90.167       32.504        0.130      349.887       30.648      864.517
07/25/2013  10:58:00      -15.021      119.829        2.527       30.773       42.830       36.619      946.959     1834.419     1340.931        0.936        0.206      120.767       24.296        0.040      349.816       30.522      864.508
07/25/2013  10:59:00      -22.895       24.026       14.303       22.837       41.093       30.736      521.524     1688.612      944.724        0.223        0.158       33.187       10.308        0.096      350.214       31.215      864.511
07/25/2013  11:00:00       12.099       -0.801       -6.840       15.420       26.424       13.035      237.781      698.245      169.906        0.065        0.055       12.125        2.938        0.059      349.396       29.794      864.514
07/25/2013  11:01:00      -10.666      -67.579        0.348       19.534       37.285       20.647      381.573     1390.147      426.291        0.344        0.110       68.416        8.764        0.016      349.265       29.565      864.502
07/25/2013  11:02:00        5.696      -43.255       -0.250       38.569       30.311       27.824     1487.552      918.770      774.172        0.254        0.159       43.629       23.531        0.291      349.628       30.196      864.506
07/25/2013  11:03:00       30.814      -55.557        7.614       43.695       29.571       29.291     1909.265      874.466      857.946        0.387        0.182       63.531       13.743        0.047      349.300       29.628      864.496
07/25/2013  11:04:00       36.280      -51.391        0.753       32.407       34.470       24.828     1050.234     1188.148      616.413        0.341        0.143       62.907       21.488        0.117      349.217       29.483      864.507
07/25/2013  11:05:00       12.727        1.855       48.142       35.061       37.127       22.149     1229.260     1378.443      490.576        0.279        0.155       12.862       20.818        2.620      350.414       31.563      864.500
07/25/2013  11:06:00       31.064        7.114       38.763       23.861       19.893       17.777      569.345      395.715      316.020        0.190        0.064       31.868        8.761        0.076      349.989       30.822      864.499
07/25/2013  11:07:00       24.611       -1.063       22.355       31.878       27.237       22.659     1016.220      741.842      513.425        0.169        0.114       24.634       11.228        0.208      349.839       30.563      864.499
07/25/2013  11:08:00       13.483      -55.255       -0.303       18.334       33.434       25.904      336.143     1117.866      671.022        0.268        0.106       56.876       18.102        0.101      349.480       29.939      864.485
07/25/2013  11:09:00       -7.709      -51.611       -2.567       35.338       28.340       13.383     1248.781      803.164      179.106        0.248        0.112       52.184        8.622        0.027      349.421       29.837      864.485
07/25/2013  11:10:00      -10.950        8.165       -0.948       32.385       30.697       22.079     1048.762      942.283      487.488        0.133        0.124       13.659       18.543        1.843      349.853       30.587      864.479
07/25/2013  11:11:00        0.823       11.512       12.923       22.720       41.384       23.730      516.183     1712.659      563.111        0.155        0.140       11.541       12.254        1.127      350.367       31.480      864.485
07/25/2013  11:12:00        1.203        8.242       30.801       21.006       16.464       12.477      441.263      271.054      155.670        0.094        0.043        8.329        5.418        0.423      350.687       32.036      864.477
07/25/2013  11:13:00      -10.239       64.331        1.754       23.354       41.669       27.135      545.400     1736.341      736.303        0.363        0.151       65.141       26.371        0.164      350.145       31.093      864.476
07/25/2013  11:14:00      -65.645       22.744       -7.917       23.393       20.511       17.647      547.237      420.686      311.431        0.308        0.064       69.473       12.886        0.034      349.623       30.188      864.471
07/25/2013  11:15:00      -28.085       48.389       24.908       40.877       67.031       37.047     1670.932     4493.200     1372.483        0.564        0.377       55.949       25.597        0.209      350.255       31.286      864.456
07/25/2013  11:16:00        4.164       -8.544       18.023       43.966       28.423       28.479     1932.975      807.848      811.049        0.198        0.178        9.505       21.111        4.933      350.237       31.255      864.449
07/25/2013  11:17:00       16.796      -12.280       21.308       44.917       63.822       33.555     2017.507     4073.249     1125.953        0.405        0.361       20.806       19.549        0.883      349.763       30.431      864.437
07/25/2013  11:18:00       74.216       52.702       31.139       66.370       36.606       32.724     4404.994     1339.978     1070.864        0.803        0.341       91.025       25.332        0.077      350.186       31.163      864.445
07/25/2013  11:19:00       96.295       67.759        8.023       55.292       41.677       36.649     3057.192     1736.987     1343.131        1.003        0.307      117.745       13.707        0.014      349.906       30.678      864.431
07/25/2013  11:20:00      147.300       88.193       14.057       50.744       58.086       38.324     2574.948     3373.945     1468.693        1.854        0.371      171.684       21.356        0.015      349.731       30.372      864.427
07/25/2013  11:21:00       38.218       28.066       33.479       45.941       51.006       41.708     2110.611     2601.637     1739.597        0.491        0.323       47.416       35.783        0.569      350.035       30.904      864.421
07/25/2013  11:22:00       65.216       29.595       20.621       66.492       45.475       34.326     4421.247     2067.955     1178.281        0.661        0.383       71.617       21.774        0.092      349.899       30.666      864.405
07/25/2013  11:23:00       45.251       60.851       34.609       24.847       25.373       28.850      617.379      643.766      832.302        0.452        0.105       75.833       10.758        0.020      349.867       30.610      864.396
07/25/2013  11:24:00       65.545       66.337        8.022       52.820       40.673       34.007     2789.931     1654.295     1156.465        0.718        0.280       93.257       31.112        0.111      350.004       30.849      864.381
07/25/2013  11:25:00      183.908      128.200       28.122       68.283       61.867       48.542     4662.597     3827.518     2356.331        3.095        0.542      224.182       22.383        0.010      349.699       30.315      864.361
07/25/2013  11:26:00      187.575       95.968       28.886       79.131       73.111       55.688     6261.788     5345.233     3101.122        2.997        0.735      210.700       42.411        0.041      349.721       30.353      864.344
07/25/2013  11:27:00       85.939       63.864       13.102       51.929       40.566       30.969     2696.659     1645.612      959.099        0.847        0.265      107.071       27.631        0.067      349.583       30.118      864.346
07/25/2013  11:28:00       -5.256        0.396      -16.722       14.038       18.656       13.977      197.056      348.049      195.359        0.052        0.037        5.271       12.031        5.211      349.854       30.588      864.332
07/25/2013  11:29:00       46.000       34.594       18.420       81.458       61.460       25.095     6635.344     3777.284      629.778        0.735        0.552       57.556       40.638        0.499      350.158       31.116      864.314
07/25/2013  11:30:00      167.086       66.194        6.024       69.454       65.292       47.226     4823.867     4263.074     2230.282        2.182        0.566      179.720       27.410        0.023      350.000       30.839      864.303
07/25/2013  11:31:00      128.795       64.292       26.505       84.733       68.211       49.524     7179.599     4652.721     2452.647        1.785        0.714      143.950       20.827        0.021      349.961       30.771      864.299
07/25/2013  11:32:00      158.767      139.755       20.654       90.044       80.765       56.259     8107.884     6523.030     3165.117        3.148        0.890      211.515       28.697        0.018      350.136       31.076      864.272
07/25/2013  11:33:00      158.002      131.909       11.216       57.591       65.061       45.566     3316.696     4232.902     2076.298        2.606        0.481      205.827       33.137        0.026      349.634       30.203      864.287
07/25/2013  11:34:00       82.750       70.896       17.885       39.674       27.780       29.256     1574.045      771.740      855.894        0.770        0.160      108.967       19.400        0.032      349.718       30.351      864.300
07/25/2013  11:35:00       -4.870       56.733        0.440       43.834       34.110       25.264     1921.383     1163.505      638.275        0.348        0.186       56.942       19.549        0.118      349.851       30.582      864.273
07/25/2013  11:36:00     -122.073       48.012      -30.092       69.494       42.817       19.910     4829.477     1833.309      396.427        1.258        0.353      131.175       16.720        0.016      349.668       30.266      864.242
07/25/2013  11:37:00      -93.200      -40.783        3.928       59.876       43.470       31.682     3585.095     1889.668     1003.774        0.842        0.324      101.732       35.164        0.119      349.868       30.612      864.232
07/25/2013  11:38:00     -116.238      -20.536        6.747       56.157       30.821       20.375     3153.629      949.917      415.156        0.925        0.226      118.038       19.412        0.027      349.973       30.794      864.208
07/25/2013  11:39:00       15.033       -5.439        8.434       41.143       43.713       41.102     1692.765     1910.861     1689.337        0.281        0.265       15.987       28.842        3.255      350.525       31.755      864.197
07/25/2013  11:40:00       80.861       46.745       29.592       73.360       36.055       31.605     5381.649     1299.960      998.866        0.864        0.384       93.400       31.018        0.110      350.527       31.758      864.192
07/25/2013  11:41:00       50.786       53.859       22.184       30.087       32.546       28.634      905.198     1059.229      819.923        0.438        0.139       74.027       21.253        0.082      350.359       31.466      864.178
07/25/2013  11:42:00       80.646       18.358       -5.767       75.742       78.305       36.546     5736.786     6131.633     1335.583        1.004        0.660       82.709       40.382        0.238      350.228       31.239      864.164
07/25/2013  11:43:00       76.246      -58.156       16.219       53.409       51.553       50.751     2852.521     2657.731     2575.653        0.877        0.404       95.894       31.908        0.111      350.242       31.262      864.145
07/25/2013  11:44:00       50.346      -53.524       36.167       62.236       74.994       51.835     3873.274     5624.171     2686.846        0.944        0.609       73.482       44.839        0.372      350.485       31.684      864.127
07/25/2013  11:45:00       70.366       25.159       91.379       88.159       91.487       67.153     7771.994     8369.886     4509.466        1.729        1.033       74.728       72.262        0.935      350.592       31.869      864.121
07/25/2013  11:46:00       40.992      -19.260       10.186       48.997       84.019       29.292     2400.669     7059.173      858.050        0.623        0.516       45.291       32.992        0.531      350.099       31.014      864.141
07/25/2013  11:47:00       38.500      -17.855       59.647       48.268       90.912       64.611     2329.831     8265.044     4174.541        1.006        0.738       42.438       69.509        2.683      350.480       31.675      864.128
07/25/2013  11:48:00       53.597      -22.245       47.136       45.766       62.534       48.743     2094.485     3910.480     2375.900        0.698        0.419       58.030       53.029        0.835      350.256       31.287      864.157
07/25/2013  11:49:00       53.452       18.906       50.036       71.660       41.382       39.484     5135.140     1712.483     1559.015        0.706        0.420       56.697       37.407        0.435      350.575       31.842      864.154
07/25/2013  11:50:00       16.446        8.007       11.245       37.389       29.228       26.487     1397.903      854.266      701.581        0.171        0.148       18.292       17.374        0.902      350.583       31.855      864.137
07/25/2013  11:51:00       18.856       38.150       14.844       38.804       48.432       32.873     1505.767     2345.663     1080.640        0.348        0.247       42.556       29.000        0.464      350.851       32.321      864.139
07/25/2013  11:52:00       -1.996       -4.723       26.028       51.305       38.985       31.598     2632.204     1519.830      998.413        0.293        0.258        5.127       20.695       16.292      350.702       32.064      864.137
07/25/2013  11:53:00       16.918      -59.863        4.137       36.006       53.808       45.006     1296.430     2895.291     2025.514        0.505        0.311       62.208       34.203        0.302      350.132       31.071      864.121
07/25/2013  11:54:00       41.004      -36.029       47.057       48.687       56.423       30.930     2370.452     3183.506      956.649        0.585        0.326       54.584       37.666        0.476      350.778       32.196      864.126
07/25/2013  11:55:00        6.640      -30.586       16.248       55.981       43.479       43.869     3133.878     1890.451     1924.521        0.409        0.347       31.298       35.575        1.292      350.536       31.774      864.129
07/25/2013  11:56:00      -74.323      -63.417      -10.131       20.083       34.582       17.285      403.321     1195.937      298.782        0.577        0.095       97.702        8.531        0.008      349.965       30.781      864.132
07/25/2013  11:57:00      -42.463        4.640      -27.038       31.588       33.281       34.915      997.810     1107.607     1219.042        0.294        0.166       42.715       25.392        0.353      350.207       31.201      864.131
07/25/2013  11:58:00     -110.964       19.438      -10.977       33.135       26.347       24.193     1097.908      694.141      585.285        0.759        0.119      112.653       13.266        0.014      350.123       31.055      864.112
07/25/2013  11:59:00       32.500       -1.430       26.568       35.931       19.338       26.647     1291.049      373.948      710.081        0.207        0.119       32.532       19.251        0.350      350.846       32.314      864.104
07/25/2013  12:00:00       25.216       -8.771       16.180       39.338       20.281       21.886     1547.498      411.328      478.980        0.171        0.122       26.698       14.278        0.286      350.598       31.884      864.102
07/25/2013  12:01:00       20.990        9.692       40.900       35.305       34.844       25.030     1246.467     1214.100      626.507        0.265        0.154       23.120       24.054        1.082      350.572       31.836      864.086
07/25/2013  12:02:00       20.574       -6.675       -1.569       56.925       24.761       22.506     3240.449      613.109      506.518        0.241        0.218       21.629       23.559        1.186      350.052       30.932      864.077
07/25/2013  12:03:00      -81.370       20.000       -3.471       29.952       39.117       22.633      897.115     1530.142      512.236        0.499        0.147       83.792       20.302        0.059      350.508       31.724      864.068
07/25/2013  12:04:00      -74.671       -0.114      -12.059       32.039       25.999       17.444     1026.500      675.943      304.310        0.386        0.100       74.671       17.512        0.055      350.202       31.192      864.053
07/25/2013  12:05:00      -37.302        4.659      -20.099       22.755       42.088       19.815      517.791     1771.380      392.629        0.225        0.134       37.592       16.152        0.185      350.526       31.755      864.033
07/25/2013  12:06:00      -61.942      -50.684        5.827       40.240       37.881       20.205     1619.250     1434.947      408.244        0.495        0.173       80.036        9.102        0.013      350.644       31.961      864.020
07/25/2013  12:07:00      -51.931      -16.299        6.842       31.948       40.756       27.791     1020.693     1661.047      772.342        0.323        0.173       54.429       23.500        0.186      350.485       31.686      864.002
07/25/2013  12:08:00        4.029      -91.062        4.768       39.348       30.613       27.720     1548.286      937.134      768.412        0.579        0.163       91.151       14.980        0.027      350.418       31.569      864.003
07/25/2013  12:09:00      -28.371      -80.137        7.657       32.713       25.006       25.425     1070.121      625.282      646.418        0.481        0.117       85.011       14.718        0.030      350.259       31.290      863.997
07/25/2013  12:10:00        7.202        8.654       18.317       35.698       57.049       30.985     1274.375     3254.556      960.065        0.297        0.274       11.259       31.596        7.876      350.889       32.389      863.994
07/25/2013  12:11:00      182.045      140.052       46.756      100.032       77.348       53.279    10006.498     5982.647     2838.599        3.688        0.941      229.685       14.833        0.004      350.825       32.274      863.982
07/25/2013  12:12:00      254.843      174.511       48.650      115.397       89.677       54.896    13316.485     8041.946     3013.552        6.106        1.219      308.867       27.059        0.008      350.690       32.038      863.978
07/25/2013  12:13:00      123.923       83.293       48.441       68.326       56.700       47.269     4668.483     3214.861     2234.358        1.738        0.506      149.314       32.372        0.047      351.026       32.625      863.995
07/25/2013  12:14:00       76.126       76.061       49.509       76.242       62.712       41.291     5812.827     3932.734     1704.923        1.274        0.573      107.613       26.282        0.060      351.052       32.673      863.990
07/25/2013  12:15:00       47.081      -30.097       33.743       69.957       53.241       43.664     4894.005     2834.583     1906.588        0.695        0.482       55.879       37.722        0.456      351.005       32.591      863.990
07/25/2013  12:16:00      103.662      -13.868       28.484       76.044       74.155       56.667     5782.660     5498.992     3211.149        1.312        0.725      104.586       36.261        0.120      350.358       31.462      863.990
07/25/2013  12:17:00       56.707        8.454       13.561       53.269       37.798       35.726     2837.638     1428.669     1276.312        0.451        0.277       57.333       24.095        0.177      350.865       32.346      863.980
07/25/2013  12:18:00       38.856       21.517       33.248       37.434       44.201       43.500     1401.338     1953.685     1892.230        0.416        0.262       44.416       31.258        0.495      350.973       32.534      863.976
07/25/2013  12:19:00       39.626       16.441       25.865       43.435       29.426       26.734     1886.592      865.908      714.714        0.299        0.173       42.901       25.429        0.351      351.150       32.844      863.966
07/25/2013  12:20:00      102.525      112.552       99.713       89.413       78.505       61.887     7994.599     6162.960     3830.016        2.555        0.899      152.248       52.580        0.119      350.985       32.551      863.968
07/25/2013  12:21:00      160.341      137.358      124.514      111.613       90.867       98.506    12457.441     8256.818     9703.388        4.524        1.521      211.131       86.230        0.167      350.878       32.365      863.914
07/25/2013  12:22:00      182.353      142.170      125.790      107.417       77.486       83.328    11538.374     6004.011     6943.605        4.688        1.224      231.225       52.531        0.052      350.515       31.734      863.935
07/25/2013  12:23:00      104.091       63.675       86.699      101.167      110.878       69.969    10234.775    12293.833     4895.612        2.491        1.371      122.022       64.654        0.281      350.557       31.808      863.928
07/25/2013  12:24:00      154.453       86.387       23.221       91.374       69.816       47.850     8349.244     4874.331     2289.577        2.368        0.776      176.970       41.551        0.055      350.854       32.326      863.913
07/25/2013  12:25:00      188.133      149.686       27.156      107.810       88.669       78.398    11622.929     7862.128     6146.193        4.208        1.282      240.416       56.633        0.055      350.966       32.519      863.892
07/25/2013  12:26:00      134.948       78.606       18.199      110.668       67.155       56.864    12247.422     4509.730     3233.527        2.235        1.000      156.172       31.933        0.042      351.222       32.965      863.890
07/25/2013  12:27:00      184.478      115.381       67.423      115.050       87.046       86.038    13236.529     7577.014     7402.537        4.005        1.411      217.589       59.955        0.076      351.185       32.901      863.886
07/25/2013  12:28:00      100.096      132.462      147.415      102.712       98.807       92.203    10549.711     9762.849     8501.304        3.905        1.441      166.028       89.494        0.291      350.845       32.308      863.889
07/25/2013  12:29:00      106.109      -79.546       21.954       89.852      119.936       71.779     8073.302    14384.723     5152.176        2.283        1.381      132.615       78.273        0.348      350.917       32.434      863.886
07/25/2013  12:30:00       75.546      -43.748       43.442       73.350       78.625       54.138     5380.246     6181.872     2930.912        1.200        0.725       87.299       44.926        0.265      351.221       32.965      863.853
07/25/2013  12:31:00       97.809       69.071       58.117      122.091       87.013       57.062    14906.314     7571.284     3256.063        2.172        1.287      119.739       52.144        0.190      351.171       32.878      863.843
07/25/2013  12:32:00      193.660      127.817       45.742       69.400       59.319       50.832     4816.384     3518.704     2583.912        3.342        0.546      232.037       31.527        0.018      350.767       32.172      863.841
07/25/2013  12:33:00      104.997       96.706       -0.174       65.406       48.769       39.967     4277.967     2378.382     1597.365        1.431        0.413      142.746       24.996        0.031      350.814       32.256      863.816
07/25/2013  12:34:00       37.225       52.313        9.342       37.346       54.597       39.957     1394.712     2980.852     1596.599        0.509        0.299       64.205       30.928        0.232      351.037       32.645      863.792
07/25/2013  12:35:00       34.687       40.214        9.012       60.782       55.338       37.199     3694.484     3062.247     1383.801        0.552        0.407       53.107       17.909        0.114      351.245       33.009      863.772
07/25/2013  12:36:00      106.490       75.202       20.743       63.461       53.452       43.240     4027.316     2857.166     1869.696        1.309        0.438      130.367       23.852        0.033      351.360       33.207      863.751
07/25/2013  12:37:00       87.885       63.732        5.349       50.204       53.248       47.747     2520.398     2835.347     2279.741        0.972        0.382      108.562       24.770        0.052      351.026       32.627      863.735
07/25/2013  12:38:00       90.918       36.304       11.665       62.446       44.030       39.800     3899.555     1938.608     1584.068        0.857        0.371       97.899       35.454        0.131      351.439       33.346      863.725
07/25/2013  12:39:00       94.834       39.789       26.752       51.308       49.189       43.117     2632.526     2419.581     1859.115        0.910        0.346      102.842       30.800        0.090      351.133       32.813      863.720
07/25/2013  12:40:00       31.553       18.051       31.059       50.675       44.731       38.209     2567.925     2000.867     1459.914        0.416        0.301       36.351       11.318        0.097      351.425       33.321      863.701
07/25/2013  12:41:00       27.134      -41.107       27.649       63.871      107.021       63.507     4079.467    11453.525     4033.085        1.137        0.978       49.255       73.227        2.210      351.272       33.054      863.684
07/25/2013  12:42:00       46.726     -158.784       -9.281       63.295       59.494       33.442     4006.280     3539.559     1118.371        1.807        0.433      165.516       20.657        0.016      350.906       32.415      863.696
07/25/2013  12:43:00       27.213     -137.464      -10.944       31.017       35.808       30.640      962.045     1282.190      938.837        1.147        0.159      140.132       16.049        0.013      350.902       32.410      863.697
07/25/2013  12:44:00        8.559      -57.532       18.507       25.202       39.935       32.589      635.138     1594.822     1062.041        0.351        0.165       58.165       22.898        0.155      351.063       32.692      863.692
07/25/2013  12:45:00       -0.127        1.344       43.058       20.220       35.082       24.977      408.832     1230.742      623.863        0.206        0.113        1.350       25.172      347.422      351.838       34.044      863.681
07/25/2013  12:46:00       64.166        6.027       34.933       79.815       61.439       39.593     6370.459     3774.747     1567.575        0.854        0.586       64.449       34.106        0.280      351.119       32.788      863.681
07/25/2013  12:47:00      199.764      139.448      101.865       97.436      105.101       68.267     9493.724    11046.276     4660.401        4.746        1.260      243.622       38.674        0.025      351.149       32.835      863.634
07/25/2013  12:48:00       16.868      -75.435       23.611       59.741       78.688       46.019     3569.014     6191.834     2117.763        0.920        0.594       77.298       39.410        0.260      351.634       33.688      863.621
07/25/2013  12:49:00        9.284       16.210       56.538       37.055       40.812       27.577     1373.072     1665.642      760.504        0.367        0.190       18.681       22.082        1.397      351.711       33.822      863.634
07/25/2013  12:50:00      -18.774       19.212       48.263       32.896       42.267       26.761     1082.174     1786.474      716.162        0.332        0.179       26.862       19.687        0.537      352.026       34.371      863.621
07/25/2013  12:51:00       19.897      -86.345       -4.679       65.043       78.045       46.195     4230.564     6090.977     2133.975        1.016        0.623       88.608       51.250        0.335      351.681       33.768      863.600
07/25/2013  12:52:00      -18.170     -112.548       -0.072       67.850       61.157       46.916     4603.626     3740.155     2201.086        1.177        0.527      114.006       36.331        0.102      351.503       33.457      863.582
07/25/2013  12:53:00       55.930      -67.429       14.910       68.963       94.610       58.418     4755.832     8950.969     3412.650        1.250        0.856       87.606       58.386        0.444      351.610       33.644      863.571
07/25/2013  12:54:00       19.198        3.841       41.716       58.471      112.307       51.808     3418.820    12612.940     2684.035        1.042        0.936       19.578       60.378        9.511      351.461       33.383      863.554
07/25/2013  12:55:00       56.494      -54.343       74.265       95.469      145.184       97.696     9114.371    21078.502     9544.493        2.569        1.987       78.388      105.207        1.801      351.683       33.771      863.531
07/25/2013  12:56:00       50.100     -105.163       43.665      130.523      149.881       87.412    17036.334    22464.260     7640.813        3.130        2.357      116.487      104.350        0.802      351.691       33.785      863.511
07/25/2013  12:57:00      261.820     -247.032      -54.335      167.763      200.391      101.539    28144.396    40156.408    10310.102       10.555        3.931      359.965      113.392        0.099      351.160       32.857      863.486
07/25/2013  12:58:00      -45.061     -161.856      -18.565       99.440       87.042       54.028     9888.228     7576.236     2919.078        2.447        1.019      168.011       35.079        0.044      351.519       33.482      863.511
07/25/2013  12:59:00       15.496      -68.724       22.130       83.770       76.070       55.982     7017.427     5786.688     3134.024        1.069        0.797       70.449       48.352        0.471      351.625       33.671      863.534
07/25/2013  13:00:00      -25.751      -78.625       26.698       78.263       96.149       55.371     6125.165     9244.605     3065.922        1.299        0.922       82.735       62.924        0.578      351.155       32.850      863.538
07/25/2013  13:01:00      -67.999      -27.662       15.635       93.733       48.038       32.883     8785.912     2307.646     1081.282        0.890        0.609       73.410       32.610        0.197      351.314       33.128      863.493
07/25/2013  13:02:00       13.543      -11.507       15.795       52.838       37.529       32.888     2791.853     1408.434     1081.651        0.292        0.264       17.771       15.117        0.724      351.276       33.062      863.513
07/25/2013  13:03:00       54.659       49.076       43.572       56.168       41.366       38.891     3154.819     1711.143     1512.508        0.684        0.319       73.458       14.687        0.040      351.483       33.423      863.512
07/25/2013  13:04:00      130.456      107.352       89.883      144.242      134.217       98.265    20805.733    18014.170     9656.093        4.254        2.424      168.947       90.423        0.286      351.266       33.043      863.478
07/25/2013  13:05:00      135.362      167.924      159.639      118.033      108.601       84.396    13931.692    11794.245     7122.725        5.242        1.642      215.687       73.030        0.115      351.160       32.856      863.459
07/25/2013  13:06:00      214.628      101.875       71.426      109.455       83.435       73.389    11980.464     6961.414     5385.929        4.293        1.216      237.579       45.429        0.037      351.327       33.148      863.470
07/25/2013  13:07:00       45.214       -0.124       38.500       56.443       86.882       49.923     3185.778     7548.474     2492.338        0.837        0.661       45.214       50.253        1.235      351.228       32.978      863.486
07/25/2013  13:08:00       27.480      -34.220        6.569       47.098       40.883       28.206     2218.230     1671.426      795.584        0.333        0.234       43.888       13.266        0.091      351.227       32.977      863.460
07/25/2013  13:09:00       57.950       65.427       47.819       77.568       64.171       45.422     6016.794     4117.968     2063.167        1.106        0.610       87.400       53.057        0.369      351.328       33.152      863.434
07/25/2013  13:10:00      142.180       97.715       61.070      113.533       60.366       67.084    12889.849     3644.093     4500.216        2.726        1.052      172.521       72.083        0.175      351.341       33.174      863.419
07/25/2013  13:11:00      145.694      108.252       25.261       63.579       58.014       51.671     4042.233     3365.569     2669.932        2.183        0.504      181.508       20.925        0.013      351.047       32.661      863.401
07/25/2013  13:12:00        7.584      -57.442       -1.446       44.731       55.459       29.177     2000.906     3075.755      851.325        0.464        0.296       57.940       29.108        0.252      351.341       33.175      863.352
07/25/2013  13:13:00      -17.481      119.878       -8.235       47.165       81.331       28.022     2224.542     6614.745      785.212        1.218        0.481      121.146       36.172        0.089      351.321       33.139      863.303
07/25/2013  13:14:00      -10.167       50.521       -0.854       48.434       43.637       32.274     2345.885     1904.214     1041.594        0.397        0.265       51.534       23.289        0.204      351.532       33.509      863.268
07/25/2013  13:15:00     -109.655       38.223      -22.362       36.885       51.606       26.198     1360.536     2663.227      686.327        0.935        0.236      116.126       27.213        0.055      351.054       32.675      863.244
07/25/2013  13:16:00       51.265       70.512       32.233       54.845       31.756       28.696     3007.937     1008.419      823.434        0.674        0.242       87.178       15.694        0.032      351.625       33.672      863.243
07/25/2013  13:17:00      170.433      106.161       32.832       96.545       74.720       64.869     9320.997     5583.025     4207.996        3.025        0.956      200.792       31.549        0.025      351.364       33.215      863.244
07/25/2013  13:18:00      212.191      167.508       65.048      160.344      127.809      111.586    25710.100    16335.015    12451.351        6.589        2.725      270.341       63.280        0.055      351.612       33.646      863.175
07/25/2013  13:19:00      254.773      205.155      172.509      254.777      201.290      134.866    64911.376    40517.553    18188.943       13.016        6.181      327.106      119.798        0.134      351.638       33.691      863.094
07/25/2013  13:20:00      216.563     -261.768      -47.736      148.888      184.321       95.172    22167.658    33974.307     9057.725        9.144        3.260      339.738      115.941        0.116      351.341       33.172      863.190
07/25/2013  13:21:00      179.216     -130.106       18.646      116.765      124.050       75.197    13633.974    15388.402     5654.555        4.203        1.734      221.464       79.514        0.129      351.482       33.420      863.221
07/25/2013  13:22:00      132.978      -74.618       29.646      105.572      100.628       66.218    11145.475    10125.948     4384.827        2.489        1.283      152.483       57.365        0.142      351.562       33.559      863.212
07/25/2013  13:23:00       58.806      -57.384       25.825       67.089      100.324       57.324     4500.925    10064.922     3286.022        1.263        0.893       82.165       51.839        0.398      351.544       33.529      863.227
07/25/2013  13:24:00       66.406      -68.933        7.339       68.440       76.315       49.656     4684.044     5824.036     2465.718        1.109        0.649       95.716       50.633        0.280      351.497       33.447      863.223
07/25/2013  13:25:00       67.253      -74.291       -6.256       56.150       82.169       51.660     3152.781     6751.729     2668.794        1.132        0.629      100.210       50.027        0.249      351.313       33.127      863.213
07/25/2013  13:26:00       26.990       -2.668       47.200       42.236       46.408       28.840     1783.907     2153.703      831.738        0.387        0.238       27.121       34.189        1.589      351.403       33.285      863.189
07/25/2013  13:27:00       19.970      -59.901       11.458       36.924       64.788       38.033     1363.390     4197.487     1446.500        0.556        0.350       63.142       32.782        0.270      351.254       33.023      863.170
07/25/2013  13:28:00       29.880       40.121       21.362       29.983       46.229       27.050      899.009     2137.076      731.728        0.336        0.188       50.025       13.935        0.078      351.456       33.375      863.145
07/25/2013  13:29:00       72.210       27.141       20.881       52.938       70.756       39.127     2802.453     5006.380     1530.911        0.786        0.467       77.142       20.377        0.070      351.237       32.994      863.127
07/25/2013  13:30:00       92.365       -6.008       28.175       77.596      124.623       55.257     6021.193    15530.954     3053.322        1.698        1.230       92.561       55.837        0.364      351.267       33.046      863.085
07/25/2013  13:31:00      269.981      141.022       83.411      164.339       95.259       76.696    27007.230     9074.210     5882.310        7.084        2.098      304.593       29.029        0.009      351.363       33.211      863.071
07/25/2013  13:32:00      136.798       99.532        2.607      110.221       83.631       71.340    12148.724     6994.164     5089.388        2.642        1.212      169.176       55.279        0.107      351.517       33.480      863.070
07/25/2013  13:33:00      177.236      125.166       20.482       78.941       51.981       57.352     6231.672     2702.015     3289.278        2.986        0.611      216.977       34.925        0.026      351.275       33.056      863.065
07/25/2013  13:34:00       45.916      206.310      -23.417       56.440      103.214       49.846     3185.433    10653.047     2484.577        3.077        0.816      211.358       56.737        0.072      351.493       33.437      863.059
07/25/2013  13:35:00        2.986      168.968      -11.660       55.808       78.091       51.888     3114.500     6098.282     2692.401        2.030        0.595      168.995       49.413        0.085      351.642       33.698      863.062
07/25/2013  13:36:00       -8.582      108.013      -19.722       38.756       56.516       28.792     1502.055     3194.102      828.996        0.883        0.276      108.354       20.438        0.036      351.291       33.087      863.063
07/25/2013  13:37:00      -25.024       18.127      -19.162       15.729       13.737       14.135      247.404      188.695      199.792        0.098        0.032       30.900        6.188        0.040      351.113       32.777      863.050
07/25/2013  13:38:00       23.662        4.973        0.769       51.819       34.413       21.572     2685.163     1184.270      465.367        0.246        0.217       24.178       10.092        0.174      350.959       32.509      863.044
07/25/2013  13:39:00      -12.783        4.064        1.235       37.119       20.371       24.939     1377.806      414.965      621.941        0.130        0.121       13.414       13.004        0.940      350.916       32.435      863.038
07/25/2013  13:40:00      -20.905       63.194      -14.175       36.999       35.787       25.338     1368.904     1280.688      641.992        0.396        0.165       66.562       16.308        0.060      351.276       33.062      862.996
07/25/2013  13:41:00       27.416       -5.664       23.546       37.642       28.840       25.809     1416.915      831.770      666.126        0.213        0.146       27.995       17.748        0.402      351.851       34.066      862.972
07/25/2013  13:42:00       35.098       35.833       58.271       60.350       45.904       41.763     3642.151     2107.220     1744.184        0.670        0.375       50.158       32.537        0.421      351.543       33.529      862.955
07/25/2013  13:43:00      120.545        6.594        1.102       82.678       40.455       40.981     6835.607     1636.611     1679.445        1.236        0.508      120.725        8.026        0.004      351.268       33.049      862.950
07/25/2013  13:44:00       73.813       -9.403       44.623       90.614      112.863       66.857     8210.863    12738.061     4469.915        1.647        1.271       74.409       68.917        0.858      351.886       34.124      862.920
07/25/2013  13:45:00       61.277       25.786      113.387      113.348      157.014      117.618    12847.743    24653.453    13833.902        3.430        2.567       66.482      128.669        3.746      351.890       34.132      862.902
07/25/2013  13:46:00      127.440       54.656       92.698      136.207      112.807       83.448    18552.355    12725.354     6963.592        3.302        1.912      138.666       74.494        0.289      351.957       34.247      862.890
07/25/2013  13:47:00       77.883        5.829       40.654      104.007      106.485       66.212    10817.489    11339.000     4384.040        1.714        1.327       78.101       69.667        0.796      352.157       34.597      862.870
07/25/2013  13:48:00      244.323      194.419       62.333      113.664       93.686       87.964    12919.442     8776.979     7737.589        6.540        1.472      312.238       61.478        0.039      351.823       34.011      862.854
07/25/2013  13:49:00      336.382      187.625       60.553       96.246       96.632       75.139     9263.316     9337.794     5645.916        8.813        1.212      385.170       33.938        0.008      351.811       33.990      862.855
07/25/2013  13:50:00      287.397      182.654       41.069      154.672      109.149       63.239    23923.436    11913.428     3999.184        7.873        1.992      340.529       25.678        0.006      351.641       33.695      862.858
07/25/2013  13:51:00      276.066      151.583       32.895      133.264       85.794       63.155    17759.419     7360.554     3988.609        6.468        1.455      314.944       57.401        0.033      351.511       33.469      862.863
07/25/2013  13:52:00      232.838      114.077       35.646       86.755       82.263       69.006     7526.391     6767.140     4761.876        4.377        0.953      259.282       32.044        0.015      351.549       33.534      862.871
07/25/2013  13:53:00      203.388      121.729       27.448       68.788       55.519       57.714     4731.836     3082.337     3330.940        3.404        0.557      237.033       38.245        0.026      351.480       33.415      862.875
07/25/2013  13:54:00       84.404       88.211       29.067       73.859       51.095       48.959     5455.091     2610.683     2396.992        1.310        0.523      122.087       13.661        0.013      351.556       33.551      862.859
07/25/2013  13:55:00      137.447       96.026       21.853       53.633       52.034       38.911     2876.537     2707.539     1514.035        1.784        0.355      167.668       18.860        0.013      351.488       33.433      862.848
07/25/2013  13:56:00       34.964      186.826      -24.366       58.426       85.588       32.742     3413.542     7325.297     1072.023        2.426        0.591      190.069       37.136        0.038      351.365       33.215      862.828
07/25/2013  13:57:00      -38.159      185.059      -22.675       42.456       51.817       32.418     1802.518     2685.044     1050.940        2.088        0.277      188.952       27.508        0.021      351.452       33.366      862.833
07/25/2013  13:58:00       11.186      274.482      -40.224       44.936       52.173       24.984     2019.247     2722.002      624.183        4.122        0.268      274.710       27.009        0.010      351.195       32.913      862.822
07/25/2013  13:59:00      -54.868      170.956      -21.434       60.001       71.692       33.824     3600.166     5139.751     1144.069        2.129        0.494      179.546       37.176        0.043      351.561       33.558      862.800
07/25/2013  14:00:00      -34.859      272.590      -42.816       60.133      101.901       38.378     3616.010    10383.890     1472.860        4.641        0.774      274.810       43.220        0.025      351.297       33.093      862.774
07/25/2013  14:01:00      -51.252      268.725      -35.015       47.608       83.955       36.649     2266.556     7048.383     1343.176        4.336        0.533      273.568       40.507        0.022      351.281       33.067      862.744
07/25/2013  14:02:00      -43.843       88.895       12.386       38.431       77.376       36.408     1476.956     5987.071     1325.534        0.938        0.439       99.118       42.479        0.184      351.746       33.881      862.741
07/25/2013  14:03:00     -150.572       98.830      -30.867       63.015       63.361       30.933     3970.933     4014.626      956.833        2.117        0.447      180.109       33.638        0.035      351.242       33.000      862.718
07/25/2013  14:04:00     -158.112       51.661      -17.546       74.203       46.520       32.630     5506.074     2164.123     1064.696        1.835        0.437      166.338       32.599        0.038      351.240       32.998      862.681
07/25/2013  14:05:00       74.914       53.590       31.104       93.392       51.115       28.480     8722.097     2612.767      811.092        1.080        0.607       92.109       21.097        0.052      351.840       34.045      862.683
07/25/2013  14:06:00      113.156       48.658       56.720       92.548       82.698       66.685     8565.041     6838.882     4446.832        1.912        0.993      123.174       66.602        0.292      351.400       33.278      862.679
07/25/2013  14:07:00       80.083       59.905       61.598       87.379       70.730       59.483     7635.159     5002.751     3538.252        1.498        0.809      100.010       39.974        0.160      351.673       33.754      862.650
07/25/2013  14:08:00      114.318       35.584       50.765      117.735      117.071       71.017    13861.631    13705.638     5043.381        2.475        1.631      119.728       63.031        0.277      351.789       33.955      862.620
07/25/2013  14:09:00      283.121      169.039       65.545      117.556       82.136       77.801    13819.447     6746.348     6053.016        6.982        1.331      329.745       43.841        0.018      351.507       33.462      862.606
07/25/2013  14:10:00      184.349      100.573       34.408       87.296       72.860       57.341     7620.666     5308.559     3287.975        3.075        0.811      209.999       46.793        0.050      351.422       33.312      862.592
07/25/2013  14:11:00      230.663      142.276       27.600       70.644       61.744       54.662     4990.584     3812.300     2987.915        4.300        0.590      271.013       28.157        0.011      351.361       33.206      862.575
07/25/2013  14:12:00      128.941      -60.441       11.270      116.252      147.804       64.763    13514.430    21846.121     4194.185        2.997        1.978      142.404       51.103        0.129      351.498       33.447      862.581
07/25/2013  14:13:00      165.686       60.543       97.217      116.353      136.852       81.379    13538.094    18728.339     6622.588        3.972        1.944      176.401       69.232        0.154      351.561       33.558      862.586
07/25/2013  14:14:00      108.644      -32.355       35.389       99.968      171.750       72.110     9993.607    29497.973     5199.886        2.939        2.235      113.360       74.831        0.436      351.364       33.211      862.600
07/25/2013  14:15:00      143.186       92.410       67.819      118.495       80.760       65.525    14040.993     6522.201     4293.588        2.924        1.243      170.417       52.739        0.096      351.454       33.371      862.616
07/25/2013  14:16:00       52.001        3.753        7.691       79.622       74.134       48.192     6339.596     5495.797     2322.504        0.846        0.708       52.136       38.211        0.537      351.431       33.332      862.622
07/25/2013  14:17:00       -8.128      -53.514       -6.001       28.609       41.527       26.214      818.461     1724.507      687.190        0.310        0.162       54.128       28.621        0.280      351.405       33.286      862.613
07/25/2013  14:18:00       73.016     -111.832      -20.056       53.920       64.510       35.825     2907.384     4161.502     1283.427        1.329        0.418      133.558       24.071        0.032      351.558       33.554      862.589
07/25/2013  14:19:00       71.709      -39.281       17.199       69.280       59.065       50.885     4799.719     3488.718     2589.284        0.893        0.544       81.763       47.649        0.340      351.527       33.500      862.553
07/25/2013  14:20:00       20.776      -71.675       13.137       46.006       78.192       48.143     2116.529     6114.001     2317.723        0.814        0.527       74.625       49.615        0.442      351.128       32.805      862.547
07/25/2013  14:21:00      -41.495     -116.758       17.076       67.300       83.817       40.205     4529.270     7025.213     1616.428        1.441        0.659      123.912       39.661        0.102      351.247       33.011      862.515
07/25/2013  14:22:00       30.069     -112.664       15.685       70.981      106.166       39.769     5038.292    11271.262     1581.574        1.586        0.895      116.607       49.307        0.179      351.245       33.007      862.513
07/25/2013  14:23:00       95.965     -144.109        6.140       44.609       62.252       41.539     1989.982     3875.350     1725.521        1.880        0.380      173.138       38.426        0.049      351.313       33.124      862.522
07/25/2013  14:24:00       43.514     -107.153        5.681       52.791       67.064       27.648     2786.923     4497.532      764.405        1.073        0.402      115.652       22.590        0.038      351.278       33.065      862.538
07/25/2013  14:25:00       13.593      -26.944       22.315       26.347       43.576       22.149      694.149     1898.837      490.591        0.225        0.154       30.178       14.231        0.222      351.347       33.187      862.529
07/25/2013  14:26:00       -0.916      -83.941       -8.144       54.245       47.349       25.876     2942.512     2241.931      669.548        0.648        0.293       83.946       25.736        0.094      351.198       32.924      862.532
07/25/2013  14:27:00      -76.451      -67.577      -14.687       21.437       46.263       20.155      459.551     2140.308      406.207        0.682        0.150      102.036       14.837        0.021      351.262       33.039      862.506
07/25/2013  14:28:00     -151.968      -70.425       -9.784       59.431       37.043       26.894     3532.011     1372.217      723.297        1.689        0.281      167.493        7.540        0.002      351.277       33.062      862.470
07/25/2013  14:29:00     -187.168      -94.317       -0.710       60.253       52.954       29.889     3630.443     2804.159      893.336        2.563        0.366      209.589       23.486        0.013      351.307       33.112      862.411
07/25/2013  14:30:00     -118.339      -71.760        7.510       65.121       51.465       29.651     4240.731     2648.684      879.183        1.349        0.388      138.396       21.324        0.024      351.297       33.097      862.382
07/25/2013  14:31:00      -81.721      -28.153        4.678       54.486       47.766       23.644     2968.757     2281.636      559.027        0.665        0.290       86.434       26.998        0.098      351.291       33.088      862.376
07/25/2013  14:32:00      -46.054       -8.473        5.514       38.821       26.976       22.410     1507.035      727.692      502.200        0.248        0.137       46.827       22.599        0.233      351.341       33.175      862.367
07/25/2013  14:33:00        4.927      -16.087        7.897       43.176       22.743       25.141     1864.175      517.237      632.057        0.168        0.151       16.824       26.240        2.432      350.959       32.510      862.383
07/25/2013  14:34:00       83.782       44.918       49.785       66.911       86.794       47.260     4477.075     7533.160     2233.547        1.288        0.712       95.064       50.047        0.277      350.829       32.281      862.380
07/25/2013  14:35:00       97.331      -60.192        0.807       79.350       94.115       33.032     6296.367     8857.645     1091.141        1.467        0.812      114.440       33.635        0.086      351.053       32.671      862.395
07/25/2013  14:36:00      114.874      -37.603       12.650       87.426      119.147       48.748     7643.267    14196.099     2376.397        1.949        1.211      120.872       36.465        0.091      351.235       32.989      862.408
07/25/2013  14:37:00       40.088      -20.580       19.847       64.093       47.056       30.882     4107.970     2214.258      953.694        0.485        0.364       45.062       24.086        0.286      351.103       32.761      862.436
07/25/2013  14:38:00       87.951      -46.558       15.199       55.383       46.877       34.118     3067.300     2197.456     1164.059        0.828        0.321       99.514       33.192        0.111      350.764       32.169      862.468
07/25/2013  14:39:00       85.660      -35.652       11.764       44.414       37.008       26.824     1972.605     1369.627      719.540        0.640        0.203       92.783       27.475        0.088      350.721       32.096      862.491
07/25/2013  14:40:00       36.285       -3.616       25.779       21.434       21.736       18.455      459.419      472.455      340.576        0.163        0.064       36.465       12.455        0.117      350.976       32.538      862.498
07/25/2013  14:41:00       15.603       22.547       13.238       11.189       18.631       11.513      125.188      347.122      132.550        0.077        0.030       27.419        5.457        0.040      351.075       32.712      862.511
07/25/2013  14:42:00        3.767       29.091       12.568       12.670       18.144        9.524      160.522      329.205       90.710        0.080        0.029       29.334       10.785        0.135      351.216       32.958      862.511
07/25/2013  14:43:00       11.006       29.294        0.463        9.759       23.435       10.986       95.234      549.218      120.693        0.087        0.038       31.293        9.503        0.092      351.188       32.908      862.523
07/25/2013  14:44:00        8.295       10.773       25.723       23.027       20.493       16.493      530.242      419.952      272.012        0.103        0.061       13.596       13.831        1.035      350.645       31.962      862.532
07/25/2013  14:45:00        7.775       -0.319       26.607       21.959       17.337       16.278      482.213      300.568      264.986        0.091        0.052        7.782       13.323        2.931      350.735       32.120      862.567
07/25/2013  14:46:00      -23.938      -56.470        9.761       21.275       66.171       24.260      452.622     4378.639      588.531        0.464        0.271       61.334       35.657        0.338      350.885       32.381      862.599
07/25/2013  14:47:00     -142.399      -95.563       -5.853       66.905       40.152       32.544     4476.221     1612.168     1059.128        1.829        0.357      171.493       21.983        0.016      351.107       32.766      862.649
07/25/2013  14:48:00     -195.926     -110.842       12.245      131.353      100.355       53.845    17253.719    10071.181     2899.242        4.052        1.511      225.106       62.807        0.078      351.096       32.745      862.683
07/25/2013  14:49:00     -412.581      -55.132       -0.680      203.547      118.767       66.171    41431.350    14105.657     4378.542       11.658        2.996      416.248       78.346        0.035      350.479       31.669      862.717
07/25/2013  14:50:00     -230.483     -158.061        5.680      174.643      117.192       75.250    30500.004    13733.927     5662.511        6.401        2.495      279.474       90.166        0.104      349.878       30.626      862.737
07/25/2013  14:51:00     -248.729      -30.861       -2.041       84.403      116.742       51.358     7123.846    13628.602     2637.691        4.310        1.170      250.636       43.625        0.030      349.515       29.996      862.751
07/25/2013  14:52:00     -240.769     -119.088       -5.249      159.295      114.578       66.547    25374.877    13128.088     4428.534        5.755        2.147      268.610       70.131        0.068      349.019       29.137      862.740
07/25/2013  14:53:00     -467.519      -95.510      -16.992      155.049      146.478       72.449    24040.056    21455.700     5248.818       13.935        2.537      477.175       72.274        0.023      348.597       28.406      862.732
07/25/2013  14:54:00     -303.750      -48.083       -7.788      153.270      130.592       80.628    23491.694    17054.360     6500.912        7.083        2.352      307.533       80.807        0.069      348.287       27.869      862.754
07/25/2013  14:55:00     -307.990      -82.281      -15.820      154.089      108.992       71.102    23743.355    11879.335     5055.549        7.127        2.034      318.792       74.320        0.054      347.935       27.263      862.784
07/25/2013  14:56:00     -359.325      -71.618       -4.053      142.247      124.594       63.193    20234.250    15523.756     3993.395        8.700        1.988      366.393       68.527        0.035      348.035       27.435      862.818
07/25/2013  14:57:00     -470.131     -107.519       -6.021      198.898      145.570       85.044    39560.596    21190.656     7232.538       15.029        3.399      482.269       93.254        0.037      348.082       27.516      862.851
07/25/2013  14:58:00     -427.640      -88.653       16.984      216.502      141.550       84.825    46872.952    20036.328     7195.327       13.255        3.705      436.733       85.553        0.038      348.307       27.903      862.884
07/25/2013  14:59:00     -380.619      -35.799        4.191      198.040      112.601       80.334    39219.736    12678.940     6453.473       10.225        2.918      382.299       89.645        0.055      348.049       27.457      862.871
07/25/2013  15:00:00     -305.645      102.957      -20.885      145.602      120.234       65.214    21200.019    14456.302     4252.859        7.217        1.995      322.519       63.379        0.039      348.292       27.879      862.903
07/25/2013  15:01:00     -296.974       97.814      -30.549       89.597       59.608       43.235     8027.615     3553.172     1869.274        5.607        0.673      312.668       33.502        0.011      348.611       28.429      862.871
07/25/2013  15:02:00     -260.911      125.633      -37.887       87.383      123.406       63.166     7635.796    15229.128     3989.999        5.607        1.343      289.583       57.947        0.040      348.675       28.541      862.858
07/25/2013  15:03:00     -203.630      196.385      -31.375       85.460      126.945       53.587     7303.334    16115.114     2871.603        5.365        1.315      282.900       47.107        0.028      349.100       29.277      862.876
07/25/2013  15:04:00     -185.648       81.988      -20.258       56.887       44.356       31.094     3236.131     1967.429      966.849        2.388        0.309      202.946       24.292        0.014      348.693       28.571      862.900
07/25/2013  15:05:00     -178.274       31.158      -17.070       54.342       45.740       32.183     2953.035     2092.145     1035.740        1.956        0.304      180.976       26.480        0.021      348.619       28.445      862.938
07/25/2013  15:06:00     -135.726      -36.615       -8.089       59.737       47.518       26.538     3568.543     2257.970      704.275        1.318        0.327      140.578       18.490        0.017      348.172       27.673      862.987
07/25/2013  15:07:00     -113.742      -52.661       -3.296       63.329       52.595       32.566     4010.514     2766.214     1060.526        1.178        0.392      125.341       32.153        0.066      348.092       27.536      863.058
07/25/2013  15:08:00      -39.830     -116.583       14.860      105.209      112.959       43.473    11068.953    12759.773     1889.874        2.055        1.286      123.199       47.661        0.150      347.955       27.299      863.184
07/25/2013  15:09:00     -327.697     -191.683       -1.741      189.346      131.370       69.359    35851.937    17258.134     4810.612       10.101        2.896      379.642       74.199        0.038      347.805       27.038      863.243
07/25/2013  15:10:00     -225.802      -88.212      -13.769      101.166      100.003       60.624    10234.502    10000.580     3675.260        4.143        1.196      242.422       59.607        0.060      347.938       27.268      863.270
07/25/2013  15:11:00     -238.862      -44.664      -24.584      102.008       93.000       50.026    10405.643     8648.998     2502.649        4.060        1.078      243.002       50.588        0.043      347.562       26.616      863.251
07/25/2013  15:12:00     -126.842     -127.396       17.119       93.585      132.610       49.326     8758.143    17585.521     2433.073        3.069        1.439      179.774       51.347        0.082      347.384       26.311      863.358
07/25/2013  15:13:00     -194.238     -194.302        0.292      123.537      131.643       77.986    15261.441    17329.767     6081.805        5.707        1.934      274.739       59.613        0.047      347.831       27.082      863.406
07/25/2013  15:14:00      -82.244     -124.204      -13.285      134.572       93.215       58.548    18109.732     8689.025     3427.895        2.629        1.511      148.966       43.883        0.087      347.704       26.864      863.472
07/25/2013  15:15:00      -15.642     -151.323        9.204      103.981      104.258       62.857    10811.978    10869.821     3951.043        2.443        1.282      152.130       40.280        0.070      347.653       26.775      863.586
07/25/2013  15:16:00      106.516     -333.336       -3.604      127.008      120.794       82.596    16130.942    14591.082     6822.137        8.000        1.877      349.941       57.055        0.027      347.798       27.026      863.642
07/25/2013  15:17:00       19.116     -262.263       11.861      290.066      237.624      142.381    84138.514    56465.044    20272.338       11.505        8.044      262.958      132.315        0.253      347.285       26.141      863.607
07/25/2013  15:18:00      162.853     -377.021       21.393      197.647      298.085      159.771    39064.199    88854.759    25526.838       16.125        7.672      410.690      142.213        0.120      346.689       25.114      863.560
07/25/2013  15:19:00      182.891     -405.182        0.563      189.673      254.086      117.512    35975.823    64559.906    13809.090       15.596        5.717      444.546      128.933        0.084      346.329       24.496      863.529
07/25/2013  15:20:00      192.943     -484.720       -5.875      240.058      282.643      142.593    57627.793    79887.162    20332.744       21.500        7.892      521.709      141.351        0.073      346.014       23.953      863.766
07/25/2013  15:21:00       83.079      -70.115       81.179      108.724      223.352      105.280    11820.896    49886.150    11083.979        4.559        3.640      108.711      134.321        1.527      345.505       23.081      863.904
07/25/2013  15:22:00      257.562     -311.700       73.373      248.835      353.456      196.520    61918.660   124930.971    38620.088       19.713       11.273      404.345      236.074        0.341      346.541       24.859      863.939
07/25/2013  15:23:00      137.288      -78.900      156.264      186.180      314.426      194.662    34663.031    98863.583    37893.184       11.042        8.571      158.345      224.903        2.017      346.844       25.381      863.845
07/25/2013  15:24:00      204.736     -112.884      222.212      236.235      417.616      228.036    55806.759   174403.061    52000.477       19.307       14.111      233.794      276.045        1.394      347.486       26.488      863.570
07/25/2013  15:25:00      358.633     -122.952      194.717      320.261      414.644      265.990   102567.288   171929.390    70750.588       26.338       17.262      379.123      306.269        0.653      348.317       27.924      863.455
07/25/2013  15:26:00      342.780     -201.484       85.126      289.985      366.102      210.087    84091.013   134031.016    44136.538       21.375       13.113      397.610      270.626        0.463      348.159       27.648      863.487
07/25/2013  15:27:00      302.223     -279.572       64.124      261.962      356.422      195.641    68624.265   127036.492    38275.428       20.373       11.697      411.703      232.797        0.320      347.321       26.202      863.479
07/25/2013  15:28:00      208.559     -189.857       89.409      185.067      259.996      153.654    34249.728    67597.728    23609.463       10.647        6.273      282.032      177.304        0.395      347.127       25.868      863.584
07/25/2013  15:29:00      233.249     -167.480       99.011      273.631      282.888      193.212    74873.913    80025.725    37331.036       14.221        9.612      287.149      221.257        0.594      347.498       26.507      863.637
07/25/2013  15:30:00      252.638      -96.717      110.069      240.562      304.457      189.653    57870.310    92694.313    35968.201       13.588        9.327      270.519      238.183        0.775      348.071       27.496      863.767
07/25/2013  15:31:00      269.856      115.923      149.627      224.506      209.707      144.996    50403.027    43976.896    21023.731       11.200        5.770      293.701      134.861        0.211      347.615       26.711      863.867
07/25/2013  15:32:00      220.964      174.410      173.454      193.558      170.487      118.516    37464.791    29065.917    14045.996        9.494        4.029      281.503      105.295        0.140      347.765       26.968      863.956
07/25/2013  15:33:00       88.954      -45.718       30.353      118.834      129.761       65.687    14121.462    16837.938     4314.742        2.309        1.764      100.015       63.673        0.405      347.209       26.011      863.997
07/25/2013  15:34:00      213.396       90.269       23.574      140.503       96.909       62.467    19741.076     9391.444     3902.080        4.363        1.652      231.703       27.641        0.014      346.283       24.417      864.133
07/25/2013  15:35:00      152.898       88.809        9.454      119.419       91.203       89.548    14260.981     8317.957     8018.811        3.097        1.530      176.819       53.804        0.093      345.717       23.446      864.201
07/25/2013  15:36:00      -23.421      -50.021       27.443       55.793       54.371       35.649     3112.873     2956.201     1270.817        0.557        0.367       55.232       26.915        0.237      345.704       23.426      864.306
07/25/2013  15:37:00      -10.688      -59.402        0.295       39.660       34.283       26.905     1572.895     1175.330      723.875        0.356        0.174       60.356       20.549        0.116      345.606       23.256      864.375
07/25/2013  15:38:00        7.685      -30.431       28.196       60.065       51.398       38.039     3607.824     2641.742     1446.988        0.474        0.385       31.386       35.212        1.259      345.783       23.560      864.426
07/25/2013  15:39:00      -10.698      -86.814        2.883       46.479       25.907       37.354     2160.301      671.193     1395.289        0.594        0.211       87.470        5.357        0.004      346.476       24.751      864.455
07/25/2013  15:40:00       47.870      -78.474       27.637       72.429      111.496       55.201     5245.900    12431.348     3047.166        1.496        1.036       91.922       59.250        0.415      346.695       25.127      864.519
07/25/2013  15:41:00       32.702       20.174       70.524       70.383       99.611       56.944     4953.770     9922.393     3242.602        1.228        0.906       38.424       63.036        2.691      346.481       24.760      864.515
07/25/2013  15:42:00       57.241      -89.453       -1.568       46.656       52.348       26.025     2176.787     2740.297      677.325        0.844        0.280      106.200       15.706        0.022      346.484       24.763      864.582
07/25/2013  15:43:00       55.048     -137.553        1.720       56.161       48.957       28.955     3154.036     2396.745      838.390        1.417        0.319      148.159       25.253        0.029      346.607       24.977      864.615
07/25/2013  15:44:00       62.565     -111.011       -2.090       51.966       39.668       32.809     2700.470     1573.580     1076.416        1.080        0.268      127.427       29.473        0.053      346.930       25.532      864.663
07/25/2013  15:45:00      -28.264      -65.662      -17.692       35.589       40.487       22.004     1266.554     1639.176      484.188        0.441        0.169       71.486        8.033        0.013      346.073       24.059      864.732
07/25/2013  15:46:00      -91.764      -52.075       -5.263       41.511       27.642       19.796     1723.202      764.104      391.867        0.702        0.144      105.510       18.894        0.032      345.836       23.651      864.838
07/25/2013  15:47:00     -179.612     -126.928      -10.687       69.493       61.751       35.239     4829.274     3813.207     1241.769        2.918        0.494      219.935       20.429        0.009      346.221       24.309      864.997
07/25/2013  15:48:00     -238.151     -115.335       -4.655       80.851       93.397       50.026     6536.865     8722.974     2502.568        4.390        0.888      264.609       27.265        0.011      346.602       24.962      865.076
07/25/2013  15:49:00     -196.981      -51.435       -0.828      177.352       94.736       59.276    31453.695     8974.948     3513.617        4.269        2.197      203.586       73.283        0.130      346.156       24.198      865.051
07/25/2013  15:50:00     -269.964      -90.191      -10.676      167.776      151.019       71.376    28148.933    22806.863     5094.557        6.858        2.803      284.631       81.456        0.082      346.024       23.971      864.922
07/25/2013  15:51:00     -349.881     -121.393       -2.666      230.489      175.166       81.919    53125.316    30683.189     6710.705       11.382        4.526      370.342      103.101        0.078      345.896       23.751      864.936
07/25/2013  15:52:00     -400.794     -191.042      -16.387      190.643      164.741       80.264    36344.621    27139.592     6442.329       13.365        3.496      443.997       79.339        0.032      345.973       23.883      864.915
07/25/2013  15:53:00     -519.195     -131.036      -22.979      243.297      126.835       78.281    59193.323    16087.126     6127.904       18.432        4.070      535.475       61.630        0.013      346.559       24.889      864.878
07/25/2013  15:54:00     -212.142      -22.741       -3.917      109.350       78.642       32.984    11957.341     6184.601     1087.973        3.238        0.961      213.357       37.879        0.032      346.277       24.407      864.894
07/25/2013  15:55:00     -150.054      -67.002        2.035       98.880       74.857       42.814     9777.208     5603.570     1833.005        2.211        0.861      164.333       47.063        0.082      346.221       24.311      864.846
07/25/2013  15:56:00        5.561      -39.906       11.974       61.108       69.524       58.046     3734.142     4833.539     3369.344        0.685        0.597       40.292       36.402        0.816      345.699       23.416      864.827
07/25/2013  15:57:00        2.812       38.038       82.624       33.097       52.882       34.317     1095.435     2796.509     1177.688        0.667        0.253       38.142       20.682        0.294      345.540       23.142      864.801
07/25/2013  15:58:00       62.693     -108.330        1.727       65.773       76.644       42.055     4326.051     5874.355     1768.627        1.382        0.598      125.163       44.727        0.128      346.426       24.664      864.770
07/25/2013  15:59:00       81.628     -143.043       -7.581       64.631       68.811       47.436     4177.154     4734.935     2250.205        1.917        0.558      164.695       39.634        0.058      346.169       24.223      864.714
07/25/2013  16:00:00       22.748      -26.896       51.123       55.576      116.494       63.172     3088.680    13570.769     3990.747        1.225        1.033       35.226       68.780        3.812      345.510       23.091      864.639
07/25/2013  16:01:00       68.860       29.194       70.558       71.456       58.049       46.667     5106.021     3369.730     2177.809        1.061        0.533       74.793       39.840        0.284      345.443       22.976      864.461
07/25/2013  16:02:00      150.482      -69.365       46.334      116.947       95.724       74.282    13676.596     9163.120     5517.749        2.897        1.418      165.700       68.765        0.172      345.766       23.530      864.348
07/25/2013  16:03:00      361.278      146.188      108.411      206.573      149.131      117.173    42672.471    22240.005    13729.558       12.113        3.932      389.734       98.066        0.063      346.654       25.054      864.242
07/25/2013  16:04:00       57.068     -118.658        8.641      138.637      101.838       54.841    19220.148    10371.073     3007.525        2.500        1.630      131.668       57.123        0.188      346.565       24.903      864.301
07/25/2013  16:05:00       73.880      -63.034       45.102       70.839      130.234       72.264     5018.163    16960.798     5222.054        1.933        1.360       97.116       76.359        0.618      347.290       26.153      864.212
07/25/2013  16:06:00      138.078     -186.733       11.646       98.608      142.970       93.124     9723.623    20440.542     8672.015        4.645        1.942      232.238       96.158        0.171      348.220       27.753      864.129
07/25/2013  16:07:00      133.940      142.927      156.918      128.481      155.336      119.041    16507.336    24129.168    14170.792        5.889        2.740      195.877      123.794        0.399      347.297       26.160      864.239
07/25/2013  16:08:00      132.794      155.722      167.049      117.001      111.029       97.808    13689.237    12327.469     9566.432        5.268        1.779      204.655       89.315        0.190      346.802       25.308      864.341
07/25/2013  16:09:00      273.729      181.473       86.342      111.746       83.723       97.348    12487.233     7009.490     9476.553        7.214        1.449      328.420       66.829        0.041      347.752       26.945      864.385
07/25/2013  16:10:00      235.141      136.553       84.090      164.273       84.510       72.601    26985.598     7141.994     5270.945        6.020        1.970      271.916       57.564        0.045      347.882       27.170      864.445
07/25/2013  16:11:00       -8.851      -13.474        4.782       44.649       71.755       48.218     1993.546     5148.806     2324.959        0.487        0.473       16.121       30.231        3.517      347.100       25.824      864.548
07/25/2013  16:12:00      -66.769      -75.103       -4.576       63.986       33.410       26.531     4094.257     1116.251      703.875        0.802        0.296      100.492       23.645        0.055      346.645       25.041      864.674
07/25/2013  16:13:00     -179.820      -42.845       -5.782      114.372       71.926       41.805    13080.891     5173.293     1747.620        2.710        1.000      184.853       49.689        0.072      346.275       24.404      864.755
07/25/2013  16:14:00     -209.180      -64.596       -7.458      106.809       77.348       57.044    11408.152     5982.727     3254.024        3.431        1.032      218.927       57.774        0.070      346.250       24.359      864.827
07/25/2013  16:15:00      -65.618      120.119        6.782       69.884       99.888       51.314     4883.814     9977.710     2633.079        1.813        0.875      136.873       35.267        0.066      346.285       24.421      864.869
07/25/2013  16:16:00     -187.442      148.211      -28.164      109.599      118.383       56.836    12011.873    14014.454     3230.318        4.357        1.463      238.958       63.241        0.070      346.441       24.687      864.839
07/25/2013  16:17:00     -225.729       84.111      -28.027      137.148       99.804       62.989    18809.636     9960.827     3967.620        4.577        1.637      240.890       72.852        0.091      346.642       25.033      864.805
07/25/2013  16:18:00     -266.200       37.362      -28.943      108.424      111.659       61.490    11755.691    12467.794     3780.999        5.054        1.400      268.809       60.066        0.050      346.735       25.192      864.768
07/25/2013  16:19:00     -205.781      107.008      -29.443       90.924      131.386       65.479     8267.162    17262.275     4287.447        4.223        1.491      231.940       60.792        0.069      346.996       25.642      864.795
07/25/2013  16:20:00     -162.409      128.389      -28.117       51.611       59.784       36.795     2663.722     3574.103     1353.874        2.562        0.380      207.027       32.833        0.025      347.106       25.833      864.804
07/25/2013  16:21:00     -225.890      200.638      -57.313       89.351      121.868       51.504     7983.668    14851.792     2652.653        6.002        1.274      302.129       60.469        0.040      347.128       25.868      864.777
07/25/2013  16:22:00     -296.833      338.840      -77.318      114.286      133.557       74.577    13061.358    17837.569     5561.782       12.267        1.823      450.469       76.592        0.029      347.330       26.217      864.758
07/25/2013  16:23:00     -206.867      316.520      -56.947      129.920      115.973       68.564    16879.099    13449.652     4701.050        9.062        1.751      378.126       75.778        0.040      347.214       26.017      864.735
07/25/2013  16:24:00     -114.527      258.013      -30.171       76.435       86.001       50.122     5842.342     7396.194     2512.231        4.817        0.788      282.289       47.807        0.029      347.190       25.975      864.722
07/25/2013  16:25:00     -163.371      253.572      -38.456      100.263      125.000       58.424    10052.601    15624.876     3413.412        6.077        1.455      301.644       51.368        0.029      347.217       26.022      864.724
07/25/2013  16:26:00     -157.443      299.536      -35.587      112.490      140.692       73.954    12654.087    19794.344     5469.188        7.684        1.896      338.393       64.502        0.036      347.313       26.189      864.737
07/25/2013  16:27:00     -145.266      278.606      -25.713       99.051      140.529       66.497     9811.191    19748.309     4421.824        6.668        1.699      314.202       69.539        0.049      347.348       26.248      864.757
07/25/2013  16:28:00     -138.450      208.420      -34.837       89.376      125.677       75.432     7988.028    15794.828     5689.959        4.664        1.474      250.215       70.505        0.079      347.338       26.233      864.760
07/25/2013  16:29:00     -119.979      362.442      -43.315      117.730      239.976       68.443    13860.258    57588.656     4684.453       11.187        3.807      381.784       79.548        0.043      347.461       26.443      864.793
07/25/2013  16:30:00      -33.189      267.903      -19.484      114.575      133.771       68.669    13127.426    17894.765     4715.386        5.449        1.787      269.951       69.480        0.066      347.560       26.615      864.816
07/25/2013  16:31:00     -100.567      435.301      -47.379      107.473      144.365       57.816    11550.439    20841.388     3342.641       11.878        1.787      446.767       65.660        0.022      347.647       26.763      864.849
07/25/2013  16:32:00       14.174      365.585      -45.699      101.290      164.635       70.743    10259.704    27104.841     5004.590        8.915        2.118      365.860       82.154        0.050      347.537       26.573      864.890
07/25/2013  16:33:00       30.824      216.173      -11.934       96.493      154.327       72.948     9310.936    23816.812     5321.349        4.313        1.922      218.360       68.762        0.099      347.466       26.453      864.930
07/25/2013  16:34:00      -41.209      368.301      -43.144       81.449      169.536       58.201     6633.892    28742.624     3387.354        8.898        1.938      370.599       74.736        0.041      347.518       26.542      864.960
07/25/2013  16:35:00      -27.061      345.042      -40.450       65.182      143.271       57.657     4248.633    20526.556     3324.321        7.476        1.405      346.102       62.029        0.032      347.495       26.503      864.985
07/25/2013  16:36:00       38.204      287.255      -31.156       73.409      110.239       56.503     5388.920    12152.722     3192.583        5.284        1.037      289.784       58.870        0.041      347.472       26.460      864.994
07/25/2013  16:37:00      -40.685      341.706      -40.692       92.356      126.709       55.086     8529.675    16055.249     3034.450        7.384        1.381      344.119       60.576        0.031      347.452       26.427      865.012
07/25/2013  16:38:00      -82.505      406.096      -29.222      133.046      231.237       84.900    17701.262    53470.678     7208.061       12.546        3.919      414.393      104.253        0.063      347.324       26.207      865.040
07/25/2013  16:39:00     -242.836      408.632      -55.818      140.330      199.343       92.221    19692.437    39737.681     8504.643       14.849        3.397      475.341      105.421        0.049      347.156       25.918      865.060
07/25/2013  16:40:00     -191.297      438.120      -52.184      104.945      149.359       72.794    11013.517    22308.175     5298.899       13.494        1.931      478.063       74.461        0.024      347.098       25.815      865.026
07/25/2013  16:41:00     -215.784      450.706      -60.225      147.067      166.100       85.022    21628.767    27589.055     7228.715       15.487        2.822      499.699       84.255        0.028      347.043       25.724      864.990
07/25/2013  16:42:00     -222.474      365.717      -55.866      141.999      195.766       88.231    20163.614    38324.183     7784.768       12.631        3.314      428.070       85.757        0.040      347.050       25.736      864.957
07/25/2013  16:43:00     -182.313      357.888      -44.504      141.736      238.413       81.871    20089.002    56840.745     6702.796       12.345        4.182      401.649      111.708        0.077      346.995       25.641      864.937
07/25/2013  16:44:00     -245.695      389.844      -63.200      144.447      209.045       78.901    20864.957    43699.653     6225.332       14.355        3.539      460.808       77.228        0.028      346.915       25.502      864.916
07/25/2013  16:45:00     -337.022      363.344      -85.631      159.050      183.315       95.664    25296.991    33604.500     9151.666       16.048        3.403      495.583      104.823        0.045      346.889       25.456      864.880
07/25/2013  16:46:00     -239.853      353.677      -59.593      135.164      162.148       93.558    18269.303    26292.076     8753.112       11.973        2.666      427.337       92.912        0.047      346.926       25.520      864.879
07/25/2013  16:47:00     -151.275      255.470      -31.872      110.217      115.335       71.517    12147.884    13302.278     5114.693        5.986        1.528      296.899       67.259        0.051      346.986       25.623      864.876
07/25/2013  16:48:00     -181.972      280.628      -30.530      120.251      191.252       70.154    14460.257    36577.264     4921.621        8.437        2.798      334.464       87.527        0.068      346.950       25.563      864.863
07/25/2013  16:49:00     -225.306      324.074      -57.277      131.372      124.412       76.139    17258.507    15478.396     5797.095        9.879        1.927      394.698       79.283        0.040      346.912       25.496      864.859
07/25/2013  16:50:00     -256.083      241.560      -42.395      150.490      154.763       84.903    22647.337    23951.442     7208.525        8.976        2.690      352.037       90.030        0.065      346.899       25.476      864.825
07/25/2013  16:51:00     -338.307      422.009      -74.204      153.209      169.628       89.192    23473.083    28773.795     7955.137       17.911        3.010      540.873       94.553        0.031      346.897       25.471      864.824
07/25/2013  16:52:00     -330.344      386.714      -78.800      148.723      141.081       86.791    22118.496    19903.791     7532.717       15.721        2.478      508.601       83.168        0.027      346.923       25.516      864.840
07/25/2013  16:53:00     -302.653      354.165      -63.453      138.262      131.627       83.091    19116.381    17325.550     6904.128       13.219        2.167      465.867       74.137        0.025      346.927       25.522      864.843
07/25/2013  16:54:00     -299.908      345.809      -52.182      148.389      180.605       86.784    22019.231    32618.011     7531.531       13.720        3.108      457.743       87.746        0.037      346.916       25.503      864.859
07/25/2013  16:55:00     -266.012      303.071      -46.076      127.470      163.002       90.655    16248.548    26569.565     8218.304       10.788        2.552      403.254       96.835        0.058      346.936       25.537      864.871
07/25/2013  16:56:00     -252.413      278.392      -47.193      110.864      166.096       79.276    12290.801    27587.999     6284.744        9.479        2.308      375.785       54.984        0.021      346.942       25.549      864.866
07/25/2013  16:57:00     -206.725      299.369      -38.257       96.756      139.670       78.844     9361.743    19507.604     6216.345        8.445        1.754      363.809       72.455        0.040      347.015       25.674      864.892
07/25/2013  16:58:00     -279.210      369.926      -63.322      130.549      138.114       84.083    17042.952    19075.470     7069.939       13.099        2.159      463.469       73.090        0.025      347.051       25.737      864.905
07/25/2013  16:59:00     -292.542      399.306      -71.417      130.737      156.992       78.651    17092.118    24646.591     6186.043       14.902        2.396      495.002       84.728        0.029      347.075       25.777      864.885
07/25/2013  17:00:00     -301.202      454.751      -80.773      150.911      180.331       85.903    22774.126    32519.180     7379.241       18.335        3.134      545.455       94.607        0.030      347.064       25.759      864.859
07/25/2013  17:01:00     -237.946      294.660      -34.248      140.846      193.322       76.081    19837.520    37373.549     5788.318       10.380        3.150      378.739       67.380        0.032      347.162       25.928      864.815
07/25/2013  17:02:00     -237.196      262.933      -49.855      122.105      154.519       77.166    14909.561    23875.979     5954.642        8.630        2.237      354.112       79.687        0.051      347.208       26.009      864.829
07/25/2013  17:03:00     -187.333      272.265      -45.208      113.240      128.838       64.730    12823.321    16599.273     4189.937        7.243        1.681      330.487       67.784        0.042      347.247       26.074      864.856
07/25/2013  17:04:00     -214.733      263.776      -56.078      110.019      127.023       63.748    12104.212    16134.828     4063.835        7.556        1.615      340.130       71.115        0.044      347.318       26.196      864.870
07/25/2013  17:05:00     -227.904      245.882      -55.347       97.413      119.083       56.178     9489.291    14180.745     3156.014        7.114        1.341      335.258       56.735        0.029      347.367       26.281      864.871
07/25/2013  17:06:00     -252.337      284.923      -45.059      132.676      185.420       69.355    17602.924    34380.463     4810.182       10.183        2.840      380.599       56.570        0.022      347.367       26.281      864.871
07/25/2013  17:07:00     -196.234      171.859      -34.975       87.901      123.013       52.548     7726.664    15132.188     2761.338        4.744        1.281      260.851       42.697        0.027      347.478       26.472      864.870
07/25/2013  17:08:00     -195.728      172.956      -18.296      132.122      193.723       65.969    17456.279    37528.527     4351.905        6.394        2.967      261.196       57.271        0.048      347.537       26.575      864.855
07/25/2013  17:09:00     -123.624      164.112      -10.588       97.114      143.071       59.958     9431.178    20469.274     3594.920        3.790        1.675      205.464       60.945        0.088      347.588       26.663      864.861
07/25/2013  17:10:00     -169.020      272.342      -28.850       86.994      114.118       69.009     7567.902    13022.826     4762.248        6.446        1.268      320.528       71.552        0.050      347.520       26.545      864.873
07/25/2013  17:11:00     -204.968      259.296      -35.272      104.519      203.410       74.432    10924.236    41375.745     5540.088        8.415        2.892      330.524       76.050        0.053      347.568       26.629      864.901
07/25/2013  17:12:00     -248.022      181.947      -48.198      132.757       75.462       63.916    17624.297     5694.550     4085.234        6.217        1.370      307.603       54.097        0.031      347.501       26.513      864.930
07/25/2013  17:13:00     -215.898      193.837      -42.505       87.805      109.654       61.017     7709.707    12023.979     3723.037        5.472        1.173      290.146       60.334        0.043      347.532       26.566      864.975
07/25/2013  17:14:00     -200.097      129.604      -27.965       94.072       82.469       46.131     8849.544     6801.188     2128.113        3.769        0.889      238.402       41.806        0.031      347.583       26.654      865.025
07/25/2013  17:15:00     -181.227      154.877      -26.065      113.659       94.210       57.931    12918.286     8875.450     3355.979        4.132        1.257      238.391       55.757        0.055      347.640       26.752      865.093
07/25/2013  17:16:00      -97.069       89.639      -30.690       71.448       67.958       52.404     5104.873     4618.316     2746.229        1.543        0.623      132.127       46.736        0.125      347.651       26.773      865.180
07/25/2013  17:17:00     -147.010       35.180      -18.660       56.014      123.271       51.964     3137.527    15195.719     2700.232        2.211        1.052      151.161       23.089        0.023      347.670       26.805      865.279
07/25/2013  17:18:00      -66.564       44.434       -4.481       59.461       67.924       31.990     3535.587     4613.705     1023.388        0.780        0.459       80.032       21.933        0.075      347.780       26.998      865.385
07/25/2013  17:19:00       28.615       27.944       33.553       47.240       31.287       22.689     2231.589      978.896      514.785        0.322        0.186       39.996       18.824        0.222      347.967       27.320      865.513
07/25/2013  17:20:00       -3.370       15.182       24.868       29.089       47.569       27.333      846.191     2262.787      747.104        0.236        0.193       15.552       23.421        2.268      348.145       27.628      865.598
07/25/2013  17:21:00       33.967     -107.095        3.767       69.284       46.923       39.452     4800.262     2201.801     1556.482        1.060        0.428      112.352       30.774        0.075      348.026       27.422      865.700
07/25/2013  17:22:00       -1.970      -52.912       19.231       48.325       64.080       46.655     2335.285     4106.220     2176.673        0.589        0.431       52.948       37.702        0.507      348.018       27.407      865.787
07/25/2013  17:23:00       19.448     -129.817      -16.386       61.708       75.758       43.720     3807.924     5739.238     1911.446        1.448        0.573      131.266       42.862        0.107      347.912       27.224      865.855
07/25/2013  17:24:00       -3.483     -168.933      -26.035       75.523       77.117       51.773     5703.679     5947.006     2680.480        2.178        0.717      168.969       41.384        0.060      347.889       27.183      865.907
07/25/2013  17:25:00      -27.804     -134.650        1.201       77.861       66.240       54.085     6062.286     4387.735     2925.218        1.614        0.669      137.490       28.485        0.043      348.009       27.392      865.975
07/25/2013  17:26:00       86.148     -232.086       -8.020      122.844      101.990       67.131    15090.759    10401.912     4506.580        4.567        1.500      247.559       67.553        0.074      347.855       27.124      866.021
07/25/2013  17:27:00      133.570     -237.737        3.789       90.969      147.187       69.696     8275.384    21664.125     4857.575        5.458        1.740      272.690       69.857        0.066      347.752       26.947      866.057
07/25/2013  17:28:00      117.812     -186.446       -7.762      100.781      128.548       80.657    10156.709    16524.467     6505.523        4.094        1.659      220.549       81.129        0.135      347.833       27.085      866.065
07/25/2013  17:29:00       92.006     -162.685      -24.904       83.526      129.909       74.329     6976.666    16876.292     5524.747        3.246        1.469      186.899       63.572        0.116      347.857       27.126      866.103
07/25/2013  17:30:00      -17.749      -72.580       29.998       55.404       76.780       43.645     3069.647     5895.112     1904.879        0.867        0.543       74.719       34.360        0.211      347.953       27.295      866.124
07/25/2013  17:31:00       -9.090      -23.562       -4.218       61.895       72.312       28.358     3831.050     5229.037      804.148        0.526        0.493       25.255       24.461        0.938      347.966       27.317      866.134
07/25/2013  17:32:00      -57.666      -78.667        3.440       82.017       68.956       36.698     6726.837     4754.969     1346.735        1.117        0.641       97.539       32.147        0.109      347.916       27.232      866.148
07/25/2013  17:33:00      -73.291     -111.457       -9.602       62.041       38.098       28.046     3849.048     1451.471      786.584        1.199        0.304      133.396        9.013        0.005      347.816       27.058      866.147
07/25/2013  17:34:00      -60.003     -126.015       -6.194       43.954       45.485       22.630     1931.984     2068.901      512.128        1.201        0.226      139.571       16.495        0.014      347.874       27.161      866.155
07/25/2013  17:35:00      -97.202      -77.369        1.194       74.172       57.468       36.730     5501.530     3302.586     1349.098        1.279        0.508      124.234       44.328        0.127      347.970       27.323      866.161
07/25/2013  17:36:00      -49.056      -75.664       -0.713       56.052       53.403       31.599     3141.862     2851.868      998.470        0.756        0.350       90.175       29.784        0.109      348.083       27.519      866.186
07/25/2013  17:37:00      -95.713      -82.555       12.091       62.544       59.372       32.495     3911.703     3524.977     1055.936        1.231        0.425      126.397       33.755        0.071      348.057       27.474      866.209
07/25/2013  17:38:00      -52.935      -34.275       14.045       42.108       57.775       27.788     1773.123     3338.002      772.193        0.503        0.294       63.062       25.161        0.159      347.969       27.323      866.227
07/25/2013  17:39:00      -87.307      -63.573       -6.710       76.498       51.643       24.317     5851.944     2667.044      591.327        1.041        0.456      108.000       28.845        0.071      348.048       27.458      866.233
07/25/2013  17:40:00     -185.100      -92.795       -5.796       88.639       57.842       36.460     7856.960     3345.671     1329.344        2.772        0.627      207.057       41.560        0.040      347.996       27.366      866.233
07/25/2013  17:41:00      -96.816      -52.242       13.722       86.521       56.951       37.504     7485.805     3243.361     1406.559        1.221        0.607      110.011       46.422        0.178      348.217       27.751      866.228
07/25/2013  17:42:00     -111.847      -40.963        2.979       66.495       56.045       27.707     4421.623     3141.026      767.681        1.126        0.417      119.112       23.295        0.038      348.089       27.531      866.204
07/25/2013  17:43:00      -73.944      -67.940       -1.111       59.762       41.111       28.069     3571.553     1690.133      787.871        0.807        0.302      100.417       18.268        0.033      348.185       27.696      866.192
07/25/2013  17:44:00     -119.171      -34.396        3.239       88.834       48.145       33.840     7891.505     2317.948     1145.147        1.337        0.568      124.036       35.524        0.082      348.211       27.740      866.177
07/25/2013  17:45:00     -111.206      -55.464      -12.220       63.829       43.340       21.972     4074.123     1878.389      482.781        1.101        0.322      124.271       20.250        0.027      348.121       27.584      866.152
07/25/2013  17:46:00     -139.884      -26.142       -5.140       83.424       66.325       33.190     6959.559     4398.949     1101.607        1.637        0.623      142.305       32.753        0.053      348.228       27.769      866.132
07/25/2013  17:47:00     -146.165     -128.984       -6.980       88.966       77.992       42.588     7914.931     6082.826     1813.774        2.693        0.791      194.939       30.896        0.025      348.098       27.543      866.115
07/25/2013  17:48:00     -113.159      -65.225       -0.187       65.599       61.758       35.509     4303.196     3814.036     1260.860        1.322        0.469      130.611       38.082        0.085      348.191       27.704      866.089
07/25/2013  17:49:00     -107.366      -75.885       -7.082       37.907       32.373       20.883     1436.918     1048.001      436.090        1.013        0.146      131.476       18.014        0.019      348.150       27.635      866.071
07/25/2013  17:50:00      -45.759      -84.711       -6.300       38.323       29.303       17.927     1468.616      858.643      321.365        0.598        0.132       96.280       14.789        0.024      348.196       27.716      866.057
07/25/2013  17:51:00      -71.991      -53.608       -4.309       41.151       32.635       20.207     1693.389     1065.018      408.322        0.562        0.158       89.758       19.499        0.047      348.230       27.776      866.035
07/25/2013  17:52:00     -117.272      -55.327       -2.074       49.833       38.126       22.547     2483.372     1453.578      508.345        1.063        0.222      129.668       21.624        0.028      348.169       27.669      865.999
07/25/2013  17:53:00      -11.170      -35.354       15.128       47.070       26.515       25.407     2215.570      703.025      645.492        0.258        0.178       37.077       25.881        0.487      348.260       27.825      865.996
07/25/2013  17:54:00      -47.352     -125.031      -13.293       34.048       33.653       21.769     1159.297     1132.530      473.897        1.041        0.138      133.697       21.839        0.027      348.011       27.393      866.018
07/25/2013  17:55:00      -68.369     -106.980       -2.515       40.628       42.716       24.663     1650.625     1824.628      608.265        1.010        0.204      126.961       23.261        0.034      348.038       27.443      866.020
07/25/2013  17:56:00     -113.656      -42.930       -5.218       30.177       40.275       16.220      910.651     1622.100      263.080        0.879        0.140      121.493       15.944        0.017      348.055       27.472      866.022
07/25/2013  17:57:00      -34.787      -34.820       -7.107       43.131       25.735       18.767     1860.269      662.292      352.213        0.267        0.144       49.220       12.902        0.069      348.185       27.696      866.038
07/25/2013  17:58:00      -82.918     -119.333       -6.833       66.047       59.293       35.205     4362.234     3515.693     1239.378        1.514        0.456      145.313       28.774        0.039      348.158       27.650      866.061
07/25/2013  17:59:00       16.642       -2.468       74.590       46.761       86.434       47.308     2186.636     7470.791     2238.045        0.887        0.595       16.824       55.037       10.701      348.126       27.595      866.088
07/25/2013  18:00:00       23.638      -36.787       28.660       58.688       82.176       57.697     3444.334     6752.930     3328.948        0.813        0.676       43.727       40.178        0.844      348.101       27.551      866.137
07/25/2013  18:01:00       56.629      -32.248       31.827       61.345       53.199       48.779     3763.255     2830.091     2379.344        0.711        0.449       65.167       38.219        0.344      348.228       27.770      866.182
07/25/2013  18:02:00       85.947     -130.732        7.724      105.003      122.835       61.672    11025.595    15088.371     3803.453        2.722        1.496      156.453       64.194        0.168      348.220       27.756      866.244
07/25/2013  18:03:00      104.578     -130.607       27.214       94.529      141.155       76.532     8935.749    19924.667     5857.198        3.172        1.736      167.316       82.595        0.244      348.238       27.786      866.289
07/25/2013  18:04:00       34.320     -176.279      -33.634      102.958       82.615       53.711    10600.343     6825.314     2884.917        2.684        1.016      179.589       50.049        0.078      348.220       27.753      866.338
07/25/2013  18:05:00      -55.994      -75.553       15.559       77.715       83.916       46.996     6039.605     7041.914     2208.590        1.218        0.765       94.041       39.234        0.174      348.321       27.930      866.366
07/25/2013  18:06:00        8.640     -129.168       -1.051      103.747      113.736       54.304    10763.418    12935.813     2948.928        2.170        1.332      129.457       50.448        0.152      348.299       27.892      866.397
07/25/2013  18:07:00       14.490      -37.313       19.299       32.729       58.737       29.559     1071.183     3449.978      873.733        0.368        0.270       40.028       28.945        0.523      348.344       27.971      866.417
07/25/2013  18:08:00       89.708      -98.691       18.424       71.543       99.319       53.559     5118.433     9864.234     2868.521        1.799        0.893      133.369       60.315        0.205      348.323       27.933      866.445
07/25/2013  18:09:00       12.590      -99.773        5.229       53.627       76.349       54.191     2875.873     5829.191     2936.660        1.089        0.582      100.564       45.862        0.208      348.353       27.988      866.448
07/25/2013  18:10:00       60.487      -55.597       34.898       64.999       87.032       56.964     4224.848     7574.564     3244.882        1.150        0.752       82.157       52.191        0.404      348.354       27.988      866.460
07/25/2013  18:11:00       28.502        5.822       82.537      108.290      135.476       91.713    11726.744    18353.804     8411.186        2.307        1.925       29.091       81.657        7.879      348.314       27.918      866.452
07/25/2013  18:12:00       12.213     -106.878       18.964       60.359      127.554       69.471     3643.225    16270.065     4826.258        1.833        1.237      107.574       72.367        0.453      348.417       28.097      866.453
07/25/2013  18:13:00       32.923     -193.553      -11.792       82.613       97.503       54.705     6824.910     9506.930     2992.627        2.900        0.966      196.333       50.448        0.066      348.309       27.909      866.483
07/25/2013  18:14:00       28.565     -197.511      -18.509      117.615      115.096       54.318    13833.301    13247.069     2950.413        3.509        1.502      199.566       43.246        0.047      348.161       27.653      866.464
07/25/2013  18:15:00       44.207     -152.086       -1.499      115.316       85.935       55.204    13297.743     7384.833     3047.519        2.440        1.187      158.381       32.606        0.042      348.147       27.628      866.456
07/25/2013  18:16:00      -14.668       14.458       26.420       38.808       41.446       39.298     1506.083     1717.735     1544.370        0.294        0.238       20.596       37.019        3.231      348.252       27.813      866.433
07/25/2013  18:17:00        7.573      -40.460       18.623       66.343       58.978       35.945     4401.456     3478.449     1292.044        0.560        0.459       41.163       33.999        0.682      348.220       27.756      866.424
07/25/2013  18:18:00       14.659      -47.475        8.740       67.895       77.356       36.584     4609.751     5983.987     1338.362        0.724        0.597       49.687       36.337        0.535      348.037       27.442      866.407
07/25/2013  18:19:00       33.429     -133.928       15.958      127.063      131.049       86.537    16145.051    17173.856     7488.589        3.005        2.040      138.037       53.610        0.151      348.041       27.446      866.405
07/25/2013  18:20:00       96.812     -237.282       34.379      162.557      126.757       81.063    26424.934    16067.258     6571.276        5.795        2.453      256.272       74.684        0.085      348.089       27.526      866.389
07/25/2013  18:21:00      139.096     -266.585      -16.058      109.885      135.505       79.337    12074.648    18361.501     6294.403        6.369        1.837      300.692       63.052        0.044      348.039       27.441      866.430
07/25/2013  18:22:00       43.168      -90.577       53.838       98.523      169.938       99.360     9706.789    28878.813     9872.420        3.070        2.423      100.338      116.352        1.345      348.095       27.538      866.411
07/25/2013  18:23:00       -0.468      -40.160       42.488       34.297       75.118       48.446     1176.315     5642.664     2347.012        0.629        0.458       40.163       45.083        1.260      348.062       27.485      866.359
07/25/2013  18:24:00      174.668     -188.677       -0.974      161.287      167.964       83.707    26013.587    28212.014     7006.852        6.366        3.062      257.114       91.799        0.127      348.078       27.509      866.329
07/25/2013  18:25:00      118.627     -201.175       19.668      115.870      175.344       99.892    13425.865    30745.453     9978.407        5.453        2.707      233.546       95.911        0.169      348.145       27.623      866.312
07/25/2013  18:26:00       97.662      -49.776       57.627      104.909      145.836       95.966    11005.935    21268.004     9209.424        2.840        2.074      109.615      112.656        1.056      348.125       27.590      866.306
07/25/2013  18:27:00       88.980     -108.789       18.694       94.795      107.153       58.075     8986.098    11481.769     3372.695        2.197        1.192      140.544       63.404        0.204      348.136       27.609      866.269
07/25/2013  18:28:00      167.876     -191.708        9.875      145.544      141.355       83.253    21183.111    19981.113     6931.078        5.655        2.405      254.822       98.072        0.148      348.184       27.692      866.247
07/25/2013  18:29:00       22.517     -174.571       -4.213       91.911      130.820       61.812     8447.607    17113.831     3820.746        3.019        1.469      176.017       65.435        0.138      348.234       27.779      866.258
07/25/2013  18:30:00       40.600       -8.818       38.194       68.075       66.347       51.208     4634.227     4401.937     2622.284        0.742        0.583       41.547       50.234        1.462      348.225       27.767      866.250
07/25/2013  18:31:00       18.432      -32.344       49.343       78.597      111.097       66.093     6177.539    12342.650     4368.337        1.335        1.144       37.227       75.537        4.117      348.214       27.746      866.217
07/25/2013  18:32:00      -44.769       -2.863        5.717       70.759       57.044       45.864     5006.768     3253.998     2103.521        0.620        0.518       44.860       43.744        0.951      348.324       27.936      866.202
07/25/2013  18:33:00       13.766     -148.182        8.269       82.468      145.211       59.840     6800.945    21086.353     3580.871        2.684        1.573      148.820       66.113        0.197      348.354       27.986      866.173
07/25/2013  18:34:00       70.214      -90.597       30.241       60.336      126.925       50.792     3640.405    16109.983     2579.805        1.819        1.117      114.621       63.018        0.302      348.036       27.437      866.169
07/25/2013  18:35:00       38.459     -134.183       15.332      133.214       93.503       48.024    17745.922     8742.873     2306.329        2.425        1.440      139.586       39.421        0.080      348.011       27.394      866.161
07/25/2013  18:36:00       18.661     -108.501       11.874       70.339      118.057       51.717     4947.616    13937.497     2674.598        1.691        1.078      110.094       59.809        0.295      347.942       27.276      866.179
07/25/2013  18:37:00       -4.418     -127.918       18.282       70.040      103.740       45.935     4905.621    10762.043     2110.052        1.724        0.889      127.994       38.630        0.091      347.931       27.256      866.176
07/25/2013  18:38:00       58.563     -106.344       21.514       90.184       79.831       56.268     8133.194     6373.052     3166.069        1.643        0.884      121.403       47.777        0.155      347.889       27.183      866.202
07/25/2013  18:39:00       21.850      -22.094       38.462       50.727       75.603       52.922     2573.257     5715.835     2800.768        0.677        0.554       31.074       51.845        2.784      347.928       27.253      866.210
07/25/2013  18:40:00      105.656     -145.004       -2.100       86.793       80.366       56.029     7533.023     6458.663     3139.233        2.466        0.857      179.414       46.714        0.068      347.880       27.167      866.236
07/25/2013  18:41:00       92.379     -159.783       35.542       87.237      140.583       68.440     7610.338    19763.626     4684.044        3.369        1.603      184.566       73.236        0.157      347.863       27.137      866.260
07/25/2013  18:42:00       70.890      -11.785       65.160       72.153      106.111       60.460     5205.987    11259.597     3655.426        1.476        1.006       71.863       68.084        0.898      347.803       27.035      866.266
07/25/2013  18:43:00       21.798     -169.295       -1.487      127.102      123.418       70.463    16154.845    15231.931     4965.026        3.274        1.818      170.693       65.546        0.147      347.859       27.131      866.280
07/25/2013  18:44:00       18.891      -18.660       58.501       59.656      128.559       63.933     3558.814    16527.352     4087.379        1.415        1.209       26.553       76.267        8.250      347.731       26.913      866.272
07/25/2013  18:45:00       99.565      -96.742        1.715      100.198       91.256       48.803    10039.657     8327.567     2381.752        2.001        1.037      138.824       47.606        0.118      347.603       26.692      866.277
07/25/2013  18:46:00        6.953        7.075      104.296       90.307      153.742      108.517     8155.347    23636.678    11775.964        2.726        2.178        9.920      108.338      119.277      347.710       26.874      866.269
07/25/2013  18:47:00       60.801      -95.904       73.838      131.207      128.776       75.526    17215.370    16583.154     5704.163        2.892        1.975      113.553       88.723        0.610      347.753       26.949      866.290
07/25/2013  18:48:00       80.742     -132.041       50.900       97.222      102.663       67.470     9452.081    10539.605     4552.168        2.554        1.227      154.771       68.146        0.194      347.678       26.819      866.303
07/25/2013  18:49:00       75.506     -152.668       13.815       81.184       94.652       67.658     6590.783     8959.008     4577.582        2.466        1.006      170.319       65.005        0.146      347.636       26.748      866.305
07/25/2013  18:50:00      111.823      -87.182       62.805      120.234      167.934      100.217    14456.217    28201.889    10043.537        3.837        2.635      141.793      119.364        0.709      347.623       26.723      866.296
07/25/2013  18:51:00       52.676     -120.259       41.421       96.018      130.989       73.977     9219.387    17158.147     5472.636        2.540        1.593      131.289       77.702        0.350      347.609       26.700      866.309
07/25/2013  18:52:00      177.999     -228.187      -14.311      112.465      115.685       73.403    12648.440    13382.914     5388.001        5.768        1.571      289.401       67.311        0.054      347.609       26.700      866.319
07/25/2013  18:53:00      215.062     -266.501      -40.530      136.220      133.338       78.271    18555.769    17778.964     6126.307        8.068        2.123      342.454       72.851        0.045      347.561       26.616      866.334
07/25/2013  18:54:00      103.893     -190.264      -14.817       59.727       87.304       59.404     3567.288     7621.955     3528.890        3.096        0.736      216.781       49.301        0.052      347.508       26.526      866.346
07/25/2013  18:55:00       16.843      -51.203        2.611       30.404       42.413       35.049      924.421     1798.858     1228.433        0.343        0.198       53.902       31.608        0.344      347.609       26.703      866.350
07/25/2013  18:56:00        1.765       -3.428       41.899       42.712       73.387       58.164     1824.332     5385.723     3383.005        0.618        0.530        3.856       39.687      105.935      347.501       26.515      866.364
07/25/2013  18:57:00       -6.068      -65.601       29.228       88.995       79.140       52.169     7920.068     6263.145     2721.633        1.105        0.845       65.881       54.205        0.677      347.569       26.634      866.379
07/25/2013  18:58:00       15.350      -33.548       32.082       42.942       76.364       46.649     1843.995     5831.444     2176.088        0.612        0.493       36.893       53.131        2.074      347.407       26.353      866.369
07/25/2013  18:59:00       -2.316        4.928        0.214       33.281       38.251       33.986     1107.634     1463.164     1155.025        0.188        0.186        5.445       20.603       14.318      347.421       26.378      866.374
07/25/2013  19:00:00      -22.569      -32.495       14.589       52.556       62.231       29.194     2762.161     3872.691      852.297        0.463        0.374       39.563       27.406        0.480      347.550       26.602      866.367
07/25/2013  19:01:00       10.895       13.410       26.262       19.591       15.449       10.159      383.798      238.671      103.202        0.086        0.036       17.278        9.000        0.271      347.458       26.443      866.373
07/25/2013  19:02:00       -7.596      -17.153       10.834       23.467       37.547       20.540      550.680     1409.754      421.885        0.143        0.119       18.760       17.891        0.909      347.370       26.289      866.388
07/25/2013  19:03:00       85.547      -89.490       42.135       90.314      161.974       83.259     8156.667    26235.554     6932.043        2.920        2.066      123.801       97.211        0.617      347.379       26.302      866.362
07/25/2013  19:04:00      -35.212     -121.952      -11.850      105.916       98.580       55.476    11218.118     9718.070     3077.633        2.013        1.201      126.934       51.341        0.164      347.477       26.473      866.383
07/25/2013  19:05:00       17.005      -83.195       21.740      120.538      107.516       59.041    14529.464    11559.725     3485.881        1.862        1.479       84.915       66.845        0.620      347.421       26.376      866.358
07/25/2013  19:06:00      -18.278       -0.463       35.651       69.086       63.409       52.509     4772.915     4020.661     2757.185        0.658        0.578       18.284       44.693        5.975      347.371       26.291      866.324
07/25/2013  19:07:00     -105.355      -46.089       -1.764       46.744       28.716       22.231     2184.991      824.606      494.209        0.836        0.175      114.995       18.375        0.026      347.430       26.393      866.321
07/25/2013  19:08:00      -15.169      -35.137        0.462       61.109       37.024       36.985     3734.354     1370.762     1367.869        0.397        0.324       38.272       11.254        0.086      347.350       26.254      866.324
07/25/2013  19:09:00       32.098      -11.163       13.697       32.335       51.602       24.039     1045.544     2662.787      577.863        0.281        0.214       33.984        6.200        0.033      347.345       26.243      866.328
07/25/2013  19:10:00       54.794       37.942        1.670       33.392       46.857       25.212     1115.054     2195.534      635.668        0.419        0.197       66.648       18.251        0.075      347.235       26.057      866.309
07/25/2013  19:11:00      101.533       45.639       22.268       58.184       37.399       32.806     3385.371     1398.721     1076.221        0.937        0.293      111.318       11.183        0.010      347.252       26.087      866.310
07/25/2013  19:12:00      114.444       60.235       10.670       58.726       33.926       35.588     3448.772     1150.967     1266.490        1.135        0.293      129.328       20.008        0.024      347.363       26.276      866.307
07/25/2013  19:13:00       49.721       16.988       -1.593       72.807      120.178       31.285     5300.819    14442.802      978.743        1.174        1.036       52.543       29.958        0.325      347.316       26.200      866.298
07/25/2013  19:14:00       73.487      -98.502        7.150       71.164       69.294       53.291     5064.273     4801.669     2839.895        1.393        0.635      122.895       52.506        0.183      347.189       25.977      866.311
07/25/2013  19:15:00       32.015      -31.281       32.718       44.092       53.029       31.883     1944.147     2812.051     1016.500        0.442        0.289       44.760       35.047        0.613      347.368       26.286      866.347
07/25/2013  19:16:00      -84.595      -81.582       -7.754       60.696       50.302       26.715     3683.951     2530.311      713.665        1.040        0.346      117.524       13.151        0.013      347.347       26.252      866.364
07/25/2013  19:17:00      -41.956      -34.207       15.337       53.522       41.838       29.571     2864.566     1750.400      874.424        0.433        0.274       54.134       32.980        0.371      347.390       26.325      866.391
07/25/2013  19:18:00       86.234      -41.068       10.474       59.953       53.801       37.830     3594.387     2894.568     1431.122        0.857        0.396       95.514       33.713        0.125      347.105       25.835      866.410
07/25/2013  19:19:00       48.467      -68.613        8.197       58.629       82.894       40.708     3437.383     6871.384     1657.135        0.954        0.598       84.005       46.177        0.302      347.120       25.858      866.456
07/25/2013  19:20:00       63.565     -117.665       -3.616       42.607       60.421       38.760     1815.320     3650.664     1502.307        1.243        0.348      133.737       32.980        0.061      347.219       26.030      866.482
07/25/2013  19:21:00      -85.853     -125.520        5.663       68.910       89.033       35.989     4748.523     7926.897     1295.209        1.856        0.699      152.073       32.540        0.046      347.253       26.086      866.487
07/25/2013  19:22:00      -34.725      -46.169       14.191       42.860       72.968       39.525     1836.959     5324.324     1562.241        0.613        0.436       57.770       45.168        0.611      347.246       26.076      866.469
07/25/2013  19:23:00      -69.888       -1.784       -1.114       53.276       51.753       21.962     2838.352     2678.388      482.346        0.544        0.300       69.910       20.850        0.089      347.295       26.160      866.453
07/25/2013  19:24:00      -28.751      -23.195       14.940       43.325       38.630       28.979     1877.039     1492.302      839.782        0.290        0.210       36.941       27.014        0.535      347.296       26.161      866.456
07/25/2013  19:25:00       13.838      -12.510       11.989       42.585       30.195       30.203     1813.446      911.737      912.214        0.206        0.182       18.654       17.339        0.864      347.264       26.106      866.458
07/25/2013  19:26:00       95.605     -128.758        5.048       73.204      102.052       52.894     5358.804    10414.660     2797.738        2.215        0.929      160.371       48.188        0.090      347.184       25.966      866.428
07/25/2013  19:27:00       88.135     -117.167        1.075       57.836       66.092       46.064     3344.968     4368.162     2121.925        1.566        0.492      146.615       37.926        0.067      347.157       25.921      866.411
07/25/2013  19:28:00       47.064     -103.774       -7.508       72.123       75.194       47.330     5201.734     5654.146     2240.086        1.307        0.655      113.948       49.119        0.186      347.162       25.931      866.394
07/25/2013  19:29:00       -9.151     -103.259      -10.716       41.819       38.409       25.690     1748.830     1475.217      659.988        0.737        0.194      103.663       18.646        0.032      347.197       25.993      866.381
07/25/2013  19:30:00     -224.047     -123.462      -18.503       71.034       47.598       34.812     5045.795     2265.597     1211.878        3.715        0.426      255.812       27.930        0.012      347.212       26.014      866.346
07/25/2013  19:31:00      -85.100      -73.124      -17.056       81.850       48.459       34.017     6699.448     2348.280     1157.149        1.154        0.510      112.201        9.380        0.007      347.198       25.992      866.296
07/25/2013  19:32:00      -95.632      -14.001        5.133       59.502       35.982       30.779     3540.496     1294.685      947.374        0.757        0.289       96.651       29.469        0.093      347.194       25.987      866.260
07/25/2013  19:33:00      -37.657       13.862       -0.115       36.664       44.928       17.937     1344.280     2018.504      321.743        0.265        0.184       40.127       13.585        0.115      347.154       25.919      866.227
07/25/2013  19:34:00       -6.829       29.102       -5.577       28.765       27.297       24.191      827.420      745.107      585.213        0.154        0.108       29.893       16.561        0.307      347.086       25.803      866.199
07/25/2013  19:35:00       -1.713      -24.672       -2.239       16.152       29.835       14.824      260.899      890.116      219.744        0.099        0.069       24.731       13.417        0.294      346.817       25.337      866.180
07/25/2013  19:36:00      -18.788        4.069       21.303       28.304       28.390       15.270      801.100      805.994      233.185        0.133        0.092       19.223       15.240        0.629      346.967       25.596      866.163
07/25/2013  19:37:00       -1.316       -3.219        8.741       31.749       20.920       12.476     1007.975      437.626      155.660        0.084        0.080        3.478        6.702        3.713      346.927       25.525      866.141
07/25/2013  19:38:00      -52.188       51.179       -6.971       24.845       21.548       17.555      617.270      464.319      308.168        0.339        0.069       73.095       14.777        0.041      347.023       25.693      866.118
07/25/2013  19:39:00      -66.085       46.083      -10.648       19.336       32.223       15.874      373.881     1038.315      251.979        0.413        0.083       80.566       12.010        0.022      347.076       25.783      866.103
07/25/2013  19:40:00     -104.169       72.687      -11.634       27.670       51.984       17.559      765.603     2702.348      308.328        1.002        0.189      127.022       13.897        0.012      347.074       25.778      866.073
07/25/2013  19:41:00     -118.034       13.389      -14.551       30.360       25.766       18.108      921.733      663.903      327.887        0.812        0.096      118.790        8.065        0.005      347.042       25.726      866.047
07/25/2013  19:42:00      -83.714        7.460       -2.601       18.707       14.021       12.272      349.943      196.581      150.607        0.388        0.035       84.046        8.881        0.011      346.961       25.584      866.021
07/25/2013  19:43:00      -23.807       22.939        1.626       22.192       15.370       11.241      492.507      236.239      126.354        0.098        0.043       33.060       12.760        0.149      346.944       25.556      865.990
07/25/2013  19:44:00      -66.152       71.248      -13.774       22.778       21.777       15.950      518.848      474.233      254.418        0.544        0.062       97.224       11.897        0.015      347.057       25.751      865.959
07/25/2013  19:45:00      -27.759       67.301       -3.805       15.399       38.989       11.658      237.131     1520.124      135.910        0.360        0.095       72.801       11.592        0.025      347.003       25.658      865.930
07/25/2013  19:46:00      -38.666      110.404      -12.148       19.971       34.205       16.802      398.860     1169.999      282.296        0.784        0.093      116.979       18.004        0.024      347.113       25.847      865.910
07/25/2013  19:47:00      -41.792      159.204      -20.876       29.953       39.007       15.801      897.171     1521.570      249.680        1.510        0.133      164.598       18.765        0.013      347.136       25.887      865.886
07/25/2013  19:48:00      -26.007      142.722      -21.841       22.250       29.398       13.610      495.070      864.231      185.242        1.153        0.077      145.073        9.355        0.004      347.112       25.846      865.871
07/25/2013  19:49:00      -10.655      144.489      -19.422       27.059       28.735       14.716      732.210      825.689      216.568        1.157        0.089      144.882       14.259        0.010      347.097       25.819      865.860
07/25/2013  19:50:00      -49.273      187.031      -24.108       31.259       51.208       25.015      977.105     2622.287      625.749        2.111        0.211      193.413       24.920        0.017      347.090       25.807      865.844
07/25/2013  19:51:00      -40.761      219.839      -28.479       33.775       45.228       23.095     1140.769     2045.608      533.361        2.726        0.186      223.586       19.889        0.008      347.107       25.833      865.822
07/25/2013  19:52:00      -29.783      221.849      -25.878       48.342       41.168       26.129     2336.980     1694.777      682.728        2.774        0.236      223.839       17.813        0.006      347.039       25.715      865.807
07/25/2013  19:53:00      -27.278      188.390      -24.842       49.535       41.848       26.924     2453.677     1751.219      724.893        2.089        0.246      190.355       24.171        0.016      347.041       25.721      865.781
07/25/2013  19:54:00       10.444      193.674      -19.821       47.110       75.250       31.730     2219.356     5662.526     1006.802        2.345        0.444      193.956       33.790        0.030      347.008       25.663      865.757
07/25/2013  19:55:00       -6.043      158.277      -18.130       44.495       71.969       41.062     1979.788     5179.599     1686.117        1.713        0.442      158.392       44.230        0.078      346.968       25.596      865.732
07/25/2013  19:56:00      -11.170      205.554      -31.096       36.099       53.175       24.628     1303.128     2827.606      606.532        2.404        0.237      205.858       18.477        0.008      346.978       25.611      865.705
07/25/2013  19:57:00       33.054      151.644      -10.244       49.610       64.702       44.770     2461.120     4186.335     2004.314        1.642        0.433      155.204       40.318        0.067      346.983       25.622      865.690
07/25/2013  19:58:00       22.826      126.837      -15.213       31.003       57.500       32.016      961.180     3306.275     1025.016        1.107        0.265      128.875       34.080        0.070      346.965       25.591      865.663
07/25/2013  19:59:00       57.535       62.520        7.890       46.468       41.657       29.822     2159.305     1735.267      889.344        0.603        0.239       84.965       21.162        0.062      346.933       25.536      865.650
07/25/2013  20:00:00       75.562       43.749        6.898       42.197       29.528       25.251     1780.583      871.899      637.638        0.548        0.165       87.313       19.256        0.049      346.920       25.515      865.623
07/25/2013  20:01:00       58.685       63.268       13.421       57.282       38.795       33.238     3281.209     1505.058     1104.747        0.676        0.295       86.295       24.203        0.079      346.919       25.512      865.604
07/25/2013  20:02:00      108.776       79.802       21.172       44.347       35.691       30.800     1966.624     1273.841      948.666        1.142        0.209      134.910       21.530        0.025      346.927       25.525      865.598
07/25/2013  20:03:00      102.993       63.291        7.953       43.773       33.705       27.739     1916.043     1136.037      769.441        0.925        0.191      120.885       15.531        0.017      346.858       25.408      865.577
07/25/2013  20:04:00       63.108       73.562        1.331       49.658       34.808       21.401     2465.941     1211.597      457.990        0.676        0.207       96.922       17.851        0.034      346.886       25.456      865.573
07/25/2013  20:05:00       63.982       51.935       19.476       44.822       27.748       26.227     2008.976      769.933      687.835        0.532        0.173       82.407       15.701        0.036      346.909       25.496      865.565
07/25/2013  20:06:00       25.042       54.641        5.279       33.164       20.798       18.637     1099.835      432.555      347.349        0.276        0.094       60.106       16.799        0.078      346.872       25.432      865.557
07/25/2013  20:07:00       17.717       35.306        0.938       17.968       35.006       16.151      322.858     1225.452      260.864        0.168        0.090       39.502       17.505        0.196      346.920       25.512      865.560
07/25/2013  20:08:00       16.822       59.456       -1.916       22.019       28.190       15.268      484.855      794.674      233.120        0.267        0.076       61.790       14.692        0.057      346.932       25.536      865.569
07/25/2013  20:09:00       13.898       40.364        3.035       21.692       21.187       12.400      470.523      448.873      153.750        0.145        0.054       42.689       12.446        0.085      346.902       25.485      865.567
07/25/2013  20:10:00      -14.076       62.835      -10.752       20.352       22.627       11.870      414.203      511.959      140.908        0.266        0.053       64.392        9.353        0.021      346.912       25.502      865.570
07/25/2013  20:11:00       -7.969       96.464      -10.974       11.476       18.070        7.931      131.699      326.529       62.898        0.501        0.026       96.792        5.113        0.003      346.987       25.627      865.577
07/25/2013  20:12:00      -27.390       38.218        1.870       27.136       31.012       16.764      736.342      961.755      281.025        0.210        0.099       47.019       10.978        0.055      346.882       25.450      865.577
07/25/2013  20:13:00      -45.481       18.918       -5.240       16.325       17.401       16.349      266.509      302.791      267.300        0.165        0.042       49.259        9.997        0.041      346.922       25.517      865.568
07/25/2013  20:14:00      -23.903      110.085       -7.499       28.077       37.270       18.801      788.297     1389.040      353.490        0.764        0.127      112.650       10.409        0.009      346.909       25.496      865.566
07/25/2013  20:15:00      -75.548       47.099      -13.173       39.493       33.276       21.940     1559.709     1107.282      481.385        0.562        0.157       89.027       24.506        0.076      346.939       25.546      865.565
07/25/2013  20:16:00      -82.411       51.356      -12.078       27.440       35.257       20.875      752.963     1243.079      435.749        0.600        0.122       97.103       18.929        0.038      346.990       25.635      865.571
07/25/2013  20:17:00      -93.799       91.583      -20.918       18.057       23.842       15.355      326.045      568.459      235.761        0.938        0.057      131.094       11.419        0.008      347.112       25.845      865.566
07/25/2013  20:18:00      -93.522       33.426      -15.841       25.971       27.571       12.660      674.507      760.169      160.265        0.585        0.080       99.315       12.294        0.015      347.051       25.741      865.569
07/25/2013  20:19:00      -59.521       -3.697       -6.575       16.926       25.932       12.396      286.473      672.463      153.673        0.236        0.056       59.636        7.510        0.016      347.018       25.683      865.559
07/25/2013  20:20:00      -59.298      -38.558       -9.124       31.094       23.062       18.075      966.819      531.877      326.692        0.346        0.091       70.732       16.496        0.054      346.986       25.627      865.556
07/25/2013  20:21:00      -73.010       -7.972      -11.874       42.487       37.819       19.142     1805.171     1430.309      366.426        0.457        0.180       73.444       18.916        0.066      346.976       25.611      865.565
07/25/2013  20:22:00     -126.275       29.925      -16.581       32.992       31.974       20.552     1088.487     1022.315      422.388        0.982        0.127      129.772       13.920        0.012      346.923       25.519      865.554
07/25/2013  20:23:00      -80.651       46.758      -17.214       29.198       29.022       20.045      852.501      842.249      401.788        0.554        0.105       93.225       11.124        0.014      346.875       25.438      865.536
07/25/2013  20:24:00      -40.523       -3.933        8.728       63.207       40.182       26.540     3995.185     1614.606      704.365        0.402        0.316       40.713       37.042        0.828      346.794       25.299      865.515
07/25/2013  20:25:00       -8.451       19.658       -7.742       15.630       31.148       14.179      244.312      970.176      201.058        0.097        0.071       21.397        8.112        0.144      346.792       25.295      865.503
07/25/2013  20:26:00       -9.386       11.904        1.953       11.909       14.650       11.922      141.823      214.636      142.132        0.037        0.025       15.159        8.265        0.297      346.862       25.413      865.507
07/25/2013  20:27:00      -49.794       23.784        0.029       34.862       30.375       17.492     1215.356      922.629      305.962        0.274        0.122       55.182       16.042        0.085      346.881       25.446      865.499
07/25/2013  20:28:00      -26.005       34.130       -1.866       24.419       17.734       18.132      596.302      314.508      328.759        0.154        0.062       42.908       15.664        0.133      346.809       25.323      865.481
07/25/2013  20:29:00      -35.151       68.740      -14.143       14.530       27.589       13.598      211.133      761.175      184.904        0.366        0.058       77.206       15.628        0.041      346.877       25.442      865.468
07/25/2013  20:30:00      -50.894       27.753      -11.055       22.795       21.457       11.547      519.629      460.418      133.341        0.230        0.056       57.970        7.121        0.015      346.837       25.372      865.467
07/25/2013  20:31:00       -9.486        6.174       14.242       32.366       33.771       25.071     1047.544     1140.449      628.572        0.157        0.141       11.318       21.315        3.547      346.883       25.452      865.474
07/25/2013  20:32:00       -8.328        7.335        3.951       23.274       14.802       12.047      541.690      219.092      145.124        0.052        0.045       11.098       15.253        1.889      346.871       25.430      865.471
07/25/2013  20:33:00      -27.526      -17.771       -8.184       19.584       12.477       10.317      383.517      155.673      106.450        0.089        0.032       32.764       10.178        0.096      346.847       25.389      865.470
07/25/2013  20:34:00      -26.597      -21.441       -4.421       20.500        9.566       11.437      420.230       91.513      130.808        0.091        0.032       34.163        9.249        0.073      346.833       25.365      865.474
07/25/2013  20:35:00      -48.411      -23.530        3.589       29.790       16.492        9.364      887.461      271.977       87.687        0.208        0.062       53.827       13.062        0.059      346.823       25.346      865.478
07/25/2013  20:36:00      -69.895      -31.449       -4.624       20.798       21.616       12.557      432.538      467.256      157.677        0.348        0.053       76.644       10.376        0.018      346.834       25.363      865.479
07/25/2013  20:37:00     -107.970      -44.819       -7.763       19.517       19.683       12.585      380.917      387.413      158.385        0.733        0.046      116.903        8.153        0.005      346.775       25.264      865.472
07/25/2013  20:38:00      -96.775      -15.749       -4.813       41.244       30.272       16.379     1701.065      916.407      268.272        0.626        0.144       98.048       16.086        0.027      346.646       25.044      865.466
07/25/2013  20:39:00     -130.245      -33.118      -10.395       30.997       32.157       23.762      960.830     1034.066      564.640        1.036        0.128      134.390       18.699        0.019      346.568       24.909      865.457
07/25/2013  20:40:00     -112.283      -15.767       -9.442       26.851       22.829       12.980      720.968      521.158      168.475        0.718        0.071      113.385       11.965        0.011      346.524       24.833      865.453
07/25/2013  20:41:00     -102.260        3.898       -8.550       33.043       26.035       23.192     1091.866      677.844      537.848        0.643        0.115      102.334       20.533        0.040      346.527       24.840      865.451
07/25/2013  20:42:00     -116.158        9.145      -15.285       18.895       15.495       13.149      357.027      240.087      172.897        0.729        0.039      116.518        4.044        0.001      346.505       24.799      865.435
07/25/2013  20:43:00     -124.916      -47.598      -11.659       46.559       42.576       19.203     2167.785     1812.708      368.760        1.118        0.217      133.677        9.320        0.005      346.429       24.669      865.414
07/25/2013  20:44:00     -152.566      -66.817       -1.398       77.013       48.080       29.053     5931.011     2311.712      844.073        1.841        0.454      166.556       34.034        0.042      346.385       24.593      865.396
07/25/2013  20:45:00     -181.225      -35.793      -11.269       65.060       54.748       32.196     4232.801     2997.384     1036.555        2.126        0.413      184.726       28.742        0.024      346.298       24.443      865.374
07/25/2013  20:46:00     -244.284      -77.080       -7.951       60.083       55.555       38.937     3609.987     3086.409     1516.076        3.694        0.411      256.156       37.439        0.021      346.438       24.681      865.364
07/25/2013  20:47:00     -159.059      -61.202        2.881       61.235       77.585       38.027     3749.751     6019.364     1446.044        2.013        0.561      170.427       33.611        0.039      346.361       24.553      865.342
07/25/2013  20:48:00     -214.395      -88.754       -7.171       63.591       68.279       35.832     4043.756     4662.050     1283.960        3.194        0.499      232.040       34.732        0.022      346.350       24.530      865.318
07/25/2013  20:49:00     -159.879      -60.374        0.500      101.420       53.312       38.470    10286.090     2842.172     1479.904        2.190        0.730      170.898       49.274        0.083      346.351       24.534      865.292
07/25/2013  20:50:00     -178.710      -61.332      -12.012       81.835       62.135       37.886     6696.945     3860.699     1435.361        2.392        0.600      188.942       41.729        0.049      346.270       24.395      865.285
07/25/2013  20:51:00     -146.008      -45.172       -0.909      108.675       65.685       38.791    11810.252     4314.512     1504.726        2.049        0.881      152.836       50.641        0.110      346.241       24.344      865.277
07/25/2013  20:52:00     -168.216      -12.086        4.314       85.330       54.046       43.168     7281.271     2920.927     1863.483        2.026        0.603      168.650       51.172        0.092      346.187       24.251      865.262
07/25/2013  20:53:00     -191.169      -35.497       -6.764       97.432       54.486       36.652     9492.947     2968.712     1343.335        2.583        0.690      194.437       44.719        0.053      346.196       24.267      865.250
07/25/2013  20:54:00     -198.177      -30.018      -19.074       69.964       56.157       30.689     4894.995     3153.632      941.786        2.476        0.450      200.438       34.482        0.030      346.195       24.264      865.270
07/25/2013  20:55:00     -124.298      -37.464       -2.014       53.575       60.707       26.188     2870.249     3685.371      685.792        1.205        0.362      129.821       21.469        0.027      346.186       24.252      865.287
07/25/2013  20:56:00     -117.146      -45.760       -3.796       56.826       41.212       32.557     3229.240     1698.462     1059.940        1.091        0.299      125.766       33.764        0.072      346.217       24.304      865.310
07/25/2013  20:57:00      -84.977      -42.095        2.318       45.665       42.319       24.096     2085.295     1790.881      580.602        0.673        0.223       94.832       18.644        0.039      346.244       24.353      865.332
07/25/2013  20:58:00      -99.493      -15.826       -4.499       54.943       45.430       22.914     3018.714     2063.920      525.052        0.789        0.280      100.744       14.653        0.021      346.230       24.330      865.383
07/25/2013  20:59:00      -56.795      -20.070        2.750       34.497       52.745       26.877     1190.049     2782.050      722.353        0.416        0.235       60.237       21.172        0.124      346.274       24.403      865.427
07/25/2013  21:00:00      -71.106       -4.962       -5.996       38.298       29.271       11.015     1466.700      856.790      121.333        0.378        0.122       71.278       12.492        0.031      346.258       24.375      865.470
07/25/2013  21:01:00      -67.461        5.370       -3.826       42.923       26.010       19.909     1842.344      676.519      396.362        0.375        0.146       67.675       15.097        0.050      346.263       24.382      865.517
07/25/2013  21:02:00      -57.970       82.832       -5.375       54.484       32.252       32.253     2968.519     1040.217     1040.241        0.765        0.252      101.102       25.458        0.063      346.265       24.388      865.576
07/25/2013  21:03:00      -16.139      159.025      -22.083       29.861       51.759       19.525      891.680     2679.032      381.230        1.499        0.198      159.842       23.869        0.022      346.257       24.374      865.636
07/25/2013  21:04:00       31.941      219.697      -33.328       46.645       41.132       29.695     2175.727     1691.802      881.807        2.757        0.237      222.007       21.263        0.009      346.104       24.108      865.691
07/25/2013  21:05:00      -72.154      154.551      -25.712       41.537       39.119       27.058     1725.344     1530.273      732.116        1.687        0.199      170.564       22.542        0.017      346.176       24.236      865.724
07/25/2013  21:06:00      -87.374      148.319      -16.238       71.746       77.235       35.873     5147.519     5965.223     1286.852        2.115        0.620      172.142       38.798        0.051      346.211       24.292      865.734
07/25/2013  21:07:00     -194.719      204.000      -46.182      117.437      104.232       61.225    13791.532    10864.407     3748.523        5.503        1.420      282.013       66.716        0.056      346.065       24.041      865.738
07/25/2013  21:08:00     -122.674      175.839      -34.992       83.084       85.363       36.030     6902.986     7286.921     1298.168        3.134        0.774      214.402       32.377        0.023      345.994       23.918      865.700
07/25/2013  21:09:00      -79.931       66.058       -6.651      106.266       81.631       49.970    11292.481     6663.677     2496.968        1.562        1.023      103.695       50.564        0.238      345.981       23.900      865.693
07/25/2013  21:10:00     -234.304      202.575      -51.111       93.259      128.450       56.932     8697.176    16499.385     3241.248        6.349        1.422      309.734       57.182        0.034      345.968       23.875      865.700
07/25/2013  21:11:00     -133.581       58.771       -3.955       83.445       64.544       47.679     6963.124     4165.972     2273.260        1.736        0.670      145.938       43.849        0.090      346.007       23.942      865.662
07/25/2013  21:12:00     -101.974       49.437      -10.981       72.778       72.990       44.245     5296.569     5327.518     1957.588        1.277        0.629      113.325       35.010        0.095      345.964       23.872      865.680
07/25/2013  21:13:00      -75.817      221.399       -2.734      108.086      166.097       71.923    11682.511    27588.054     5172.922        4.960        2.222      234.021       79.502        0.115      345.969       23.879      865.735
07/25/2013  21:14:00     -139.227       54.626      -16.925       87.117       92.302       43.977     7589.383     8519.587     1933.980        2.035        0.902      149.559       38.507        0.066      345.969       23.878      865.721
07/25/2013  21:15:00     -166.037      250.902      -38.210      135.453      141.467       73.870    18347.431    20012.987     5456.718        6.789        2.191      300.865       59.138        0.039      346.003       23.934      865.734
07/25/2013  21:16:00     -154.949      231.236      -24.368       84.801      129.639       56.832     7191.283    16806.289     3229.829        5.264        1.361      278.351       47.779        0.029      346.016       23.956      865.738
07/25/2013  21:17:00     -150.904      176.626      -35.847       95.271       73.223       57.938     9076.642     5361.626     3356.764        3.652        0.890      232.312       57.817        0.062      345.996       23.923      865.760
07/25/2013  21:18:00     -273.071      172.204      -54.939      112.893       83.521       60.755    12744.823     6975.783     3691.175        6.532        1.171      322.834       58.275        0.033      346.092       24.087      865.796
07/25/2013  21:19:00     -153.348      114.883      -15.338      106.747       76.159       51.317    11394.962     5800.169     2633.405        2.838        0.991      191.608       48.569        0.064      346.082       24.072      865.778
07/25/2013  21:20:00     -177.904      148.829      -29.048      124.752      124.602       48.353    15563.080    15525.683     2337.990        4.403        1.671      231.948       50.169        0.047      346.105       24.111      865.799
07/25/2013  21:21:00     -155.247      146.648      -27.485       96.584      107.767       50.022     9328.404    11613.700     2502.211        3.490        1.172      213.559       44.422        0.043      346.126       24.146      865.794
07/25/2013  21:22:00     -201.273       78.390      -27.128      179.162       81.755       60.982    32099.107     6683.956     3718.770        4.494        2.125      216.000       72.984        0.114      346.160       24.205      865.790
07/25/2013  21:23:00     -219.215      144.926      -42.318       76.743       86.315       48.727     5889.457     7450.212     2374.342        4.328        0.786      262.791       42.431        0.026      346.188       24.251      865.806
07/25/2013  21:24:00     -136.356       -5.539      -25.151       68.879       63.213       42.928     4744.378     3995.942     1842.780        1.492        0.529      136.469       22.881        0.028      346.224       24.318      865.809
07/25/2013  21:25:00     -119.268       11.071       -8.634       91.490       59.348       40.438     8370.388     3522.209     1635.272        1.397        0.676      119.781       47.995        0.161      346.238       24.340      865.802
07/25/2013  21:26:00     -187.774      124.648      -28.834      141.748       60.657       52.117    20092.483     3679.281     2716.173        3.905        1.324      225.380       61.150        0.074      346.249       24.358      865.839
07/25/2013  21:27:00     -221.831      -71.811       -5.805       95.861      120.229       64.305     9189.302    14454.977     4135.182        4.108        1.389      233.165       50.010        0.046      346.290       24.428      865.824
07/25/2013  21:28:00     -182.552      -25.892       -7.557       78.088       94.687       52.798     6097.758     8965.567     2787.678        2.595        0.893      184.379       43.264        0.055      346.226       24.318      865.812
07/25/2013  21:29:00     -129.984      -18.569        8.765       65.984       57.929       30.792     4353.874     3355.714      948.139        1.299        0.433      131.304       28.763        0.048      346.206       24.285      865.832
07/25/2013  21:30:00     -118.624      -27.025       -9.297       98.595       40.545       31.568     9720.889     1643.917      996.512        1.362        0.618      121.663       43.955        0.131      346.254       24.369      865.849
07/25/2013  21:31:00     -106.909      -27.018        1.964      111.627      102.007       52.432    12460.665    10405.414     2749.142        1.888        1.281      110.270       59.905        0.295      346.274       24.403      865.825
07/25/2013  21:32:00      -72.366       25.799        8.774       50.319       43.164       32.934     2531.975     1863.169     1084.618        0.573        0.274       76.828       25.950        0.114      346.238       24.340      865.842
07/25/2013  21:33:00      -88.568      -26.084       -0.235       55.015       30.147       26.037     3026.610      908.824      677.903        0.657        0.231       92.330       26.501        0.082      346.225       24.319      865.840
07/25/2013  21:34:00      -74.741      -29.379        5.091       58.068       39.995       24.856     3371.845     1599.587      617.827        0.603        0.279       80.308       29.427        0.134      346.203       24.279      865.867
07/25/2013  21:35:00      -21.472       -2.986        1.450       30.420       26.261       12.676      925.402      689.656      160.692        0.112        0.089       21.678       15.415        0.506      346.199       24.276      865.876
07/25/2013  21:36:00      -25.042      -15.247       -2.505       48.660       26.457       28.238     2367.776      699.966      797.392        0.236        0.193       29.319       26.345        0.807      346.305       24.457      865.874
07/25/2013  21:37:00        4.466       13.211       -0.338       14.366       14.246       12.770      206.388      202.935      163.068        0.038        0.029       13.946       11.950        0.734      346.264       24.387      865.910
07/25/2013  21:38:00       40.084      -41.589        6.541       30.537       30.060       24.258      932.504      903.611      588.437        0.290        0.121       57.762       22.025        0.145      346.278       24.407      865.901
07/25/2013  21:39:00       45.765       38.304       15.499       36.220       34.991       32.150     1311.916     1224.393     1033.601        0.369        0.178       59.680       22.566        0.143      346.258       24.375      865.920
07/25/2013  21:40:00       60.670      106.760      -11.501       76.815       75.404       27.520     5900.593     5685.827      757.342        1.377        0.617      122.795       35.413        0.083      346.267       24.392      865.949
07/25/2013  21:41:00       59.264       81.207      -13.610       33.242       48.879       23.430     1105.019     2389.123      548.977        0.717        0.202      100.532       26.834        0.071      346.268       24.394      865.984
07/25/2013  21:42:00       91.578       77.428        9.165       96.587       52.393       38.918     9329.113     2745.011     1514.646        1.402        0.679      119.923       29.390        0.060      346.148       24.187      866.016
07/25/2013  21:43:00      226.838      112.223       28.501       95.119       85.736       52.228     9047.664     7350.600     2727.751        4.199        0.956      253.080       33.540        0.018      346.120       24.135      866.037
07/25/2013  21:44:00      104.961      133.009      112.012       90.824       45.150       56.976     8249.026     2038.542     3246.263        2.739        0.677      169.435       56.689        0.112      346.156       24.198      866.049
07/25/2013  21:45:00       97.109       81.488       49.399       62.045       37.662       43.102     3849.573     1418.443     1857.766        1.282        0.356      126.769       32.330        0.065      346.104       24.110      866.072
07/25/2013  21:46:00      128.296       90.465       24.128       44.831       30.633       39.078     2009.843      938.409     1527.111        1.485        0.224      156.983       16.896        0.012      345.946       23.841      866.114
07/25/2013  21:47:00       61.810       41.155       14.388       38.516       26.743       24.908     1483.464      715.162      620.392        0.427        0.141       74.258        8.555        0.013      345.912       23.784      866.120
07/25/2013  21:48:00       68.607       48.495        5.904       42.772       24.938       25.914     1829.432      621.886      671.539        0.511        0.156       84.016       12.194        0.021      345.897       23.758      866.130
07/25/2013  21:49:00       34.909       11.171        7.153       23.464       19.785       17.894      550.548      391.441      320.178        0.133        0.063       36.653       17.646        0.232      345.918       23.795      866.141
07/25/2013  21:50:00       46.493        4.466        1.812       28.051       23.189       19.235      786.868      537.718      369.973        0.194        0.085       46.707       14.925        0.102      345.948       23.843      866.145
07/25/2013  21:51:00       56.855       35.289       22.745       34.186       27.450       19.244     1168.708      753.521      370.327        0.364        0.115       66.916       11.162        0.028      345.974       23.889      866.132
07/25/2013  21:52:00       -2.660      -44.621        7.359       19.714       44.697       29.132      388.630     1997.844      848.654        0.264        0.162       44.700       33.104        0.548      345.999       23.933      866.135
07/25/2013  21:53:00      -54.525      -10.763       -8.403       39.356       34.410       13.869     1548.918     1184.067      192.358        0.304        0.146       55.577       10.951        0.039      346.071       24.054      866.152
07/25/2013  21:54:00      -14.050      -20.633        5.529       34.108       20.712       18.031     1163.345      429.000      325.132        0.129        0.096       24.962       12.836        0.264      346.040       24.002      866.168
07/25/2013  21:55:00      -50.405      -26.749        6.645       52.578       29.067       23.363     2764.425      844.882      545.840        0.373        0.208       57.063       27.392        0.230      346.020       23.967      866.171
07/25/2013  21:56:00     -113.360      -56.578        3.617       30.933       23.208       18.224      956.873      538.600      332.117        0.895        0.091      126.694       16.843        0.018      346.006       23.941      866.184
07/25/2013  21:57:00      -76.811      -37.619       -3.567       25.981       19.666       14.532      675.024      386.747      211.193        0.430        0.064       85.529       12.409        0.021      346.044       24.008      866.201
07/25/2013  21:58:00      -68.826      -20.775       -6.025       16.795       11.626       10.772      282.060      135.172      116.042        0.287        0.027       71.893        6.604        0.008      346.039       23.998      866.214
07/25/2013  21:59:00      -23.416      -47.805       -0.673       21.573       19.380        8.614      465.379      375.584       74.210        0.187        0.046       53.232        9.847        0.034      346.101       24.104      866.219
07/25/2013  22:00:00      -24.040      -43.258        0.249       18.801       24.648       12.948      353.464      607.522      167.647        0.179        0.056       49.489       12.445        0.063      346.228       24.325      866.230
07/25/2013  22:01:00      -15.570      -60.098       13.945       22.632       36.237       16.663      512.219     1313.092      277.666        0.308        0.105       62.082       19.027        0.094      346.182       24.244      866.242
07/25/2013  22:02:00      -19.312      -96.335        0.912       25.930       53.044       17.759      672.348     2813.631      315.396        0.673        0.190       98.251       10.396        0.011      346.343       24.523      866.256
07/25/2013  22:03:00       -3.530      -65.348        7.413       38.400       41.934       25.519     1474.588     1758.478      651.201        0.411        0.194       65.443       14.044        0.046      346.330       24.501      866.276
07/25/2013  22:04:00      -27.681      -30.908       31.870       53.583       31.123       35.335     2871.152      968.650     1248.597        0.391        0.254       41.492       38.406        0.857      346.318       24.479      866.289
07/25/2013  22:05:00      -55.973      -20.214       -3.578       43.961       32.497       21.087     1932.581     1056.066      444.641        0.349        0.172       59.511       17.159        0.083      346.349       24.533      866.306
07/25/2013  22:06:00       -7.594       44.269        2.107       29.904       30.155       15.395      894.271      909.341      236.998        0.203        0.102       44.916        9.466        0.044      346.215       24.301      866.335
07/25/2013  22:07:00       30.336       81.406      -14.256       24.443       37.444       14.738      597.477     1402.033      217.201        0.498        0.111       86.875       16.510        0.036      346.002       23.937      866.351
07/25/2013  22:08:00       32.695       26.013       10.279       34.035       22.501       24.136     1158.395      506.285      582.548        0.205        0.112       41.781       15.043        0.130      345.956       23.858      866.375
07/25/2013  22:09:00       77.103       30.322        5.550       29.573       36.750       23.295      874.573     1350.549      542.672        0.483        0.138       82.851       10.539        0.016      345.897       23.755      866.392
07/25/2013  22:10:00       72.710       29.415        5.379       26.910       25.677       17.082      724.129      659.314      291.791        0.393        0.084       78.434        9.242        0.014      345.896       23.756      866.407
07/25/2013  22:11:00       56.975       22.312        1.514       29.360       26.564       19.250      862.026      705.636      370.558        0.284        0.097       61.188       12.321        0.041      345.817       23.620      866.420
07/25/2013  22:12:00       33.560       36.653        4.208       19.007       20.977       18.543      361.274      440.022      343.859        0.182        0.057       49.696       13.947        0.079      345.935       23.821      866.427
07/25/2013  22:13:00        8.885       -9.649        5.084       18.111       17.073        9.627      327.994      291.477       92.683        0.045        0.036       13.117        8.487        0.419      345.859       23.691      866.432
07/25/2013  22:14:00        2.281      -26.122       -7.681        6.384        7.430        6.969       40.760       55.209       48.564        0.045        0.007       26.221        5.225        0.040      345.890       23.743      866.442
07/25/2013  22:15:00       -8.502      -25.190       -5.540       19.166       20.369       12.050      367.328      414.892      145.199        0.083        0.046       26.586       10.711        0.162      346.045       24.011      866.451
07/25/2013  22:16:00      -12.164      -28.994        7.759       18.247       16.574       11.612      332.936      274.690      134.829        0.090        0.037       31.443        9.414        0.090      346.033       23.988      866.461
07/25/2013  22:17:00      -17.817      -25.289        6.715       17.525       17.419       11.595      307.137      303.431      134.438        0.087        0.037       30.935        9.250        0.089      346.042       24.002      866.462
07/25/2013  22:18:00      -49.569      -28.155       -4.390        7.970        9.677       10.404       63.524       93.646      108.244        0.177        0.013       57.007        5.674        0.010      346.048       24.014      866.469
07/25/2013  22:19:00      -67.252      -39.922       -3.036       17.899       16.523       10.261      320.357      273.001      105.298        0.341        0.035       78.208        4.545        0.003      346.039       23.999      866.470
07/25/2013  22:20:00      -52.756      -37.694       -0.819       27.531       21.456       14.908      757.932      460.352      222.241        0.282        0.072       64.838       11.020        0.029      346.041       24.002      866.470
07/25/2013  22:21:00       10.257      -34.099       12.809       29.256       21.521       16.929      855.885      463.174      286.579        0.152        0.080       35.608       15.329        0.185      346.058       24.032      866.470
07/25/2013  22:22:00      -40.381      -57.037        2.337       43.163       43.630       24.092     1863.078     1903.542      580.431        0.462        0.217       69.884       28.166        0.162      346.069       24.052      866.487
07/25/2013  22:23:00      -15.824      -88.849       11.856       40.874       39.230       34.499     1670.699     1538.969     1190.181        0.634        0.220       90.247       30.376        0.113      346.082       24.074      866.489
07/25/2013  22:24:00      -21.228      -68.325        8.799       68.870       48.409       22.815     4743.026     2343.418      520.532        0.640        0.380       71.546       22.101        0.095      345.997       23.926      866.480
07/25/2013  22:25:00      -84.992      -35.114       21.403       70.327       53.163       33.826     4945.827     2826.348     1144.218        0.891        0.446       91.960       37.508        0.166      345.897       23.755      866.483
07/25/2013  22:26:00      -97.964      -96.930       11.078       55.841       65.472       38.388     3118.184     4286.648     1473.670        1.400        0.444      137.813       27.117        0.039      345.872       23.714      866.485
07/25/2013  22:27:00     -142.572      -79.103        1.854       86.522       46.122       36.179     7486.106     2127.231     1308.894        1.875        0.546      163.046       26.281        0.026      345.833       23.644      866.494
07/25/2013  22:28:00      -49.610      -57.243        7.526       46.119       46.405       27.383     2126.975     2153.436      749.852        0.541        0.252       75.749       25.305        0.112      345.815       23.616      866.512
07/25/2013  22:29:00      -43.207      -27.333        8.821       43.499       29.875       28.563     1892.177      892.537      815.843        0.315        0.180       51.126       17.363        0.115      345.807       23.602      866.541
07/25/2013  22:30:00       40.248      -12.803        0.579       17.377       18.761       24.392      301.945      351.984      594.960        0.152        0.062       42.235       19.297        0.209      345.830       23.639      866.576
07/25/2013  22:31:00        5.148      -17.543       -2.506       17.979       17.813       12.416      323.250      317.296      154.149        0.057        0.040       18.283        6.728        0.135      345.797       23.587      866.620
07/25/2013  22:32:00       -9.306       15.413       -9.321       18.763       32.585       19.959      352.062     1061.760      398.364        0.111        0.091       18.005       14.614        0.659      345.839       23.656      866.650
07/25/2013  22:33:00        2.580       -0.169        5.658        9.467        7.030       10.254       89.629       49.423      105.150        0.014        0.012        2.585        3.632        1.974      345.779       23.552      866.672
07/25/2013  22:34:00       -7.544      -10.350       -3.493       10.556       13.426        8.457      111.427      180.252       71.526        0.027        0.018       12.808        7.236        0.319      345.825       23.633      866.683
07/25/2013  22:35:00      -25.167       -1.724       -4.040       15.053        7.249        7.147      226.600       52.551       51.084        0.049        0.017       25.226        6.845        0.074      345.879       23.721      866.695
07/25/2013  22:36:00      -36.673      -43.576       -6.268       20.949       26.204       10.859      438.848      686.664      117.918        0.226        0.062       56.954        5.358        0.009      345.924       23.802      866.699
07/25/2013  22:37:00      -76.784      -25.744        0.313       52.456       23.626       20.130     2751.583      558.183      405.231        0.514        0.186       80.985       22.320        0.076      345.879       23.724      866.700
07/25/2013  22:38:00     -124.355      -53.459       -6.812       34.337       38.451       24.814     1179.028     1478.512      615.730        1.082        0.164      135.359       21.116        0.024      345.863       23.697      866.710
07/25/2013  22:39:00      -96.243      -27.417       -4.979       33.382       36.567       15.789     1114.343     1337.113      249.305        0.637        0.135      100.072       10.944        0.012      345.758       23.518      866.729
07/25/2013  22:40:00      -79.970      -12.911        4.056       37.144       36.059       23.764     1379.683     1300.248      564.718        0.491        0.162       81.006       23.012        0.081      345.703       23.422      866.763
07/25/2013  22:41:00     -155.392       27.165      -15.805       60.677       37.237       21.645     3681.733     1386.603      468.495        1.533        0.277      157.748       24.025        0.023      345.677       23.377      866.776
07/25/2013  22:42:00     -147.519       27.391      -14.732       41.048       37.667       24.258     1684.926     1418.807      588.448        1.321        0.185      150.041       22.323        0.022      345.651       23.334      866.788
07/25/2013  22:43:00     -100.246      -16.007      -11.486       38.678       28.153       18.209     1495.992      792.594      331.584        0.653        0.131      101.516       19.468        0.037      345.643       23.321      866.786
07/25/2013  22:44:00      -63.099        7.944        1.374       43.082       30.040       21.552     1856.092      902.425      464.495        0.363        0.161       63.597       18.437        0.084      345.609       23.263      866.784
07/25/2013  22:45:00      -83.026        2.552       -4.606       23.568       31.576       15.899      555.467      997.012      252.779        0.436        0.090       83.066       11.339        0.019      345.651       23.333      866.798
07/25/2013  22:46:00     -134.524       33.695       -3.851       23.996       23.715       18.974      575.825      562.390      360.024        1.037        0.075      138.679       11.293        0.007      345.625       23.289      866.829
07/25/2013  22:47:00      -98.276       10.292       -5.329       34.477       30.851       18.483     1188.695      951.764      341.622        0.614        0.124       98.813       20.084        0.041      345.621       23.283      866.851
07/25/2013  22:48:00     -105.267       -8.156      -20.552       51.971       46.985       28.401     2700.978     2207.550      806.612        0.864        0.286      105.582       20.221        0.037      345.625       23.288      866.838
07/25/2013  22:49:00     -151.039      -30.034       -2.310       62.609       58.828       29.577     3919.900     3460.720      874.788        1.599        0.413      153.996       24.884        0.026      345.527       23.120      866.811
07/25/2013  22:50:00     -162.509      -13.949      -17.008       38.824       44.480       25.783     1507.281     1978.451      664.754        1.552        0.208      163.107       21.404        0.017      345.546       23.154      866.814
07/25/2013  22:51:00      -53.066        7.844       -1.153       39.711       31.502       18.556     1576.993      992.356      344.326        0.290        0.146       53.642       17.611        0.108      345.492       23.062      866.823
07/25/2013  22:52:00      -68.843       31.346      -19.720       22.590       35.000       16.952      510.313     1224.989      287.378        0.407        0.101       75.643       13.658        0.033      345.609       23.262      866.801
07/25/2013  22:53:00      -11.301       33.547       -5.254       25.781       42.955       15.116      664.668     1845.144      228.508        0.201        0.137       35.399       13.384        0.143      345.601       23.248      866.768
07/25/2013  22:54:00       -0.624      -21.184       -3.889       18.580       16.574       11.523      345.218      274.709      132.788        0.061        0.038       21.194        8.851        0.174      345.612       23.266      866.765
07/25/2013  22:55:00        7.256      -21.644       -8.131       20.868       15.965       12.572      435.472      254.891      158.047        0.072        0.042       22.828       12.099        0.281      345.632       23.301      866.764
07/25/2013  22:56:00      -73.850       -2.969       -7.300       34.042       13.283        8.957     1158.848      176.431       80.235        0.347        0.071       73.910        9.543        0.017      345.629       23.297      866.778
07/25/2013  22:57:00      -53.735      -39.207      -12.282       24.356       19.813        9.973      593.225      392.563       99.460        0.283        0.054       66.518        4.241        0.004      345.555       23.169      866.762
07/25/2013  22:58:00       12.727      -94.273      -17.344       27.862       66.282       21.683      776.303     4393.277      470.148        0.749        0.282       95.128       25.224        0.070      345.642       23.318      866.712
07/25/2013  22:59:00      -68.855      -52.334        0.009       58.391       41.407       17.664     3409.528     1714.574      312.024        0.646        0.272       86.486       17.275        0.040      345.707       23.429      866.692
07/25/2013  23:00:00     -122.359      -50.564        0.309       33.655       33.993       19.613     1132.673     1155.550      384.689        1.010        0.134      132.395       19.595        0.022      345.623       23.285      866.692
07/25/2013  23:01:00      -12.185      -39.445        3.542       33.086       36.012       24.018     1094.704     1296.869      576.882        0.234        0.148       41.284       23.642        0.328      345.830       23.641      866.678
07/25/2013  23:02:00      -25.602      -37.648       12.174       39.742       41.918       25.977     1579.402     1757.119      674.825        0.312        0.201       45.528       21.771        0.229      345.898       23.757      866.666
07/25/2013  23:03:00      -62.857        3.602        6.515       56.861       38.861       28.518     3233.148     1510.162      813.273        0.478        0.278       62.960       29.654        0.222      345.920       23.797      866.657
07/25/2013  23:04:00     -143.426       21.076       -9.706       57.070       35.340       19.632     3256.928     1248.938      385.421        1.300        0.245      144.967       22.714        0.025      345.780       23.554      866.676
07/25/2013  23:05:00     -114.564      -23.173       10.072       99.636       54.435       31.565     9927.331     2963.160      996.339        1.382        0.694      116.884       49.737        0.181      345.629       23.294      866.684
07/25/2013  23:06:00      -88.951       12.097       -6.311       54.897       31.101       24.949     3013.666      967.246      622.453        0.635        0.230       89.770       26.725        0.089      345.683       23.389      866.692
07/25/2013  23:07:00     -157.835       38.579      -10.613       29.627       40.333       21.355      877.760     1626.771      456.046        1.474        0.148      162.482       16.518        0.010      345.596       23.239      866.697
07/25/2013  23:08:00     -150.578       55.430      -24.609       33.372       40.185       22.701     1113.711     1614.854      515.340        1.480        0.162      160.456       16.067        0.010      345.730       23.469      866.702
07/25/2013  23:09:00     -107.744      -41.457       -0.618       50.412       34.008       24.143     2541.393     1156.576      582.868        0.880        0.214      115.444       25.128        0.047      345.568       23.191      866.701
07/25/2013  23:10:00      -47.852      -46.422       14.943       55.230       37.227       29.689     3050.302     1385.881      881.457        0.499        0.266       66.669       32.019        0.231      345.556       23.170      866.683
07/25/2013  23:11:00      -50.116      -30.485       -0.264       34.973       27.287       18.894     1223.093      744.569      356.981        0.288        0.116       58.659       12.571        0.046      345.550       23.162      866.669
07/25/2013  23:12:00      -97.902      -66.437       -4.895       44.606       37.553       23.399     1989.678     1410.265      547.519        0.898        0.197      118.316       23.365        0.039      345.568       23.192      866.671
07/25/2013  23:13:00      -82.054      -48.438        6.795       51.460       36.305       28.564     2648.152     1318.063      815.918        0.695        0.239       95.284       30.387        0.102      345.525       23.117      866.655
07/25/2013  23:14:00     -136.569       -0.784       -0.934       47.379       37.736       30.172     2244.735     1424.001      910.321        1.161        0.229      136.571       27.731        0.041      345.511       23.094      866.648
07/25/2013  23:15:00     -112.556       -5.032      -11.969       70.498       48.404       27.602     4969.966     2342.981      761.886        1.045        0.404      112.668       31.195        0.077      345.636       23.308      866.642
07/25/2013  23:16:00     -118.631        4.566      -10.576       39.883       30.135       22.649     1590.677      908.099      512.981        0.861        0.151      118.719       23.121        0.038      345.474       23.030      866.630
07/25/2013  23:17:00     -180.626        4.393      -15.818       59.148       60.196       29.095     3498.458     3623.573      846.522        2.043        0.398      180.679       20.204        0.013      345.535       23.132      866.607
07/25/2013  23:18:00     -133.236      -53.365      -14.618       53.520       57.826       32.234     2864.412     3343.833     1039.045        1.403        0.362      143.525       27.881        0.038      345.548       23.158      866.594
07/25/2013  23:19:00     -107.157      -13.567      -10.186       28.068       51.269       25.196      787.837     2628.487      634.845        0.791        0.203      108.012       13.553        0.016      345.537       23.139      866.596
07/25/2013  23:20:00      -70.060        1.549        1.748       34.594       26.716       19.953     1196.711      713.745      398.119        0.361        0.115       70.077       18.167        0.067      345.466       23.016      866.594
07/25/2013  23:21:00      -47.240      -41.760       -6.977       39.893       31.605       17.718     1591.486      998.853      313.943        0.346        0.145       63.052       17.402        0.076      345.462       23.009      866.595
07/25/2013  23:22:00     -113.505      -66.202       -0.165       42.551       39.099       26.653     1810.609     1528.733      710.358        1.066        0.202      131.400       19.831        0.023      345.400       22.903      866.588
07/25/2013  23:23:00     -111.624      -22.030       -7.335       39.451       45.836       22.674     1556.397     2100.970      514.099        0.858        0.209      113.777       15.250        0.018      345.376       22.862      866.578
07/25/2013  23:24:00      -53.780      -15.867       -6.447       48.685       25.900       14.412     2370.274      670.785      207.698        0.322        0.162       56.072       15.334        0.075      345.356       22.827      866.581
07/25/2013  23:25:00      -56.678      -27.499       -6.796       24.627       20.364       14.299      606.489      414.680      204.460        0.262        0.061       62.997       14.392        0.052      345.362       22.839      866.579
07/25/2013  23:26:00      -22.532      -33.277       -2.802       39.365       17.084       18.971     1549.584      291.856      359.892        0.191        0.110       40.187       18.898        0.221      345.405       22.911      866.581
07/25/2013  23:27:00      -43.749      -23.598       -4.465       29.929       30.142       15.643      895.749      908.562      244.701        0.227        0.102       49.708       15.518        0.097      345.291       22.716      866.597
07/25/2013  23:28:00      -31.230        2.879        2.819       20.664       13.845       10.592      427.019      191.678      112.189        0.086        0.037       31.362        8.299        0.070      345.255       22.653      866.603
07/25/2013  23:29:00      -29.318       -8.691        2.160       18.514       20.952       14.395      342.768      438.975      207.203        0.096        0.049       30.579        9.573        0.098      345.330       22.783      866.608
07/25/2013  23:30:00      -63.432      -27.901       -8.192       30.085       21.095       14.113      905.106      444.984      199.186        0.321        0.077       69.297        8.155        0.014      345.308       22.746      866.608
07/25/2013  23:31:00      -69.485      -29.996       -7.226       37.119       22.032       16.128     1377.805      485.391      260.119        0.395        0.106       75.683       15.462        0.042      345.244       22.634      866.601
07/25/2013  23:32:00      -90.309      -25.060       -5.723       42.161       23.961       18.481     1777.539      574.116      341.542        0.575        0.135       93.722       18.909        0.041      345.268       22.677      866.596
07/25/2013  23:33:00      -88.331       10.510       -7.545       23.015       23.224       20.741      529.704      539.349      430.185        0.473        0.075       88.954       11.844        0.018      345.257       22.658      866.590
07/25/2013  23:34:00     -122.799      -24.477      -11.291       32.496       33.526       18.820     1055.970     1123.981      354.194        0.917        0.127      125.215       13.789        0.012      345.303       22.737      866.586
07/25/2013  23:35:00     -165.435      -22.667      -18.399       47.775       37.975       29.654     2282.434     1442.137      879.380        1.641        0.230      166.980       25.948        0.024      345.316       22.759      866.573
07/25/2013  23:36:00     -171.103      -28.599      -13.279       38.828       35.886       26.169     1507.645     1287.838      684.822        1.687        0.174      173.477       19.269        0.012      345.234       22.618      866.550
07/25/2013  23:37:00     -168.866       -4.014       -8.481       49.312       35.326       24.558     2431.632     1247.918      603.110        1.644        0.214      168.914       23.489        0.019      345.222       22.599      866.539
07/25/2013  23:38:00     -158.757      -49.536      -10.739       52.030       57.375       29.447     2707.096     3291.918      867.110        1.732        0.343      166.305       27.375        0.027      345.267       22.673      866.530
07/25/2013  23:39:00     -148.035      -19.698      -11.870       33.328       38.778       21.861     1110.766     1503.757      477.883        1.277        0.155      149.339       19.376        0.017      345.279       22.694      866.512
07/25/2013  23:40:00      -85.378      -22.000        1.212       51.704       30.103       25.583     2673.325      906.191      654.503        0.600        0.212       88.167       26.325        0.089      345.215       22.585      866.514
07/25/2013  23:41:00     -154.579       -5.567      -13.500       59.204       32.303       23.886     3505.087     1043.507      570.519        1.461        0.256      154.679       28.440        0.034      345.160       22.493      866.510
07/25/2013  23:42:00     -120.779      -27.771        0.425       68.633       38.655       29.556     4710.528     1494.197      873.529        1.122        0.354      123.931       33.664        0.074      345.186       22.538      866.482
07/25/2013  23:43:00      -93.175      -23.384        2.613       34.807       41.717       18.722     1211.553     1740.294      350.521        0.627        0.165       96.065       19.079        0.039      345.199       22.559      866.475
07/25/2013  23:44:00     -106.455        4.065       -2.300       30.576       24.435       20.454      934.913      597.070      418.371        0.665        0.098      106.533       17.893        0.028      345.183       22.532      866.473
07/25/2013  23:45:00      -58.669      -38.028       -1.980       24.877       20.191       16.053      618.878      407.696      257.688        0.309        0.064       69.915        8.562        0.015      345.208       22.572      866.477
07/25/2013  23:46:00      -51.917      -40.167        0.063       54.296       25.912       23.368     2948.068      671.443      546.050        0.424        0.208       65.641       23.631        0.130      345.244       22.637      866.472
07/25/2013  23:47:00        1.059      -27.589       -3.314       20.184       29.207       13.728      407.395      853.045      188.470        0.111        0.072       27.610        8.863        0.103      345.295       22.723      866.457
07/25/2013  23:48:00       -9.877      -88.644        6.797       20.551       23.862       15.641      422.334      569.414      244.648        0.462        0.062       89.192       11.123        0.016      345.359       22.832      866.444
07/25/2013  23:49:00       -1.266      -72.728        2.528       14.616       14.811       10.258      213.629      219.371      105.234        0.292        0.027       72.739        3.871        0.003      345.429       22.948      866.436
07/25/2013  23:50:00      -31.676      -87.523       -2.686       23.801       22.980       12.845      566.476      528.086      164.998        0.496        0.063       93.079       10.076        0.012      345.491       23.058      866.426
07/25/2013  23:51:00      -53.276      -59.825        2.450       35.107       27.376       19.613     1232.487      749.420      384.688        0.439        0.118       80.109       21.943        0.075      345.411       22.920      866.428
07/25/2013  23:52:00      -53.111      -45.648        4.966       39.313       30.239       18.327     1545.511      914.408      335.896        0.386        0.140       70.033       16.061        0.053      345.327       22.778      866.423
07/25/2013  23:53:00      -26.166      -95.715        4.944       37.357       33.796       17.927     1395.553     1142.158      321.364        0.636        0.143       99.227       11.415        0.013      345.310       22.750      866.415
07/25/2013  23:54:00      -18.762      -67.725        5.610       22.205       31.546       18.520      493.041      995.155      343.003        0.340        0.092       70.276       12.408        0.031      345.294       22.721      866.397
07/25/2013  23:55:00      -21.955      -46.451        3.402       26.992       26.091       13.914      728.591      680.740      193.593        0.213        0.080       51.379        9.374        0.033      345.347       22.813      866.386
07/25/2013  23:56:00      -28.889      -47.503        1.768       44.714       38.636       28.651     1999.304     1492.742      820.882        0.370        0.216       55.598       31.302        0.317      345.338       22.796      866.380
07/25/2013  23:57:00      -64.606      -56.326      -11.596       33.671       23.513       15.472     1133.745      552.866      239.369        0.470        0.096       85.712       13.729        0.026      345.279       22.695      866.356
07/25/2013  23:58:00      -57.321      -59.311        6.867       41.164       27.993       22.677     1694.501      783.582      514.253        0.492        0.150       82.484       24.210        0.086      345.312       22.752      866.344
07/25/2013  23:59:00      -57.182      -55.982        7.690       30.684       35.200       20.677      941.506     1239.032      427.547        0.453        0.130       80.023       11.037        0.019      345.289       22.712      866.340
